Wetterdaten: Donnerstag, 20.10.2016
Datum Zeit Temp. A. Temp. A. max Feuchte A. Luftdruck Regen Wind Richtung Richtung Sonnenschein ET UV Solar Taupunkt Windböen
20.10.2016 00:00 5,8 °C 5,9 °C 84 % 1015,9 hPa 0,0 mm 4,7 km/h (1 Bft) O-SO 119 ° 0 min 0,000 mm 0,0 UV-I 0 W/m² 3,3 °C 6,4 km/h (2 Bft)
20.10.2016 00:01 5,8 °C 5,8 °C 85 % 1015,9 hPa 0,0 mm 3,7 km/h (1 Bft) SO 140 ° 0 min 0,000 mm 0,0 UV-I 0 W/m² 3,5 °C 4,8 km/h (1 Bft)
20.10.2016 00:02 5,7 °C 5,8 °C 85 % 1016,0 hPa 0,0 mm 4,8 km/h (1 Bft) S 188 ° 0 min 0,000 mm 0,0 UV-I 0 W/m² 3,4 °C 8,0 km/h (2 Bft)
20.10.2016 00:03 5,7 °C 5,7 °C 83 % 1015,9 hPa 0,0 mm 3,9 km/h (1 Bft) S 179 ° 0 min 0,000 mm 0,0 UV-I 0 W/m² 3,0 °C 4,8 km/h (1 Bft)
20.10.2016 00:04 5,7 °C 5,7 °C 84 % 1015,9 hPa 0,0 mm 2,3 km/h (1 Bft) S 179 ° 0 min 0,000 mm 0,0 UV-I 0 W/m² 3,2 °C 3,2 km/h (1 Bft)
20.10.2016 00:05 5,6 °C 5,7 °C 85 % 1015,9 hPa 0,0 mm 2,7 km/h (1 Bft) S 177 ° 0 min 0,000 mm 0,0 UV-I 0 W/m² 3,3 °C 3,2 km/h (1 Bft)
20.10.2016 00:06 5,6 °C 5,6 °C 85 % 1015,9 hPa 0,0 mm 2,5 km/h (1 Bft) S 177 ° 0 min 0,000 mm 0,0 UV-I 0 W/m² 3,3 °C 3,2 km/h (1 Bft)
20.10.2016 00:07 5,5 °C 5,6 °C 85 % 1015,9 hPa 0,0 mm 3,7 km/h (1 Bft) SO 142 ° 0 min 0,000 mm 0,0 UV-I 0 W/m² 3,2 °C 4,8 km/h (1 Bft)
20.10.2016 00:08 5,4 °C 5,5 °C 85 % 1015,9 hPa 0,0 mm 3,6 km/h (1 Bft) SO 142 ° 0 min 0,000 mm 0,0 UV-I 0 W/m² 3,1 °C 4,8 km/h (1 Bft)
20.10.2016 00:09 5,4 °C 5,4 °C 85 % 1015,8 hPa 0,0 mm 1,1 km/h (1 Bft) SO 142 ° 0 min 0,000 mm 0,0 UV-I 0 W/m² 3,1 °C 3,2 km/h (1 Bft)
20.10.2016 00:10 5,3 °C 5,4 °C 86 % 1015,8 hPa 0,0 mm 1,6 km/h (1 Bft) SO 140 ° 0 min 0,000 mm 0,0 UV-I 0 W/m² 3,2 °C 3,2 km/h (1 Bft)
20.10.2016 00:11 5,3 °C 5,3 °C 85 % 1015,8 hPa 0,0 mm 2,5 km/h (1 Bft) SW 223 ° 0 min 0,000 mm 0,0 UV-I 0 W/m² 3,0 °C 4,8 km/h (1 Bft)
20.10.2016 00:12 5,3 °C 5,3 °C 85 % 1015,9 hPa 0,0 mm 1,6 km/h (1 Bft) SW 219 ° 0 min 0,000 mm 0,0 UV-I 0 W/m² 3,0 °C 3,2 km/h (1 Bft)
20.10.2016 00:13 5,2 °C 5,3 °C 85 % 1015,8 hPa 0,0 mm 1,7 km/h (1 Bft) SW 219 ° 0 min 0,000 mm 0,0 UV-I 0 W/m² 2,9 °C 3,2 km/h (1 Bft)
20.10.2016 00:14 5,2 °C 5,2 °C 86 % 1015,8 hPa 0,0 mm 0,5 km/h (0 Bft) SW 219 ° 0 min 0,000 mm 0,0 UV-I 0 W/m² 3,1 °C 1,6 km/h (1 Bft)
20.10.2016 00:15 5,2 °C 5,2 °C 86 % 1015,8 hPa 0,0 mm 0,7 km/h (0 Bft) SW 219 ° 0 min 0,000 mm 0,0 UV-I 0 W/m² 3,1 °C 1,6 km/h (1 Bft)
20.10.2016 00:16 5,1 °C 5,2 °C 86 % 1015,8 hPa 0,0 mm 0,2 km/h (0 Bft) SW 219 ° 0 min 0,000 mm 0,0 UV-I 0 W/m² 3,0 °C 1,6 km/h (1 Bft)
20.10.2016 00:17 5,1 °C 5,1 °C 86 % 1015,8 hPa 0,0 mm 0,7 km/h (0 Bft) SW 219 ° 0 min 0,000 mm 0,0 UV-I 0 W/m² 3,0 °C 1,6 km/h (1 Bft)
20.10.2016 00:18 4,9 °C 5,1 °C 86 % 1015,9 hPa 0,0 mm 0,0 km/h (0 Bft) SW 219 ° 0 min 0,000 mm 0,0 UV-I 0 W/m² 2,8 °C 0,0 km/h (0 Bft)
20.10.2016 00:19 4,9 °C 4,9 °C 86 % 1015,9 hPa 0,0 mm 0,4 km/h (0 Bft) SW 219 ° 0 min 0,000 mm 0,0 UV-I 0 W/m² 2,8 °C 3,2 km/h (1 Bft)
20.10.2016 00:20 4,9 °C 4,9 °C 87 % 1015,8 hPa 0,0 mm 1,7 km/h (1 Bft) SW 219 ° 0 min 0,000 mm 0,0 UV-I 0 W/m² 2,9 °C 3,2 km/h (1 Bft)
20.10.2016 00:21 4,9 °C 4,9 °C 87 % 1015,8 hPa 0,0 mm 0,0 km/h (0 Bft) SW 219 ° 0 min 0,000 mm 0,0 UV-I 0 W/m² 2,9 °C 0,0 km/h (0 Bft)
20.10.2016 00:22 4,9 °C 4,9 °C 87 % 1015,8 hPa 0,0 mm 0,1 km/h (0 Bft) SW 219 ° 0 min 0,000 mm 0,0 UV-I 0 W/m² 2,9 °C 1,6 km/h (1 Bft)
20.10.2016 00:23 4,9 °C 4,9 °C 87 % 1015,8 hPa 0,0 mm 1,8 km/h (1 Bft) SW 219 ° 0 min 0,000 mm 0,0 UV-I 0 W/m² 2,9 °C 3,2 km/h (1 Bft)
20.10.2016 00:24 4,8 °C 4,9 °C 87 % 1015,8 hPa 0,0 mm 0,5 km/h (0 Bft) SW 219 ° 0 min 0,000 mm 0,0 UV-I 0 W/m² 2,8 °C 1,6 km/h (1 Bft)
20.10.2016 00:25 4,8 °C 4,8 °C 87 % 1015,9 hPa 0,0 mm 1,3 km/h (1 Bft) SW 219 ° 0 min 0,000 mm 0,0 UV-I 0 W/m² 2,8 °C 3,2 km/h (1 Bft)
20.10.2016 00:26 4,7 °C 4,8 °C 87 % 1015,9 hPa 0,0 mm 1,3 km/h (1 Bft) SW 219 ° 0 min 0,000 mm 0,0 UV-I 0 W/m² 2,7 °C 3,2 km/h (1 Bft)
20.10.2016 00:27 4,7 °C 4,7 °C 87 % 1015,8 hPa 0,0 mm 2,1 km/h (1 Bft) SW 219 ° 0 min 0,000 mm 0,0 UV-I 0 W/m² 2,7 °C 3,2 km/h (1 Bft)
20.10.2016 00:28 4,8 °C 4,8 °C 88 % 1015,9 hPa 0,0 mm 1,9 km/h (1 Bft) SW 218 ° 0 min 0,000 mm 0,0 UV-I 0 W/m² 3,0 °C 3,2 km/h (1 Bft)
20.10.2016 00:29 4,7 °C 4,8 °C 88 % 1015,8 hPa 0,0 mm 0,9 km/h (0 Bft) SW 218 ° 0 min 0,000 mm 0,0 UV-I 0 W/m² 2,9 °C 1,6 km/h (1 Bft)
20.10.2016 00:30 4,8 °C 4,8 °C 87 % 1015,8 hPa 0,0 mm 1,7 km/h (1 Bft) SW 218 ° 0 min 0,000 mm 0,0 UV-I 0 W/m² 2,8 °C 3,2 km/h (1 Bft)
20.10.2016 00:31 4,7 °C 4,8 °C 88 % 1015,8 hPa 0,0 mm 2,9 km/h (1 Bft) SW 222 ° 0 min 0,000 mm 0,0 UV-I 0 W/m² 2,9 °C 4,8 km/h (1 Bft)
20.10.2016 00:32 4,8 °C 4,8 °C 87 % 1015,8 hPa 0,0 mm 2,3 km/h (1 Bft) S-SW 212 ° 0 min 0,000 mm 0,0 UV-I 0 W/m² 2,8 °C 6,4 km/h (2 Bft)
20.10.2016 00:33 4,8 °C 4,8 °C 87 % 1015,8 hPa 0,0 mm 1,9 km/h (1 Bft) SW 215 ° 0 min 0,000 mm 0,0 UV-I 0 W/m² 2,8 °C 4,8 km/h (1 Bft)
20.10.2016 00:34 4,9 °C 4,9 °C 87 % 1015,8 hPa 0,0 mm 3,6 km/h (1 Bft) S-SW 202 ° 0 min 0,000 mm 0,0 UV-I 0 W/m² 2,9 °C 4,8 km/h (1 Bft)
20.10.2016 00:35 4,9 °C 4,9 °C 87 % 1015,8 hPa 0,0 mm 1,5 km/h (1 Bft) S-SW 202 ° 0 min 0,000 mm 0,0 UV-I 0 W/m² 2,9 °C 3,2 km/h (1 Bft)
20.10.2016 00:36 4,9 °C 4,9 °C 87 % 1015,8 hPa 0,0 mm 1,3 km/h (1 Bft) S-SW 202 ° 0 min 0,000 mm 0,0 UV-I 0 W/m² 2,9 °C 3,2 km/h (1 Bft)
20.10.2016 00:37 4,9 °C 4,9 °C 88 % 1015,8 hPa 0,0 mm 1,7 km/h (1 Bft) S-SW 207 ° 0 min 0,000 mm 0,0 UV-I 0 W/m² 3,1 °C 3,2 km/h (1 Bft)
20.10.2016 00:38 4,9 °C 4,9 °C 86 % 1015,7 hPa 0,0 mm 3,2 km/h (1 Bft) S-SW 201 ° 0 min 0,000 mm 0,0 UV-I 0 W/m² 2,8 °C 6,4 km/h (2 Bft)
20.10.2016 00:39 5,1 °C 5,1 °C 86 % 1015,7 hPa 0,0 mm 3,0 km/h (1 Bft) S-SO 165 ° 0 min 0,000 mm 0,0 UV-I 0 W/m² 3,0 °C 6,4 km/h (2 Bft)
20.10.2016 00:40 5,1 °C 5,1 °C 86 % 1015,7 hPa 0,0 mm 3,3 km/h (1 Bft) S-SO 158 ° 0 min 0,000 mm 0,0 UV-I 0 W/m² 3,0 °C 6,4 km/h (2 Bft)
20.10.2016 00:41 5,2 °C 5,2 °C 85 % 1015,7 hPa 0,0 mm 2,4 km/h (1 Bft) S 178 ° 0 min 0,000 mm 0,0 UV-I 0 W/m² 2,9 °C 4,8 km/h (1 Bft)
20.10.2016 00:42 5,2 °C 5,2 °C 85 % 1015,7 hPa 0,0 mm 3,0 km/h (1 Bft) S-SW 199 ° 0 min 0,000 mm 0,0 UV-I 0 W/m² 2,9 °C 6,4 km/h (2 Bft)
20.10.2016 00:43 5,3 °C 5,3 °C 84 % 1015,7 hPa 0,0 mm 1,9 km/h (1 Bft) S-SW 192 ° 0 min 0,000 mm 0,0 UV-I 0 W/m² 2,8 °C 3,2 km/h (1 Bft)
20.10.2016 00:44 5,3 °C 5,3 °C 84 % 1015,8 hPa 0,0 mm 1,5 km/h (1 Bft) S-SW 192 ° 0 min 0,000 mm 0,0 UV-I 0 W/m² 2,8 °C 3,2 km/h (1 Bft)
20.10.2016 00:45 5,3 °C 5,3 °C 84 % 1015,8 hPa 0,0 mm 2,0 km/h (1 Bft) S-SW 201 ° 0 min 0,000 mm 0,0 UV-I 0 W/m² 2,8 °C 3,2 km/h (1 Bft)
20.10.2016 00:46 5,3 °C 5,3 °C 84 % 1015,7 hPa 0,0 mm 2,3 km/h (1 Bft) S 189 ° 0 min 0,000 mm 0,0 UV-I 0 W/m² 2,8 °C 3,2 km/h (1 Bft)
20.10.2016 00:47 5,3 °C 5,3 °C 84 % 1015,7 hPa 0,0 mm 4,1 km/h (1 Bft) SW 225 ° 0 min 0,000 mm 0,0 UV-I 0 W/m² 2,8 °C 6,4 km/h (2 Bft)
20.10.2016 00:48 5,3 °C 5,3 °C 84 % 1015,7 hPa 0,0 mm 4,6 km/h (1 Bft) S 182 ° 0 min 0,000 mm 0,0 UV-I 0 W/m² 2,8 °C 6,4 km/h (2 Bft)
20.10.2016 00:49 5,3 °C 5,4 °C 84 % 1015,7 hPa 0,0 mm 6,0 km/h (2 Bft) S-SW 193 ° 0 min 0,000 mm 0,0 UV-I 0 W/m² 2,8 °C 11,3 km/h (2 Bft)
20.10.2016 00:50 5,3 °C 5,4 °C 84 % 1015,7 hPa 0,0 mm 6,2 km/h (2 Bft) W-SW 242 ° 0 min 0,000 mm 0,0 UV-I 0 W/m² 2,8 °C 9,7 km/h (2 Bft)
20.10.2016 00:51 5,3 °C 5,4 °C 85 % 1015,7 hPa 0,0 mm 2,4 km/h (1 Bft) SW 218 ° 0 min 0,000 mm 0,0 UV-I 0 W/m² 3,0 °C 3,2 km/h (1 Bft)
20.10.2016 00:52 5,4 °C 5,4 °C 84 % 1015,7 hPa 0,0 mm 1,0 km/h (0 Bft) SW 218 ° 0 min 0,000 mm 0,0 UV-I 0 W/m² 2,9 °C 1,6 km/h (1 Bft)
20.10.2016 00:53 5,4 °C 5,4 °C 84 % 1015,7 hPa 0,0 mm 3,2 km/h (1 Bft) S-SW 206 ° 0 min 0,000 mm 0,0 UV-I 0 W/m² 2,9 °C 4,8 km/h (1 Bft)
20.10.2016 00:54 5,4 °C 5,4 °C 84 % 1015,7 hPa 0,0 mm 4,1 km/h (1 Bft) S-SW 197 ° 0 min 0,000 mm 0,0 UV-I 0 W/m² 2,9 °C 6,4 km/h (2 Bft)
20.10.2016 00:55 5,4 °C 5,4 °C 83 % 1015,7 hPa 0,0 mm 4,7 km/h (1 Bft) S 179 ° 0 min 0,000 mm 0,0 UV-I 0 W/m² 2,7 °C 8,0 km/h (2 Bft)
20.10.2016 00:56 5,4 °C 5,4 °C 83 % 1015,7 hPa 0,0 mm 5,6 km/h (1 Bft) S 186 ° 0 min 0,000 mm 0,0 UV-I 0 W/m² 2,7 °C 8,0 km/h (2 Bft)
20.10.2016 00:57 5,5 °C 5,5 °C 83 % 1015,7 hPa 0,0 mm 3,7 km/h (1 Bft) S-SW 196 ° 0 min 0,000 mm 0,0 UV-I 0 W/m² 2,8 °C 6,4 km/h (2 Bft)
20.10.2016 00:58 5,4 °C 5,5 °C 83 % 1015,7 hPa 0,0 mm 2,0 km/h (1 Bft) S 188 ° 0 min 0,000 mm 0,0 UV-I 0 W/m² 2,7 °C 3,2 km/h (1 Bft)
20.10.2016 00:59 5,5 °C 5,5 °C 83 % 1015,7 hPa 0,0 mm 2,5 km/h (1 Bft) S 188 ° 0 min 0,000 mm 0,0 UV-I 0 W/m² 2,8 °C 3,2 km/h (1 Bft)
20.10.2016 01:00 5,5 °C 5,5 °C 83 % 1015,7 hPa 0,0 mm 3,0 km/h (1 Bft) S 188 ° 0 min 0,000 mm 0,0 UV-I 0 W/m² 2,8 °C 4,8 km/h (1 Bft)
20.10.2016 01:01 5,5 °C 5,6 °C 84 % 1015,7 hPa 0,0 mm 3,2 km/h (1 Bft) S 186 ° 0 min 0,000 mm 0,0 UV-I 0 W/m² 3,0 °C 6,4 km/h (2 Bft)
20.10.2016 01:02 5,5 °C 5,5 °C 84 % 1015,7 hPa 0,0 mm 2,7 km/h (1 Bft) S 186 ° 0 min 0,000 mm 0,0 UV-I 0 W/m² 3,0 °C 4,8 km/h (1 Bft)
20.10.2016 01:03 5,4 °C 5,5 °C 85 % 1015,7 hPa 0,0 mm 3,0 km/h (1 Bft) S 188 ° 0 min 0,000 mm 0,0 UV-I 0 W/m² 3,1 °C 6,4 km/h (2 Bft)
20.10.2016 01:04 5,4 °C 5,4 °C 84 % 1015,7 hPa 0,0 mm 2,2 km/h (1 Bft) S 188 ° 0 min 0,000 mm 0,0 UV-I 0 W/m² 2,9 °C 4,8 km/h (1 Bft)
20.10.2016 01:05 5,3 °C 5,4 °C 84 % 1015,7 hPa 0,0 mm 1,4 km/h (1 Bft) S 175 ° 0 min 0,000 mm 0,0 UV-I 0 W/m² 2,8 °C 3,2 km/h (1 Bft)
20.10.2016 01:06 5,2 °C 5,3 °C 85 % 1015,7 hPa 0,0 mm 1,2 km/h (1 Bft) S 175 ° 0 min 0,000 mm 0,0 UV-I 0 W/m² 2,9 °C 3,2 km/h (1 Bft)
20.10.2016 01:07 5,2 °C 5,2 °C 85 % 1015,6 hPa 0,0 mm 2,1 km/h (1 Bft) S 169 ° 0 min 0,000 mm 0,0 UV-I 0 W/m² 2,9 °C 6,4 km/h (2 Bft)
20.10.2016 01:08 5,1 °C 5,2 °C 85 % 1015,6 hPa 0,0 mm 2,2 km/h (1 Bft) S 169 ° 0 min 0,000 mm 0,0 UV-I 0 W/m² 2,8 °C 6,4 km/h (2 Bft)
20.10.2016 01:09 5,1 °C 5,1 °C 86 % 1015,6 hPa 0,0 mm 2,9 km/h (1 Bft) S 180 ° 0 min 0,000 mm 0,0 UV-I 0 W/m² 3,0 °C 6,4 km/h (2 Bft)
20.10.2016 01:10 5,1 °C 5,1 °C 86 % 1015,6 hPa 0,0 mm 4,4 km/h (1 Bft) S 175 ° 0 min 0,000 mm 0,0 UV-I 0 W/m² 3,0 °C 6,4 km/h (2 Bft)
20.10.2016 01:11 5,0 °C 5,1 °C 86 % 1015,6 hPa 0,0 mm 4,0 km/h (1 Bft) S 184 ° 0 min 0,000 mm 0,0 UV-I 0 W/m² 2,9 °C 4,8 km/h (1 Bft)
20.10.2016 01:12 5,0 °C 5,0 °C 86 % 1015,6 hPa 0,0 mm 3,0 km/h (1 Bft) S 186 ° 0 min 0,000 mm 0,0 UV-I 0 W/m² 2,9 °C 4,8 km/h (1 Bft)
20.10.2016 01:13 5,0 °C 5,1 °C 86 % 1015,6 hPa 0,0 mm 2,5 km/h (1 Bft) S 181 ° 0 min 0,000 mm 0,0 UV-I 0 W/m² 2,9 °C 4,8 km/h (1 Bft)
20.10.2016 01:14 5,0 °C 5,0 °C 86 % 1015,6 hPa 0,0 mm 1,7 km/h (1 Bft) S-SW 200 ° 0 min 0,000 mm 0,0 UV-I 0 W/m² 2,9 °C 3,2 km/h (1 Bft)
20.10.2016 01:15 5,1 °C 5,1 °C 85 % 1015,6 hPa 0,0 mm 1,7 km/h (1 Bft) S-SW 194 ° 0 min 0,000 mm 0,0 UV-I 0 W/m² 2,8 °C 3,2 km/h (1 Bft)
20.10.2016 01:16 5,1 °C 5,1 °C 85 % 1015,6 hPa 0,0 mm 1,5 km/h (1 Bft) S-SW 194 ° 0 min 0,000 mm 0,0 UV-I 0 W/m² 2,8 °C 3,2 km/h (1 Bft)
20.10.2016 01:17 5,1 °C 5,1 °C 85 % 1015,7 hPa 0,0 mm 1,0 km/h (0 Bft) S-SW 194 ° 0 min 0,000 mm 0,0 UV-I 0 W/m² 2,8 °C 1,6 km/h (1 Bft)
20.10.2016 01:18 5,1 °C 5,1 °C 85 % 1015,6 hPa 0,0 mm 1,5 km/h (1 Bft) S-SW 194 ° 0 min 0,000 mm 0,0 UV-I 0 W/m² 2,8 °C 3,2 km/h (1 Bft)
20.10.2016 01:19 5,1 °C 5,1 °C 85 % 1015,6 hPa 0,0 mm 0,5 km/h (0 Bft) S-SW 194 ° 0 min 0,000 mm 0,0 UV-I 0 W/m² 2,8 °C 1,6 km/h (1 Bft)
20.10.2016 01:20 5,1 °C 5,1 °C 86 % 1015,6 hPa 0,0 mm 0,9 km/h (0 Bft) S-SW 194 ° 0 min 0,000 mm 0,0 UV-I 0 W/m² 3,0 °C 1,6 km/h (1 Bft)
20.10.2016 01:21 5,0 °C 5,1 °C 86 % 1015,6 hPa 0,0 mm 1,3 km/h (1 Bft) S-SW 194 ° 0 min 0,000 mm 0,0 UV-I 0 W/m² 2,9 °C 3,2 km/h (1 Bft)
20.10.2016 01:22 5,0 °C 5,0 °C 86 % 1015,6 hPa 0,0 mm 1,2 km/h (1 Bft) S 181 ° 0 min 0,000 mm 0,0 UV-I 0 W/m² 2,9 °C 4,8 km/h (1 Bft)
20.10.2016 01:23 4,9 °C 5,0 °C 86 % 1015,5 hPa 0,0 mm 3,1 km/h (1 Bft) W-SW 242 ° 0 min 0,000 mm 0,0 UV-I 0 W/m² 2,8 °C 4,8 km/h (1 Bft)
20.10.2016 01:24 4,9 °C 4,9 °C 86 % 1015,5 hPa 0,0 mm 2,1 km/h (1 Bft) S-SW 213 ° 0 min 0,000 mm 0,0 UV-I 0 W/m² 2,8 °C 4,8 km/h (1 Bft)
20.10.2016 01:25 4,9 °C 4,9 °C 87 % 1015,6 hPa 0,0 mm 1,4 km/h (1 Bft) S-SW 213 ° 0 min 0,000 mm 0,0 UV-I 0 W/m² 2,9 °C 3,2 km/h (1 Bft)
20.10.2016 01:26 4,8 °C 4,9 °C 87 % 1015,5 hPa 0,0 mm 3,3 km/h (1 Bft) S-SW 213 ° 0 min 0,000 mm 0,0 UV-I 0 W/m² 2,8 °C 4,8 km/h (1 Bft)
20.10.2016 01:27 4,8 °C 4,8 °C 87 % 1015,5 hPa 0,0 mm 2,5 km/h (1 Bft) S-SW 213 ° 0 min 0,000 mm 0,0 UV-I 0 W/m² 2,8 °C 3,2 km/h (1 Bft)
20.10.2016 01:28 4,8 °C 4,8 °C 87 % 1015,5 hPa 0,0 mm 2,9 km/h (1 Bft) S-SW 196 ° 0 min 0,000 mm 0,0 UV-I 0 W/m² 2,8 °C 6,4 km/h (2 Bft)
20.10.2016 01:29 4,9 °C 4,9 °C 86 % 1015,5 hPa 0,0 mm 3,0 km/h (1 Bft) S 170 ° 0 min 0,000 mm 0,0 UV-I 0 W/m² 2,8 °C 6,4 km/h (2 Bft)
20.10.2016 01:30 4,9 °C 4,9 °C 87 % 1015,5 hPa 0,0 mm 1,5 km/h (1 Bft) S 170 ° 0 min 0,000 mm 0,0 UV-I 0 W/m² 2,9 °C 3,2 km/h (1 Bft)
20.10.2016 01:31 4,9 °C 4,9 °C 86 % 1015,6 hPa 0,0 mm 2,7 km/h (1 Bft) S 175 ° 0 min 0,000 mm 0,0 UV-I 0 W/m² 2,8 °C 6,4 km/h (2 Bft)
20.10.2016 01:32 4,9 °C 4,9 °C 85 % 1015,6 hPa 0,0 mm 2,2 km/h (1 Bft) S-SW 192 ° 0 min 0,000 mm 0,0 UV-I 0 W/m² 2,6 °C 4,8 km/h (1 Bft)
20.10.2016 01:33 4,9 °C 4,9 °C 86 % 1015,6 hPa 0,0 mm 2,2 km/h (1 Bft) S-SW 192 ° 0 min 0,000 mm 0,0 UV-I 0 W/m² 2,8 °C 3,2 km/h (1 Bft)
20.10.2016 01:34 4,9 °C 4,9 °C 86 % 1015,7 hPa 0,0 mm 1,0 km/h (0 Bft) S-SW 192 ° 0 min 0,000 mm 0,0 UV-I 0 W/m² 2,8 °C 1,6 km/h (1 Bft)
20.10.2016 01:35 4,8 °C 4,9 °C 86 % 1015,6 hPa 0,0 mm 1,3 km/h (1 Bft) S 189 ° 0 min 0,000 mm 0,0 UV-I 0 W/m² 2,7 °C 3,2 km/h (1 Bft)
20.10.2016 01:36 4,8 °C 4,8 °C 85 % 1015,6 hPa 0,0 mm 2,3 km/h (1 Bft) S 190 ° 0 min 0,000 mm 0,0 UV-I 0 W/m² 2,5 °C 3,2 km/h (1 Bft)
20.10.2016 01:37 4,8 °C 4,9 °C 85 % 1015,7 hPa 0,0 mm 3,9 km/h (1 Bft) S 184 ° 0 min 0,000 mm 0,0 UV-I 0 W/m² 2,5 °C 4,8 km/h (1 Bft)
20.10.2016 01:38 4,9 °C 4,9 °C 86 % 1015,7 hPa 0,0 mm 1,9 km/h (1 Bft) S 184 ° 0 min 0,000 mm 0,0 UV-I 0 W/m² 2,8 °C 3,2 km/h (1 Bft)
20.10.2016 01:39 4,9 °C 4,9 °C 86 % 1015,7 hPa 0,0 mm 2,3 km/h (1 Bft) S 184 ° 0 min 0,000 mm 0,0 UV-I 0 W/m² 2,8 °C 4,8 km/h (1 Bft)
20.10.2016 01:40 4,9 °C 4,9 °C 86 % 1015,7 hPa 0,0 mm 1,5 km/h (1 Bft) S 184 ° 0 min 0,000 mm 0,0 UV-I 0 W/m² 2,8 °C 3,2 km/h (1 Bft)
20.10.2016 01:41 4,8 °C 4,9 °C 87 % 1015,7 hPa 0,0 mm 1,7 km/h (1 Bft) S 184 ° 0 min 0,000 mm 0,0 UV-I 0 W/m² 2,8 °C 3,2 km/h (1 Bft)
20.10.2016 01:42 4,8 °C 4,8 °C 87 % 1015,7 hPa 0,0 mm 1,9 km/h (1 Bft) S 184 ° 0 min 0,000 mm 0,0 UV-I 0 W/m² 2,8 °C 3,2 km/h (1 Bft)
20.10.2016 01:43 4,8 °C 4,8 °C 87 % 1015,7 hPa 0,0 mm 1,5 km/h (1 Bft) S 184 ° 0 min 0,000 mm 0,0 UV-I 0 W/m² 2,8 °C 1,6 km/h (1 Bft)
20.10.2016 01:44 4,8 °C 4,8 °C 87 % 1015,7 hPa 0,0 mm 1,2 km/h (1 Bft) S 184 ° 0 min 0,000 mm 0,0 UV-I 0 W/m² 2,8 °C 1,6 km/h (1 Bft)
20.10.2016 01:45 4,7 °C 4,8 °C 87 % 1015,7 hPa 0,0 mm 1,3 km/h (1 Bft) S 184 ° 0 min 0,000 mm 0,0 UV-I 0 W/m² 2,7 °C 3,2 km/h (1 Bft)
20.10.2016 01:46 4,7 °C 4,7 °C 87 % 1015,7 hPa 0,0 mm 0,8 km/h (0 Bft) S 184 ° 0 min 0,000 mm 0,0 UV-I 0 W/m² 2,7 °C 1,6 km/h (1 Bft)
20.10.2016 01:47 4,7 °C 4,7 °C 87 % 1015,7 hPa 0,0 mm 1,1 km/h (1 Bft) S 184 ° 0 min 0,000 mm 0,0 UV-I 0 W/m² 2,7 °C 3,2 km/h (1 Bft)
20.10.2016 01:48 4,7 °C 4,7 °C 87 % 1015,7 hPa 0,0 mm 1,9 km/h (1 Bft) S 184 ° 0 min 0,000 mm 0,0 UV-I 0 W/m² 2,7 °C 3,2 km/h (1 Bft)
20.10.2016 01:49 4,7 °C 4,7 °C 87 % 1015,7 hPa 0,0 mm 1,5 km/h (1 Bft) S 184 ° 0 min 0,000 mm 0,0 UV-I 0 W/m² 2,7 °C 3,2 km/h (1 Bft)
20.10.2016 01:50 4,7 °C 4,7 °C 87 % 1015,7 hPa 0,0 mm 0,9 km/h (0 Bft) S 184 ° 0 min 0,000 mm 0,0 UV-I 0 W/m² 2,7 °C 3,2 km/h (1 Bft)
20.10.2016 01:51 4,6 °C 4,7 °C 87 % 1015,6 hPa 0,0 mm 1,9 km/h (1 Bft) S 184 ° 0 min 0,000 mm 0,0 UV-I 0 W/m² 2,6 °C 3,2 km/h (1 Bft)
20.10.2016 01:52 4,6 °C 4,7 °C 87 % 1015,6 hPa 0,0 mm 2,0 km/h (1 Bft) S 184 ° 0 min 0,000 mm 0,0 UV-I 0 W/m² 2,6 °C 3,2 km/h (1 Bft)
20.10.2016 01:53 4,6 °C 4,7 °C 87 % 1015,7 hPa 0,0 mm 1,2 km/h (1 Bft) S 184 ° 0 min 0,000 mm 0,0 UV-I 0 W/m² 2,6 °C 3,2 km/h (1 Bft)
20.10.2016 01:54 4,6 °C 4,7 °C 88 % 1015,7 hPa 0,0 mm 0,7 km/h (0 Bft) S 184 ° 0 min 0,000 mm 0,0 UV-I 0 W/m² 2,8 °C 1,6 km/h (1 Bft)
20.10.2016 01:55 4,6 °C 4,6 °C 88 % 1015,7 hPa 0,0 mm 0,2 km/h (0 Bft) S 186 ° 0 min 0,000 mm 0,0 UV-I 0 W/m² 2,8 °C 1,6 km/h (1 Bft)
20.10.2016 01:56 4,6 °C 4,6 °C 87 % 1015,7 hPa 0,0 mm 0,8 km/h (0 Bft) S-SW 210 ° 0 min 0,000 mm 0,0 UV-I 0 W/m² 2,6 °C 3,2 km/h (1 Bft)
20.10.2016 01:57 4,6 °C 4,6 °C 86 % 1015,7 hPa 0,0 mm 0,0 km/h (0 Bft) S-SW 210 ° 0 min 0,000 mm 0,0 UV-I 0 W/m² 2,5 °C 0,0 km/h (0 Bft)
20.10.2016 01:58 4,6 °C 4,6 °C 87 % 1015,7 hPa 0,0 mm 0,0 km/h (0 Bft) S-SW 210 ° 0 min 0,000 mm 0,0 UV-I 0 W/m² 2,6 °C 0,0 km/h (0 Bft)
20.10.2016 01:59 4,6 °C 4,6 °C 87 % 1015,7 hPa 0,0 mm 0,1 km/h (0 Bft) S-SW 210 ° 0 min 0,000 mm 0,0 UV-I 0 W/m² 2,6 °C 1,6 km/h (1 Bft)
20.10.2016 02:00 4,6 °C 4,6 °C 87 % 1015,7 hPa 0,0 mm 0,0 km/h (0 Bft) S-SW 210 ° 0 min 0,000 mm 0,0 UV-I 0 W/m² 2,6 °C 0,0 km/h (0 Bft)
20.10.2016 02:01 4,5 °C 4,6 °C 88 % 1015,7 hPa 0,0 mm 0,0 km/h (0 Bft) S-SW 210 ° 0 min 0,000 mm 0,0 UV-I 0 W/m² 2,7 °C 0,0 km/h (0 Bft)
20.10.2016 02:02 4,4 °C 4,5 °C 88 % 1015,7 hPa 0,0 mm 0,0 km/h (0 Bft) S-SW 210 ° 0 min 0,000 mm 0,0 UV-I 0 W/m² 2,6 °C 0,0 km/h (0 Bft)
20.10.2016 02:03 4,4 °C 4,4 °C 88 % 1015,7 hPa 0,0 mm 0,0 km/h (0 Bft) S-SW 210 ° 0 min 0,000 mm 0,0 UV-I 0 W/m² 2,6 °C 0,0 km/h (0 Bft)
20.10.2016 02:04 4,4 °C 4,4 °C 88 % 1015,7 hPa 0,0 mm 0,0 km/h (0 Bft) S-SW 210 ° 0 min 0,000 mm 0,0 UV-I 0 W/m² 2,6 °C 0,0 km/h (0 Bft)
20.10.2016 02:05 4,3 °C 4,4 °C 87 % 1015,7 hPa 0,0 mm 0,0 km/h (0 Bft) S-SW 210 ° 0 min 0,000 mm 0,0 UV-I 0 W/m² 2,3 °C 0,0 km/h (0 Bft)
20.10.2016 02:06 4,3 °C 4,4 °C 88 % 1015,6 hPa 0,0 mm 0,3 km/h (0 Bft) S-SW 210 ° 0 min 0,000 mm 0,0 UV-I 0 W/m² 2,5 °C 1,6 km/h (1 Bft)
20.10.2016 02:07 4,3 °C 4,3 °C 88 % 1015,6 hPa 0,0 mm 0,9 km/h (0 Bft) S-SW 210 ° 0 min 0,000 mm 0,0 UV-I 0 W/m² 2,5 °C 1,6 km/h (1 Bft)
20.10.2016 02:08 4,3 °C 4,3 °C 88 % 1015,6 hPa 0,0 mm 0,0 km/h (0 Bft) S-SW 210 ° 0 min 0,000 mm 0,0 UV-I 0 W/m² 2,5 °C 0,0 km/h (0 Bft)
20.10.2016 02:09 4,2 °C 4,3 °C 88 % 1015,6 hPa 0,0 mm 0,2 km/h (0 Bft) S-SW 210 ° 0 min 0,000 mm 0,0 UV-I 0 W/m² 2,4 °C 1,6 km/h (1 Bft)
20.10.2016 02:10 4,2 °C 4,3 °C 89 % 1015,7 hPa 0,0 mm 0,1 km/h (0 Bft) S-SW 210 ° 0 min 0,000 mm 0,0 UV-I 0 W/m² 2,6 °C 1,6 km/h (1 Bft)
20.10.2016 02:11 4,2 °C 4,2 °C 89 % 1015,7 hPa 0,0 mm 0,1 km/h (0 Bft) S-SW 210 ° 0 min 0,000 mm 0,0 UV-I 0 W/m² 2,6 °C 1,6 km/h (1 Bft)
20.10.2016 02:12 4,2 °C 4,2 °C 89 % 1015,7 hPa 0,0 mm 1,3 km/h (1 Bft) S-SW 210 ° 0 min 0,000 mm 0,0 UV-I 0 W/m² 2,6 °C 3,2 km/h (1 Bft)
20.10.2016 02:13 4,2 °C 4,2 °C 89 % 1015,7 hPa 0,0 mm 1,5 km/h (1 Bft) S-SW 210 ° 0 min 0,000 mm 0,0 UV-I 0 W/m² 2,6 °C 3,2 km/h (1 Bft)
20.10.2016 02:14 4,1 °C 4,2 °C 89 % 1015,7 hPa 0,0 mm 0,0 km/h (0 Bft) S-SW 210 ° 0 min 0,000 mm 0,0 UV-I 0 W/m² 2,5 °C 0,0 km/h (0 Bft)
20.10.2016 02:15 4,1 °C 4,2 °C 89 % 1015,7 hPa 0,0 mm 0,2 km/h (0 Bft) S-SW 210 ° 0 min 0,000 mm 0,0 UV-I 0 W/m² 2,5 °C 1,6 km/h (1 Bft)
20.10.2016 02:16 4,2 °C 4,2 °C 89 % 1015,7 hPa 0,0 mm 0,3 km/h (0 Bft) S-SW 210 ° 0 min 0,000 mm 0,0 UV-I 0 W/m² 2,6 °C 1,6 km/h (1 Bft)
20.10.2016 02:17 4,2 °C 4,2 °C 89 % 1015,6 hPa 0,0 mm 0,4 km/h (0 Bft) S-SW 210 ° 0 min 0,000 mm 0,0 UV-I 0 W/m² 2,6 °C 1,6 km/h (1 Bft)
20.10.2016 02:18 4,2 °C 4,2 °C 89 % 1015,6 hPa 0,0 mm 0,7 km/h (0 Bft) S-SW 210 ° 0 min 0,000 mm 0,0 UV-I 0 W/m² 2,6 °C 1,6 km/h (1 Bft)
20.10.2016 02:19 4,3 °C 4,3 °C 89 % 1015,6 hPa 0,0 mm 0,5 km/h (0 Bft) S-SW 210 ° 0 min 0,000 mm 0,0 UV-I 0 W/m² 2,7 °C 1,6 km/h (1 Bft)
20.10.2016 02:20 4,3 °C 4,3 °C 88 % 1015,6 hPa 0,0 mm 0,8 km/h (0 Bft) S-SW 210 ° 0 min 0,000 mm 0,0 UV-I 0 W/m² 2,5 °C 1,6 km/h (1 Bft)
20.10.2016 02:21 4,4 °C 4,4 °C 88 % 1015,7 hPa 0,0 mm 0,9 km/h (0 Bft) S-SW 210 ° 0 min 0,000 mm 0,0 UV-I 0 W/m² 2,6 °C 1,6 km/h (1 Bft)
20.10.2016 02:22 4,4 °C 4,4 °C 88 % 1015,7 hPa 0,0 mm 2,2 km/h (1 Bft) S-SW 210 ° 0 min 0,000 mm 0,0 UV-I 0 W/m² 2,6 °C 4,8 km/h (1 Bft)
20.10.2016 02:23 4,5 °C 4,5 °C 87 % 1015,7 hPa 0,0 mm 1,3 km/h (1 Bft) S-SW 210 ° 0 min 0,000 mm 0,0 UV-I 0 W/m² 2,5 °C 3,2 km/h (1 Bft)
20.10.2016 02:24 4,6 °C 4,6 °C 86 % 1015,7 hPa 0,0 mm 3,7 km/h (1 Bft) S-SO 167 ° 0 min 0,000 mm 0,0 UV-I 0 W/m² 2,5 °C 8,0 km/h (2 Bft)
20.10.2016 02:25 4,7 °C 4,7 °C 86 % 1015,7 hPa 0,0 mm 3,2 km/h (1 Bft) S 169 ° 0 min 0,000 mm 0,0 UV-I 0 W/m² 2,6 °C 6,4 km/h (2 Bft)
20.10.2016 02:26 4,8 °C 4,8 °C 85 % 1015,7 hPa 0,0 mm 0,6 km/h (0 Bft) S 169 ° 0 min 0,000 mm 0,0 UV-I 0 W/m² 2,5 °C 1,6 km/h (1 Bft)
20.10.2016 02:27 4,8 °C 4,8 °C 85 % 1015,7 hPa 0,0 mm 1,1 km/h (1 Bft) S 169 ° 0 min 0,000 mm 0,0 UV-I 0 W/m² 2,5 °C 1,6 km/h (1 Bft)
20.10.2016 02:28 4,9 °C 4,9 °C 85 % 1015,7 hPa 0,0 mm 1,3 km/h (1 Bft) S 169 ° 0 min 0,000 mm 0,0 UV-I 0 W/m² 2,6 °C 3,2 km/h (1 Bft)
20.10.2016 02:29 5,0 °C 5,0 °C 84 % 1015,6 hPa 0,0 mm 3,7 km/h (1 Bft) W-SW 241 ° 0 min 0,000 mm 0,0 UV-I 0 W/m² 2,5 °C 6,4 km/h (2 Bft)
20.10.2016 02:30 5,1 °C 5,1 °C 84 % 1015,6 hPa 0,0 mm 2,7 km/h (1 Bft) W-SW 244 ° 0 min 0,000 mm 0,0 UV-I 0 W/m² 2,6 °C 6,4 km/h (2 Bft)
20.10.2016 02:31 5,1 °C 5,1 °C 83 % 1015,7 hPa 0,0 mm 3,4 km/h (1 Bft) S-SW 199 ° 0 min 0,000 mm 0,0 UV-I 0 W/m² 2,5 °C 8,0 km/h (2 Bft)
20.10.2016 02:32 5,1 °C 5,1 °C 83 % 1015,7 hPa 0,0 mm 5,2 km/h (1 Bft) W-SW 249 ° 0 min 0,000 mm 0,0 UV-I 0 W/m² 2,5 °C 14,5 km/h (3 Bft)
20.10.2016 02:33 5,2 °C 5,2 °C 83 % 1015,7 hPa 0,0 mm 6,7 km/h (2 Bft) S-SW 199 ° 0 min 0,000 mm 0,0 UV-I 0 W/m² 2,6 °C 14,5 km/h (3 Bft)
20.10.2016 02:34 5,2 °C 5,2 °C 83 % 1015,7 hPa 0,0 mm 2,3 km/h (1 Bft) S 188 ° 0 min 0,000 mm 0,0 UV-I 0 W/m² 2,6 °C 4,8 km/h (1 Bft)
20.10.2016 02:35 5,2 °C 5,3 °C 82 % 1015,7 hPa 0,0 mm 3,4 km/h (1 Bft) SW 215 ° 0 min 0,000 mm 0,0 UV-I 0 W/m² 2,4 °C 6,4 km/h (2 Bft)
20.10.2016 02:36 5,3 °C 5,3 °C 83 % 1015,7 hPa 0,0 mm 2,9 km/h (1 Bft) S 190 ° 0 min 0,000 mm 0,0 UV-I 0 W/m² 2,7 °C 6,4 km/h (2 Bft)
20.10.2016 02:37 5,3 °C 5,3 °C 83 % 1015,6 hPa 0,0 mm 4,9 km/h (1 Bft) W-SW 249 ° 0 min 0,000 mm 0,0 UV-I 0 W/m² 2,7 °C 6,4 km/h (2 Bft)
20.10.2016 02:38 5,3 °C 5,3 °C 82 % 1015,6 hPa 0,0 mm 2,4 km/h (1 Bft) W-SW 249 ° 0 min 0,000 mm 0,0 UV-I 0 W/m² 2,5 °C 4,8 km/h (1 Bft)
20.10.2016 02:39 5,3 °C 5,3 °C 82 % 1015,6 hPa 0,0 mm 1,1 km/h (1 Bft) W-SW 249 ° 0 min 0,000 mm 0,0 UV-I 0 W/m² 2,5 °C 3,2 km/h (1 Bft)
20.10.2016 02:40 5,2 °C 5,3 °C 83 % 1015,6 hPa 0,0 mm 3,4 km/h (1 Bft) S 181 ° 0 min 0,000 mm 0,0 UV-I 0 W/m² 2,6 °C 4,8 km/h (1 Bft)
20.10.2016 02:41 5,1 °C 5,2 °C 83 % 1015,6 hPa 0,0 mm 3,5 km/h (1 Bft) S-SW 196 ° 0 min 0,000 mm 0,0 UV-I 0 W/m² 2,5 °C 4,8 km/h (1 Bft)
20.10.2016 02:42 5,1 °C 5,1 °C 83 % 1015,6 hPa 0,0 mm 3,1 km/h (1 Bft) S 183 ° 0 min 0,000 mm 0,0 UV-I 0 W/m² 2,5 °C 4,8 km/h (1 Bft)
20.10.2016 02:43 5,1 °C 5,1 °C 83 % 1015,6 hPa 0,0 mm 1,9 km/h (1 Bft) S 183 ° 0 min 0,000 mm 0,0 UV-I 0 W/m² 2,5 °C 3,2 km/h (1 Bft)
20.10.2016 02:44 5,0 °C 5,1 °C 85 % 1015,6 hPa 0,0 mm 1,9 km/h (1 Bft) S 184 ° 0 min 0,000 mm 0,0 UV-I 0 W/m² 2,7 °C 3,2 km/h (1 Bft)
20.10.2016 02:45 4,9 °C 5,0 °C 84 % 1015,6 hPa 0,0 mm 2,2 km/h (1 Bft) S 184 ° 0 min 0,000 mm 0,0 UV-I 0 W/m² 2,4 °C 3,2 km/h (1 Bft)
20.10.2016 02:46 4,9 °C 4,9 °C 83 % 1015,6 hPa 0,0 mm 1,1 km/h (1 Bft) S 184 ° 0 min 0,000 mm 0,0 UV-I 0 W/m² 2,3 °C 3,2 km/h (1 Bft)
20.10.2016 02:47 4,9 °C 4,9 °C 83 % 1015,6 hPa 0,0 mm 3,0 km/h (1 Bft) SW 215 ° 0 min 0,000 mm 0,0 UV-I 0 W/m² 2,3 °C 4,8 km/h (1 Bft)
20.10.2016 02:48 4,9 °C 5,0 °C 83 % 1015,6 hPa 0,0 mm 2,5 km/h (1 Bft) SW 214 ° 0 min 0,000 mm 0,0 UV-I 0 W/m² 2,3 °C 4,8 km/h (1 Bft)
20.10.2016 02:49 4,9 °C 5,0 °C 83 % 1015,6 hPa 0,0 mm 2,2 km/h (1 Bft) SW 214 ° 0 min 0,000 mm 0,0 UV-I 0 W/m² 2,3 °C 3,2 km/h (1 Bft)
20.10.2016 02:50 5,0 °C 5,0 °C 83 % 1015,6 hPa 0,0 mm 1,7 km/h (1 Bft) SW 216 ° 0 min 0,000 mm 0,0 UV-I 0 W/m² 2,4 °C 3,2 km/h (1 Bft)
20.10.2016 02:51 5,0 °C 5,0 °C 83 % 1015,6 hPa 0,0 mm 3,6 km/h (1 Bft) S 173 ° 0 min 0,000 mm 0,0 UV-I 0 W/m² 2,4 °C 8,0 km/h (2 Bft)
20.10.2016 02:52 5,0 °C 5,0 °C 83 % 1015,5 hPa 0,0 mm 4,6 km/h (1 Bft) S-SW 206 ° 0 min 0,000 mm 0,0 UV-I 0 W/m² 2,4 °C 8,0 km/h (2 Bft)
20.10.2016 02:53 5,0 °C 5,0 °C 83 % 1015,5 hPa 0,0 mm 3,6 km/h (1 Bft) S-SW 213 ° 0 min 0,000 mm 0,0 UV-I 0 W/m² 2,4 °C 6,4 km/h (2 Bft)
20.10.2016 02:54 5,1 °C 5,1 °C 83 % 1015,5 hPa 0,0 mm 4,6 km/h (1 Bft) S-SW 205 ° 0 min 0,000 mm 0,0 UV-I 0 W/m² 2,5 °C 6,4 km/h (2 Bft)
20.10.2016 02:55 5,1 °C 5,1 °C 83 % 1015,5 hPa 0,0 mm 3,4 km/h (1 Bft) S 191 ° 0 min 0,000 mm 0,0 UV-I 0 W/m² 2,5 °C 6,4 km/h (2 Bft)
20.10.2016 02:56 5,1 °C 5,1 °C 83 % 1015,5 hPa 0,0 mm 1,8 km/h (1 Bft) S 191 ° 0 min 0,000 mm 0,0 UV-I 0 W/m² 2,5 °C 4,8 km/h (1 Bft)
20.10.2016 02:57 5,1 °C 5,1 °C 83 % 1015,4 hPa 0,0 mm 0,8 km/h (0 Bft) S 191 ° 0 min 0,000 mm 0,0 UV-I 0 W/m² 2,5 °C 1,6 km/h (1 Bft)
20.10.2016 02:58 5,1 °C 5,1 °C 83 % 1015,4 hPa 0,0 mm 1,7 km/h (1 Bft) S 191 ° 0 min 0,000 mm 0,0 UV-I 0 W/m² 2,5 °C 3,2 km/h (1 Bft)
20.10.2016 02:59 5,1 °C 5,1 °C 83 % 1015,4 hPa 0,0 mm 5,2 km/h (1 Bft) S-SW 195 ° 0 min 0,000 mm 0,0 UV-I 0 W/m² 2,5 °C 9,7 km/h (2 Bft)
20.10.2016 03:00 5,1 °C 5,1 °C 83 % 1015,4 hPa 0,0 mm 2,9 km/h (1 Bft) S-SW 194 ° 0 min 0,000 mm 0,0 UV-I 0 W/m² 2,5 °C 4,8 km/h (1 Bft)
20.10.2016 03:01 5,1 °C 5,1 °C 83 % 1015,4 hPa 0,0 mm 3,4 km/h (1 Bft) S-SW 199 ° 0 min 0,000 mm 0,0 UV-I 0 W/m² 2,5 °C 4,8 km/h (1 Bft)
20.10.2016 03:02 5,1 °C 5,1 °C 83 % 1015,4 hPa 0,0 mm 3,0 km/h (1 Bft) S-SW 199 ° 0 min 0,000 mm 0,0 UV-I 0 W/m² 2,5 °C 4,8 km/h (1 Bft)
20.10.2016 03:03 5,0 °C 5,1 °C 83 % 1015,4 hPa 0,0 mm 1,8 km/h (1 Bft) W-SW 239 ° 0 min 0,000 mm 0,0 UV-I 0 W/m² 2,4 °C 4,8 km/h (1 Bft)
20.10.2016 03:04 5,0 °C 5,0 °C 84 % 1015,4 hPa 0,0 mm 2,8 km/h (1 Bft) SW 236 ° 0 min 0,000 mm 0,0 UV-I 0 W/m² 2,5 °C 6,4 km/h (2 Bft)
20.10.2016 03:05 4,9 °C 5,0 °C 83 % 1015,4 hPa 0,0 mm 0,8 km/h (0 Bft) SW 236 ° 0 min 0,000 mm 0,0 UV-I 0 W/m² 2,3 °C 3,2 km/h (1 Bft)
20.10.2016 03:06 5,0 °C 5,0 °C 83 % 1015,4 hPa 0,0 mm 1,3 km/h (1 Bft) SW 236 ° 0 min 0,000 mm 0,0 UV-I 0 W/m² 2,4 °C 3,2 km/h (1 Bft)
20.10.2016 03:07 5,0 °C 5,0 °C 83 % 1015,4 hPa 0,0 mm 2,5 km/h (1 Bft) SW 232 ° 0 min 0,000 mm 0,0 UV-I 0 W/m² 2,4 °C 3,2 km/h (1 Bft)
20.10.2016 03:08 5,1 °C 5,1 °C 82 % 1015,4 hPa 0,0 mm 1,3 km/h (1 Bft) SW 232 ° 0 min 0,000 mm 0,0 UV-I 0 W/m² 2,3 °C 1,6 km/h (1 Bft)
20.10.2016 03:09 5,0 °C 5,1 °C 83 % 1015,4 hPa 0,0 mm 1,9 km/h (1 Bft) SW 232 ° 0 min 0,000 mm 0,0 UV-I 0 W/m² 2,4 °C 3,2 km/h (1 Bft)
20.10.2016 03:10 5,0 °C 5,1 °C 83 % 1015,5 hPa 0,0 mm 2,0 km/h (1 Bft) W 259 ° 0 min 0,000 mm 0,0 UV-I 0 W/m² 2,4 °C 4,8 km/h (1 Bft)
20.10.2016 03:11 4,9 °C 5,0 °C 83 % 1015,5 hPa 0,0 mm 3,0 km/h (1 Bft) W-SW 239 ° 0 min 0,000 mm 0,0 UV-I 0 W/m² 2,3 °C 9,7 km/h (2 Bft)
20.10.2016 03:12 4,9 °C 4,9 °C 83 % 1015,4 hPa 0,0 mm 3,9 km/h (1 Bft) W-SW 246 ° 0 min 0,000 mm 0,0 UV-I 0 W/m² 2,3 °C 9,7 km/h (2 Bft)
20.10.2016 03:13 4,8 °C 4,9 °C 83 % 1015,4 hPa 0,0 mm 4,0 km/h (1 Bft) W-SW 244 ° 0 min 0,000 mm 0,0 UV-I 0 W/m² 2,2 °C 8,0 km/h (2 Bft)
20.10.2016 03:14 4,9 °C 4,9 °C 83 % 1015,5 hPa 0,0 mm 1,9 km/h (1 Bft) W-SW 244 ° 0 min 0,000 mm 0,0 UV-I 0 W/m² 2,3 °C 3,2 km/h (1 Bft)
20.10.2016 03:15 4,9 °C 4,9 °C 83 % 1015,4 hPa 0,0 mm 1,5 km/h (1 Bft) SW 217 ° 0 min 0,000 mm 0,0 UV-I 0 W/m² 2,3 °C 3,2 km/h (1 Bft)
20.10.2016 03:16 4,9 °C 4,9 °C 83 % 1015,5 hPa 0,0 mm 1,4 km/h (1 Bft) SW 217 ° 0 min 0,000 mm 0,0 UV-I 0 W/m² 2,3 °C 3,2 km/h (1 Bft)
20.10.2016 03:17 4,9 °C 4,9 °C 83 % 1015,5 hPa 0,0 mm 0,6 km/h (0 Bft) SW 217 ° 0 min 0,000 mm 0,0 UV-I 0 W/m² 2,3 °C 1,6 km/h (1 Bft)
20.10.2016 03:18 4,9 °C 4,9 °C 83 % 1015,5 hPa 0,0 mm 1,0 km/h (0 Bft) SW 217 ° 0 min 0,000 mm 0,0 UV-I 0 W/m² 2,3 °C 1,6 km/h (1 Bft)
20.10.2016 03:19 5,0 °C 5,0 °C 83 % 1015,5 hPa 0,0 mm 2,7 km/h (1 Bft) W 272 ° 0 min 0,000 mm 0,0 UV-I 0 W/m² 2,4 °C 8,0 km/h (2 Bft)
20.10.2016 03:20 5,1 °C 5,1 °C 83 % 1015,5 hPa 0,0 mm 2,9 km/h (1 Bft) SW 230 ° 0 min 0,000 mm 0,0 UV-I 0 W/m² 2,5 °C 4,8 km/h (1 Bft)
20.10.2016 03:21 5,1 °C 5,1 °C 83 % 1015,5 hPa 0,0 mm 1,8 km/h (1 Bft) SW 223 ° 0 min 0,000 mm 0,0 UV-I 0 W/m² 2,5 °C 3,2 km/h (1 Bft)
20.10.2016 03:22 5,1 °C 5,1 °C 83 % 1015,5 hPa 0,0 mm 1,9 km/h (1 Bft) SW 223 ° 0 min 0,000 mm 0,0 UV-I 0 W/m² 2,5 °C 3,2 km/h (1 Bft)
20.10.2016 03:23 5,1 °C 5,1 °C 83 % 1015,4 hPa 0,0 mm 1,1 km/h (1 Bft) SW 223 ° 0 min 0,000 mm 0,0 UV-I 0 W/m² 2,5 °C 3,2 km/h (1 Bft)
20.10.2016 03:24 5,1 °C 5,1 °C 83 % 1015,4 hPa 0,0 mm 1,7 km/h (1 Bft) SW 223 ° 0 min 0,000 mm 0,0 UV-I 0 W/m² 2,5 °C 3,2 km/h (1 Bft)
20.10.2016 03:25 5,1 °C 5,1 °C 82 % 1015,5 hPa 0,0 mm 1,4 km/h (1 Bft) SW 223 ° 0 min 0,000 mm 0,0 UV-I 0 W/m² 2,3 °C 3,2 km/h (1 Bft)
20.10.2016 03:26 5,2 °C 5,2 °C 82 % 1015,4 hPa 0,0 mm 1,0 km/h (0 Bft) SW 223 ° 0 min 0,000 mm 0,0 UV-I 0 W/m² 2,4 °C 1,6 km/h (1 Bft)
20.10.2016 03:27 5,2 °C 5,2 °C 83 % 1015,5 hPa 0,0 mm 1,8 km/h (1 Bft) SW 233 ° 0 min 0,000 mm 0,0 UV-I 0 W/m² 2,6 °C 4,8 km/h (1 Bft)
20.10.2016 03:28 5,2 °C 5,2 °C 82 % 1015,5 hPa 0,0 mm 1,9 km/h (1 Bft) SW 233 ° 0 min 0,000 mm 0,0 UV-I 0 W/m² 2,4 °C 3,2 km/h (1 Bft)
20.10.2016 03:29 5,2 °C 5,2 °C 82 % 1015,4 hPa 0,0 mm 0,4 km/h (0 Bft) SW 233 ° 0 min 0,000 mm 0,0 UV-I 0 W/m² 2,4 °C 1,6 km/h (1 Bft)
20.10.2016 03:30 5,2 °C 5,2 °C 83 % 1015,5 hPa 0,0 mm 1,9 km/h (1 Bft) SW 220 ° 0 min 0,000 mm 0,0 UV-I 0 W/m² 2,6 °C 3,2 km/h (1 Bft)
20.10.2016 03:31 5,2 °C 5,2 °C 82 % 1015,4 hPa 0,0 mm 1,7 km/h (1 Bft) SW 220 ° 0 min 0,000 mm 0,0 UV-I 0 W/m² 2,4 °C 3,2 km/h (1 Bft)
20.10.2016 03:32 5,2 °C 5,2 °C 84 % 1015,5 hPa 0,0 mm 2,6 km/h (1 Bft) S-SW 196 ° 0 min 0,000 mm 0,0 UV-I 0 W/m² 2,7 °C 4,8 km/h (1 Bft)
20.10.2016 03:33 5,2 °C 5,2 °C 83 % 1015,5 hPa 0,0 mm 3,9 km/h (1 Bft) W 272 ° 0 min 0,000 mm 0,0 UV-I 0 W/m² 2,6 °C 6,4 km/h (2 Bft)
20.10.2016 03:34 5,2 °C 5,2 °C 82 % 1015,4 hPa 0,0 mm 2,4 km/h (1 Bft) S-SW 207 ° 0 min 0,000 mm 0,0 UV-I 0 W/m² 2,4 °C 4,8 km/h (1 Bft)
20.10.2016 03:35 5,2 °C 5,2 °C 82 % 1015,4 hPa 0,0 mm 2,1 km/h (1 Bft) S-SW 207 ° 0 min 0,000 mm 0,0 UV-I 0 W/m² 2,4 °C 3,2 km/h (1 Bft)
20.10.2016 03:36 5,2 °C 5,2 °C 83 % 1015,4 hPa 0,0 mm 1,9 km/h (1 Bft) S-SW 207 ° 0 min 0,000 mm 0,0 UV-I 0 W/m² 2,6 °C 3,2 km/h (1 Bft)
20.10.2016 03:37 5,2 °C 5,2 °C 82 % 1015,4 hPa 0,0 mm 0,9 km/h (0 Bft) S-SW 207 ° 0 min 0,000 mm 0,0 UV-I 0 W/m² 2,4 °C 1,6 km/h (1 Bft)
20.10.2016 03:38 5,2 °C 5,2 °C 83 % 1015,4 hPa 0,0 mm 2,3 km/h (1 Bft) SW 232 ° 0 min 0,000 mm 0,0 UV-I 0 W/m² 2,6 °C 4,8 km/h (1 Bft)
20.10.2016 03:39 5,1 °C 5,2 °C 83 % 1015,4 hPa 0,0 mm 3,7 km/h (1 Bft) W-SW 252 ° 0 min 0,000 mm 0,0 UV-I 0 W/m² 2,5 °C 4,8 km/h (1 Bft)
20.10.2016 03:40 5,1 °C 5,2 °C 83 % 1015,4 hPa 0,0 mm 0,9 km/h (0 Bft) W-SW 252 ° 0 min 0,000 mm 0,0 UV-I 0 W/m² 2,5 °C 1,6 km/h (1 Bft)
20.10.2016 03:41 5,1 °C 5,1 °C 83 % 1015,4 hPa 0,0 mm 0,0 km/h (0 Bft) W-SW 252 ° 0 min 0,000 mm 0,0 UV-I 0 W/m² 2,5 °C 0,0 km/h (0 Bft)
20.10.2016 03:42 5,1 °C 5,1 °C 84 % 1015,4 hPa 0,0 mm 0,1 km/h (0 Bft) W-SW 252 ° 0 min 0,000 mm 0,0 UV-I 0 W/m² 2,6 °C 1,6 km/h (1 Bft)
20.10.2016 03:43 4,9 °C 5,1 °C 83 % 1015,4 hPa 0,0 mm 0,2 km/h (0 Bft) W-SW 252 ° 0 min 0,000 mm 0,0 UV-I 0 W/m² 2,3 °C 1,6 km/h (1 Bft)
20.10.2016 03:44 4,9 °C 5,0 °C 83 % 1015,4 hPa 0,0 mm 0,3 km/h (0 Bft) W-SW 252 ° 0 min 0,000 mm 0,0 UV-I 0 W/m² 2,3 °C 1,6 km/h (1 Bft)
20.10.2016 03:45 4,9 °C 4,9 °C 82 % 1015,4 hPa 0,0 mm 0,9 km/h (0 Bft) W-SW 252 ° 0 min 0,000 mm 0,0 UV-I 0 W/m² 2,1 °C 3,2 km/h (1 Bft)
20.10.2016 03:46 4,9 °C 4,9 °C 83 % 1015,4 hPa 0,0 mm 0,7 km/h (0 Bft) W-SW 252 ° 0 min 0,000 mm 0,0 UV-I 0 W/m² 2,3 °C 1,6 km/h (1 Bft)
20.10.2016 03:47 4,9 °C 4,9 °C 82 % 1015,4 hPa 0,0 mm 0,3 km/h (0 Bft) W-SW 252 ° 0 min 0,000 mm 0,0 UV-I 0 W/m² 2,1 °C 1,6 km/h (1 Bft)
20.10.2016 03:48 4,9 °C 4,9 °C 82 % 1015,4 hPa 0,0 mm 0,5 km/h (0 Bft) W-SW 252 ° 0 min 0,000 mm 0,0 UV-I 0 W/m² 2,1 °C 3,2 km/h (1 Bft)
20.10.2016 03:49 4,9 °C 4,9 °C 82 % 1015,4 hPa 0,0 mm 2,3 km/h (1 Bft) W-SW 252 ° 0 min 0,000 mm 0,0 UV-I 0 W/m² 2,1 °C 3,2 km/h (1 Bft)
20.10.2016 03:50 4,8 °C 4,9 °C 82 % 1015,4 hPa 0,0 mm 1,9 km/h (1 Bft) W-SW 252 ° 0 min 0,000 mm 0,0 UV-I 0 W/m² 2,0 °C 3,2 km/h (1 Bft)
20.10.2016 03:51 4,8 °C 4,9 °C 83 % 1015,4 hPa 0,0 mm 2,2 km/h (1 Bft) W-SW 251 ° 0 min 0,000 mm 0,0 UV-I 0 W/m² 2,2 °C 3,2 km/h (1 Bft)
20.10.2016 03:52 4,9 °C 4,9 °C 82 % 1015,3 hPa 0,0 mm 3,2 km/h (1 Bft) S-SW 204 ° 0 min 0,000 mm 0,0 UV-I 0 W/m² 2,1 °C 4,8 km/h (1 Bft)
20.10.2016 03:53 4,8 °C 4,9 °C 83 % 1015,3 hPa 0,0 mm 1,8 km/h (1 Bft) S-SW 204 ° 0 min 0,000 mm 0,0 UV-I 0 W/m² 2,2 °C 4,8 km/h (1 Bft)
20.10.2016 03:54 4,8 °C 4,8 °C 83 % 1015,3 hPa 0,0 mm 1,5 km/h (1 Bft) S-SW 203 ° 0 min 0,000 mm 0,0 UV-I 0 W/m² 2,2 °C 3,2 km/h (1 Bft)
20.10.2016 03:55 4,8 °C 4,8 °C 83 % 1015,3 hPa 0,0 mm 1,3 km/h (1 Bft) S-SW 203 ° 0 min 0,000 mm 0,0 UV-I 0 W/m² 2,2 °C 1,6 km/h (1 Bft)
20.10.2016 03:56 4,8 °C 4,8 °C 82 % 1015,3 hPa 0,0 mm 2,2 km/h (1 Bft) S-SW 203 ° 0 min 0,000 mm 0,0 UV-I 0 W/m² 2,0 °C 3,2 km/h (1 Bft)
20.10.2016 03:57 4,9 °C 4,9 °C 82 % 1015,3 hPa 0,0 mm 2,3 km/h (1 Bft) S-SW 207 ° 0 min 0,000 mm 0,0 UV-I 0 W/m² 2,1 °C 3,2 km/h (1 Bft)
20.10.2016 03:58 4,9 °C 4,9 °C 82 % 1015,3 hPa 0,0 mm 1,2 km/h (1 Bft) S-SW 207 ° 0 min 0,000 mm 0,0 UV-I 0 W/m² 2,1 °C 4,8 km/h (1 Bft)
20.10.2016 03:59 4,9 °C 4,9 °C 81 % 1015,3 hPa 0,0 mm 2,0 km/h (1 Bft) S-SW 207 ° 0 min 0,000 mm 0,0 UV-I 0 W/m² 1,9 °C 3,2 km/h (1 Bft)
20.10.2016 04:00 4,9 °C 4,9 °C 81 % 1015,3 hPa 0,0 mm 2,2 km/h (1 Bft) S 189 ° 0 min 0,000 mm 0,0 UV-I 0 W/m² 1,9 °C 3,2 km/h (1 Bft)
20.10.2016 04:01 4,9 °C 4,9 °C 81 % 1015,3 hPa 0,0 mm 2,8 km/h (1 Bft) S 189 ° 0 min 0,000 mm 0,0 UV-I 0 W/m² 1,9 °C 4,8 km/h (1 Bft)
20.10.2016 04:02 4,9 °C 4,9 °C 81 % 1015,3 hPa 0,0 mm 3,8 km/h (1 Bft) S-SW 196 ° 0 min 0,000 mm 0,0 UV-I 0 W/m² 1,9 °C 4,8 km/h (1 Bft)
20.10.2016 04:03 5,0 °C 5,0 °C 81 % 1015,4 hPa 0,0 mm 2,3 km/h (1 Bft) S-SW 196 ° 0 min 0,000 mm 0,0 UV-I 0 W/m² 2,0 °C 3,2 km/h (1 Bft)
20.10.2016 04:04 4,9 °C 5,0 °C 81 % 1015,3 hPa 0,0 mm 2,6 km/h (1 Bft) S-SW 197 ° 0 min 0,000 mm 0,0 UV-I 0 W/m² 1,9 °C 4,8 km/h (1 Bft)
20.10.2016 04:05 4,9 °C 5,0 °C 81 % 1015,3 hPa 0,0 mm 2,7 km/h (1 Bft) S-SW 197 ° 0 min 0,000 mm 0,0 UV-I 0 W/m² 1,9 °C 4,8 km/h (1 Bft)
20.10.2016 04:06 4,9 °C 5,0 °C 81 % 1015,3 hPa 0,0 mm 1,7 km/h (1 Bft) S-SW 197 ° 0 min 0,000 mm 0,0 UV-I 0 W/m² 1,9 °C 3,2 km/h (1 Bft)
20.10.2016 04:07 5,0 °C 5,0 °C 81 % 1015,3 hPa 0,0 mm 0,9 km/h (0 Bft) S-SW 197 ° 0 min 0,000 mm 0,0 UV-I 0 W/m² 2,0 °C 1,6 km/h (1 Bft)
20.10.2016 04:08 4,9 °C 5,0 °C 81 % 1015,3 hPa 0,0 mm 3,1 km/h (1 Bft) S-SW 205 ° 0 min 0,000 mm 0,0 UV-I 0 W/m² 1,9 °C 6,4 km/h (2 Bft)
20.10.2016 04:09 5,0 °C 5,0 °C 81 % 1015,3 hPa 0,0 mm 3,1 km/h (1 Bft) S-SW 212 ° 0 min 0,000 mm 0,0 UV-I 0 W/m² 2,0 °C 4,8 km/h (1 Bft)
20.10.2016 04:10 5,0 °C 5,0 °C 81 % 1015,3 hPa 0,0 mm 1,5 km/h (1 Bft) S-SW 209 ° 0 min 0,000 mm 0,0 UV-I 0 W/m² 2,0 °C 3,2 km/h (1 Bft)
20.10.2016 04:11 5,0 °C 5,0 °C 81 % 1015,3 hPa 0,0 mm 1,2 km/h (1 Bft) S-SW 209 ° 0 min 0,000 mm 0,0 UV-I 0 W/m² 2,0 °C 1,6 km/h (1 Bft)
20.10.2016 04:12 5,0 °C 5,0 °C 81 % 1015,3 hPa 0,0 mm 1,3 km/h (1 Bft) S-SW 209 ° 0 min 0,000 mm 0,0 UV-I 0 W/m² 2,0 °C 3,2 km/h (1 Bft)
20.10.2016 04:13 5,0 °C 5,0 °C 81 % 1015,4 hPa 0,0 mm 0,2 km/h (0 Bft) S-SW 209 ° 0 min 0,000 mm 0,0 UV-I 0 W/m² 2,0 °C 1,6 km/h (1 Bft)
20.10.2016 04:14 4,9 °C 5,0 °C 81 % 1015,4 hPa 0,0 mm 0,5 km/h (0 Bft) S-SW 209 ° 0 min 0,000 mm 0,0 UV-I 0 W/m² 1,9 °C 1,6 km/h (1 Bft)
20.10.2016 04:15 4,9 °C 5,0 °C 81 % 1015,4 hPa 0,0 mm 2,0 km/h (1 Bft) S-SW 209 ° 0 min 0,000 mm 0,0 UV-I 0 W/m² 1,9 °C 3,2 km/h (1 Bft)
20.10.2016 04:16 4,9 °C 4,9 °C 81 % 1015,4 hPa 0,0 mm 2,6 km/h (1 Bft) S 184 ° 0 min 0,000 mm 0,0 UV-I 0 W/m² 1,9 °C 4,8 km/h (1 Bft)
20.10.2016 04:17 4,9 °C 4,9 °C 81 % 1015,4 hPa 0,0 mm 2,2 km/h (1 Bft) S-SW 196 ° 0 min 0,000 mm 0,0 UV-I 0 W/m² 1,9 °C 4,8 km/h (1 Bft)
20.10.2016 04:18 4,9 °C 4,9 °C 81 % 1015,4 hPa 0,0 mm 1,9 km/h (1 Bft) S-SW 205 ° 0 min 0,000 mm 0,0 UV-I 0 W/m² 1,9 °C 3,2 km/h (1 Bft)
20.10.2016 04:19 4,9 °C 5,0 °C 81 % 1015,4 hPa 0,0 mm 1,8 km/h (1 Bft) SW 236 ° 0 min 0,000 mm 0,0 UV-I 0 W/m² 1,9 °C 4,8 km/h (1 Bft)
20.10.2016 04:20 4,9 °C 4,9 °C 82 % 1015,4 hPa 0,0 mm 3,4 km/h (1 Bft) SW 236 ° 0 min 0,000 mm 0,0 UV-I 0 W/m² 2,1 °C 4,8 km/h (1 Bft)
20.10.2016 04:21 4,9 °C 4,9 °C 82 % 1015,4 hPa 0,0 mm 3,8 km/h (1 Bft) W-SW 250 ° 0 min 0,000 mm 0,0 UV-I 0 W/m² 2,1 °C 8,0 km/h (2 Bft)
20.10.2016 04:22 4,8 °C 4,9 °C 82 % 1015,4 hPa 0,0 mm 3,8 km/h (1 Bft) W 263 ° 0 min 0,000 mm 0,0 UV-I 0 W/m² 2,0 °C 6,4 km/h (2 Bft)
20.10.2016 04:23 4,8 °C 4,9 °C 82 % 1015,3 hPa 0,0 mm 5,0 km/h (1 Bft) W-SW 250 ° 0 min 0,000 mm 0,0 UV-I 0 W/m² 2,0 °C 8,0 km/h (2 Bft)
20.10.2016 04:24 4,8 °C 4,8 °C 82 % 1015,3 hPa 0,0 mm 2,5 km/h (1 Bft) W-SW 244 ° 0 min 0,000 mm 0,0 UV-I 0 W/m² 2,0 °C 4,8 km/h (1 Bft)
20.10.2016 04:25 4,8 °C 4,8 °C 82 % 1015,3 hPa 0,0 mm 1,4 km/h (1 Bft) W-SW 244 ° 0 min 0,000 mm 0,0 UV-I 0 W/m² 2,0 °C 3,2 km/h (1 Bft)
20.10.2016 04:26 4,8 °C 4,8 °C 82 % 1015,3 hPa 0,0 mm 2,5 km/h (1 Bft) S-SW 192 ° 0 min 0,000 mm 0,0 UV-I 0 W/m² 2,0 °C 3,2 km/h (1 Bft)
20.10.2016 04:27 4,8 °C 4,8 °C 83 % 1015,3 hPa 0,0 mm 4,1 km/h (1 Bft) S 182 ° 0 min 0,000 mm 0,0 UV-I 0 W/m² 2,2 °C 4,8 km/h (1 Bft)
20.10.2016 04:28 4,8 °C 4,8 °C 82 % 1015,3 hPa 0,0 mm 1,1 km/h (1 Bft) S 182 ° 0 min 0,000 mm 0,0 UV-I 0 W/m² 2,0 °C 3,2 km/h (1 Bft)
20.10.2016 04:29 4,8 °C 4,8 °C 83 % 1015,3 hPa 0,0 mm 0,9 km/h (0 Bft) S 182 ° 0 min 0,000 mm 0,0 UV-I 0 W/m² 2,2 °C 3,2 km/h (1 Bft)
20.10.2016 04:30 4,8 °C 4,8 °C 82 % 1015,3 hPa 0,0 mm 5,0 km/h (1 Bft) S 186 ° 0 min 0,000 mm 0,0 UV-I 0 W/m² 2,0 °C 9,7 km/h (2 Bft)
20.10.2016 04:31 4,8 °C 4,8 °C 82 % 1015,2 hPa 0,0 mm 4,2 km/h (1 Bft) SW 221 ° 0 min 0,000 mm 0,0 UV-I 0 W/m² 2,0 °C 6,4 km/h (2 Bft)
20.10.2016 04:32 4,8 °C 4,9 °C 82 % 1015,3 hPa 0,0 mm 2,5 km/h (1 Bft) S-SW 194 ° 0 min 0,000 mm 0,0 UV-I 0 W/m² 2,0 °C 4,8 km/h (1 Bft)
20.10.2016 04:33 4,8 °C 4,8 °C 82 % 1015,3 hPa 0,0 mm 6,3 km/h (2 Bft) SW 214 ° 0 min 0,000 mm 0,0 UV-I 0 W/m² 2,0 °C 8,0 km/h (2 Bft)
20.10.2016 04:34 4,8 °C 4,9 °C 82 % 1015,2 hPa 0,0 mm 3,9 km/h (1 Bft) SW 225 ° 0 min 0,000 mm 0,0 UV-I 0 W/m² 2,0 °C 6,4 km/h (2 Bft)
20.10.2016 04:35 4,8 °C 4,9 °C 82 % 1015,3 hPa 0,0 mm 4,0 km/h (1 Bft) SW 234 ° 0 min 0,000 mm 0,0 UV-I 0 W/m² 2,0 °C 8,0 km/h (2 Bft)
20.10.2016 04:36 4,8 °C 4,9 °C 82 % 1015,3 hPa 0,0 mm 2,8 km/h (1 Bft) W-SW 244 ° 0 min 0,000 mm 0,0 UV-I 0 W/m² 2,0 °C 4,8 km/h (1 Bft)
20.10.2016 04:37 4,8 °C 4,9 °C 82 % 1015,3 hPa 0,0 mm 0,8 km/h (0 Bft) W-SW 244 ° 0 min 0,000 mm 0,0 UV-I 0 W/m² 2,0 °C 3,2 km/h (1 Bft)
20.10.2016 04:38 4,9 °C 4,9 °C 82 % 1015,3 hPa 0,0 mm 2,0 km/h (1 Bft) W-SW 244 ° 0 min 0,000 mm 0,0 UV-I 0 W/m² 2,1 °C 3,2 km/h (1 Bft)
20.10.2016 04:39 4,8 °C 4,9 °C 83 % 1015,3 hPa 0,0 mm 0,8 km/h (0 Bft) W-SW 244 ° 0 min 0,000 mm 0,0 UV-I 0 W/m² 2,2 °C 1,6 km/h (1 Bft)
20.10.2016 04:40 4,8 °C 4,8 °C 84 % 1015,3 hPa 0,0 mm 3,2 km/h (1 Bft) W-SW 244 ° 0 min 0,000 mm 0,0 UV-I 0 W/m² 2,3 °C 4,8 km/h (1 Bft)
20.10.2016 04:41 4,8 °C 4,8 °C 83 % 1015,3 hPa 0,0 mm 1,4 km/h (1 Bft) SW 219 ° 0 min 0,000 mm 0,0 UV-I 0 W/m² 2,2 °C 3,2 km/h (1 Bft)
20.10.2016 04:42 4,7 °C 4,8 °C 83 % 1015,3 hPa 0,0 mm 1,7 km/h (1 Bft) SW 217 ° 0 min 0,000 mm 0,0 UV-I 0 W/m² 2,1 °C 3,2 km/h (1 Bft)
20.10.2016 04:43 4,7 °C 4,8 °C 83 % 1015,4 hPa 0,0 mm 1,6 km/h (1 Bft) W-SW 242 ° 0 min 0,000 mm 0,0 UV-I 0 W/m² 2,1 °C 4,8 km/h (1 Bft)
20.10.2016 04:44 4,8 °C 4,8 °C 82 % 1015,4 hPa 0,0 mm 3,0 km/h (1 Bft) SW 221 ° 0 min 0,000 mm 0,0 UV-I 0 W/m² 2,0 °C 6,4 km/h (2 Bft)
20.10.2016 04:45 4,8 °C 4,8 °C 83 % 1015,4 hPa 0,0 mm 2,8 km/h (1 Bft) W-SW 252 ° 0 min 0,000 mm 0,0 UV-I 0 W/m² 2,2 °C 4,8 km/h (1 Bft)
20.10.2016 04:46 4,8 °C 4,8 °C 83 % 1015,3 hPa 0,0 mm 2,0 km/h (1 Bft) W-SW 252 ° 0 min 0,000 mm 0,0 UV-I 0 W/m² 2,2 °C 3,2 km/h (1 Bft)
20.10.2016 04:47 4,8 °C 4,8 °C 83 % 1015,3 hPa 0,0 mm 2,0 km/h (1 Bft) W-SW 252 ° 0 min 0,000 mm 0,0 UV-I 0 W/m² 2,2 °C 3,2 km/h (1 Bft)
20.10.2016 04:48 4,8 °C 4,8 °C 83 % 1015,3 hPa 0,0 mm 2,5 km/h (1 Bft) W-SW 248 ° 0 min 0,000 mm 0,0 UV-I 0 W/m² 2,2 °C 3,2 km/h (1 Bft)
20.10.2016 04:49 4,8 °C 4,8 °C 84 % 1015,3 hPa 0,0 mm 1,8 km/h (1 Bft) W-SW 248 ° 0 min 0,000 mm 0,0 UV-I 0 W/m² 2,3 °C 3,2 km/h (1 Bft)
20.10.2016 04:50 4,7 °C 4,8 °C 84 % 1015,3 hPa 0,0 mm 1,2 km/h (1 Bft) W-SW 243 ° 0 min 0,000 mm 0,0 UV-I 0 W/m² 2,2 °C 3,2 km/h (1 Bft)
20.10.2016 04:51 4,8 °C 4,8 °C 83 % 1015,3 hPa 0,0 mm 1,2 km/h (1 Bft) W-SW 243 ° 0 min 0,000 mm 0,0 UV-I 0 W/m² 2,2 °C 3,2 km/h (1 Bft)
20.10.2016 04:52 4,8 °C 4,8 °C 83 % 1015,3 hPa 0,0 mm 1,8 km/h (1 Bft) W-SW 243 ° 0 min 0,000 mm 0,0 UV-I 0 W/m² 2,2 °C 3,2 km/h (1 Bft)
20.10.2016 04:53 4,8 °C 4,8 °C 83 % 1015,3 hPa 0,0 mm 0,8 km/h (0 Bft) W-SW 243 ° 0 min 0,000 mm 0,0 UV-I 0 W/m² 2,2 °C 1,6 km/h (1 Bft)
20.10.2016 04:54 4,8 °C 4,8 °C 83 % 1015,3 hPa 0,0 mm 3,2 km/h (1 Bft) W-SW 239 ° 0 min 0,000 mm 0,0 UV-I 0 W/m² 2,2 °C 4,8 km/h (1 Bft)
20.10.2016 04:55 4,8 °C 4,8 °C 83 % 1015,3 hPa 0,0 mm 1,9 km/h (1 Bft) W-SW 239 ° 0 min 0,000 mm 0,0 UV-I 0 W/m² 2,2 °C 3,2 km/h (1 Bft)
20.10.2016 04:56 4,9 °C 4,9 °C 83 % 1015,3 hPa 0,0 mm 1,3 km/h (1 Bft) W-SW 238 ° 0 min 0,000 mm 0,0 UV-I 0 W/m² 2,3 °C 3,2 km/h (1 Bft)
20.10.2016 04:57 4,9 °C 4,9 °C 83 % 1015,3 hPa 0,0 mm 5,0 km/h (1 Bft) SW 219 ° 0 min 0,000 mm 0,0 UV-I 0 W/m² 2,3 °C 8,0 km/h (2 Bft)
20.10.2016 04:58 4,9 °C 4,9 °C 82 % 1015,3 hPa 0,0 mm 3,4 km/h (1 Bft) W-SW 242 ° 0 min 0,000 mm 0,0 UV-I 0 W/m² 2,1 °C 6,4 km/h (2 Bft)
20.10.2016 04:59 4,9 °C 4,9 °C 83 % 1015,3 hPa 0,0 mm 2,1 km/h (1 Bft) W-SW 242 ° 0 min 0,000 mm 0,0 UV-I 0 W/m² 2,3 °C 3,2 km/h (1 Bft)
20.10.2016 05:00 4,9 °C 4,9 °C 82 % 1015,3 hPa 0,0 mm 4,0 km/h (1 Bft) S-SW 196 ° 0 min 0,000 mm 0,0 UV-I 0 W/m² 2,1 °C 6,4 km/h (2 Bft)
20.10.2016 05:01 4,9 °C 4,9 °C 82 % 1015,2 hPa 0,0 mm 5,5 km/h (1 Bft) SW 234 ° 0 min 0,025 mm 0,0 UV-I 0 W/m² 2,1 °C 8,0 km/h (2 Bft)
20.10.2016 05:02 5,0 °C 5,0 °C 82 % 1015,3 hPa 0,0 mm 2,1 km/h (1 Bft) W-SW 257 ° 0 min 0,000 mm 0,0 UV-I 0 W/m² 2,2 °C 4,8 km/h (1 Bft)
20.10.2016 05:03 5,0 °C 5,0 °C 82 % 1015,2 hPa 0,0 mm 2,4 km/h (1 Bft) S-SW 193 ° 0 min 0,000 mm 0,0 UV-I 0 W/m² 2,2 °C 4,8 km/h (1 Bft)
20.10.2016 05:04 5,0 °C 5,0 °C 82 % 1015,2 hPa 0,0 mm 4,6 km/h (1 Bft) W 259 ° 0 min 0,000 mm 0,0 UV-I 0 W/m² 2,2 °C 11,3 km/h (2 Bft)
20.10.2016 05:05 5,0 °C 5,1 °C 82 % 1015,2 hPa 0,0 mm 6,4 km/h (2 Bft) S-SO 157 ° 0 min 0,000 mm 0,0 UV-I 0 W/m² 2,2 °C 9,7 km/h (2 Bft)
20.10.2016 05:06 5,1 °C 5,1 °C 81 % 1015,2 hPa 0,0 mm 3,6 km/h (1 Bft) W-SW 244 ° 0 min 0,000 mm 0,0 UV-I 0 W/m² 2,1 °C 6,4 km/h (2 Bft)
20.10.2016 05:07 5,1 °C 5,1 °C 82 % 1015,2 hPa 0,0 mm 2,1 km/h (1 Bft) W-SW 244 ° 0 min 0,000 mm 0,0 UV-I 0 W/m² 2,3 °C 4,8 km/h (1 Bft)
20.10.2016 05:08 5,1 °C 5,1 °C 82 % 1015,2 hPa 0,0 mm 5,7 km/h (1 Bft) S 190 ° 0 min 0,000 mm 0,0 UV-I 0 W/m² 2,3 °C 9,7 km/h (2 Bft)
20.10.2016 05:09 5,1 °C 5,1 °C 81 % 1015,1 hPa 0,0 mm 3,0 km/h (1 Bft) S-SW 193 ° 0 min 0,000 mm 0,0 UV-I 0 W/m² 2,1 °C 4,8 km/h (1 Bft)
20.10.2016 05:10 5,1 °C 5,1 °C 81 % 1015,1 hPa 0,0 mm 2,1 km/h (1 Bft) W 269 ° 0 min 0,000 mm 0,0 UV-I 0 W/m² 2,1 °C 4,8 km/h (1 Bft)
20.10.2016 05:11 5,1 °C 5,1 °C 81 % 1015,1 hPa 0,0 mm 5,3 km/h (1 Bft) S-SW 202 ° 0 min 0,000 mm 0,0 UV-I 0 W/m² 2,1 °C 12,9 km/h (3 Bft)
20.10.2016 05:12 5,1 °C 5,1 °C 81 % 1015,1 hPa 0,0 mm 3,1 km/h (1 Bft) W 259 ° 0 min 0,000 mm 0,0 UV-I 0 W/m² 2,1 °C 4,8 km/h (1 Bft)
20.10.2016 05:13 5,1 °C 5,1 °C 82 % 1015,1 hPa 0,0 mm 3,3 km/h (1 Bft) W-SW 258 ° 0 min 0,000 mm 0,0 UV-I 0 W/m² 2,3 °C 4,8 km/h (1 Bft)
20.10.2016 05:14 5,1 °C 5,1 °C 82 % 1015,2 hPa 0,0 mm 3,9 km/h (1 Bft) W-SW 258 ° 0 min 0,000 mm 0,0 UV-I 0 W/m² 2,3 °C 4,8 km/h (1 Bft)
20.10.2016 05:15 5,0 °C 5,1 °C 82 % 1015,1 hPa 0,0 mm 5,8 km/h (2 Bft) SW 229 ° 0 min 0,000 mm 0,0 UV-I 0 W/m² 2,2 °C 12,9 km/h (3 Bft)
20.10.2016 05:16 4,9 °C 5,0 °C 82 % 1015,1 hPa 0,0 mm 4,3 km/h (1 Bft) S-SW 202 ° 0 min 0,000 mm 0,0 UV-I 0 W/m² 2,1 °C 9,7 km/h (2 Bft)
20.10.2016 05:17 4,9 °C 5,0 °C 81 % 1015,1 hPa 0,0 mm 2,6 km/h (1 Bft) W-SW 252 ° 0 min 0,000 mm 0,0 UV-I 0 W/m² 1,9 °C 4,8 km/h (1 Bft)
20.10.2016 05:18 4,9 °C 4,9 °C 82 % 1015,1 hPa 0,0 mm 4,4 km/h (1 Bft) S 186 ° 0 min 0,000 mm 0,0 UV-I 0 W/m² 2,1 °C 6,4 km/h (2 Bft)
20.10.2016 05:19 4,9 °C 4,9 °C 81 % 1015,1 hPa 0,0 mm 3,9 km/h (1 Bft) W-SW 246 ° 0 min 0,000 mm 0,0 UV-I 0 W/m² 1,9 °C 6,4 km/h (2 Bft)
20.10.2016 05:20 4,9 °C 4,9 °C 82 % 1015,1 hPa 0,0 mm 1,8 km/h (1 Bft) W-SW 246 ° 0 min 0,000 mm 0,0 UV-I 0 W/m² 2,1 °C 3,2 km/h (1 Bft)
20.10.2016 05:21 4,9 °C 4,9 °C 82 % 1015,1 hPa 0,0 mm 5,0 km/h (1 Bft) SW 232 ° 0 min 0,000 mm 0,0 UV-I 0 W/m² 2,1 °C 12,9 km/h (3 Bft)
20.10.2016 05:22 4,9 °C 4,9 °C 82 % 1015,1 hPa 0,0 mm 8,0 km/h (2 Bft) SW 223 ° 0 min 0,000 mm 0,0 UV-I 0 W/m² 2,1 °C 12,9 km/h (3 Bft)
20.10.2016 05:23 4,9 °C 4,9 °C 81 % 1015,1 hPa 0,0 mm 2,9 km/h (1 Bft) SW 217 ° 0 min 0,000 mm 0,0 UV-I 0 W/m² 1,9 °C 4,8 km/h (1 Bft)
20.10.2016 05:24 4,9 °C 4,9 °C 82 % 1015,1 hPa 0,0 mm 5,4 km/h (1 Bft) W-SW 246 ° 0 min 0,000 mm 0,0 UV-I 0 W/m² 2,1 °C 8,0 km/h (2 Bft)
20.10.2016 05:25 4,8 °C 4,9 °C 82 % 1015,2 hPa 0,0 mm 3,6 km/h (1 Bft) SW 225 ° 0 min 0,000 mm 0,0 UV-I 0 W/m² 2,0 °C 4,8 km/h (1 Bft)
20.10.2016 05:26 4,8 °C 4,8 °C 82 % 1015,1 hPa 0,0 mm 4,0 km/h (1 Bft) S-SW 196 ° 0 min 0,000 mm 0,0 UV-I 0 W/m² 2,0 °C 8,0 km/h (2 Bft)
20.10.2016 05:27 4,8 °C 4,8 °C 82 % 1015,1 hPa 0,0 mm 4,7 km/h (1 Bft) SW 227 ° 0 min 0,000 mm 0,0 UV-I 0 W/m² 2,0 °C 8,0 km/h (2 Bft)
20.10.2016 05:28 4,8 °C 4,8 °C 82 % 1015,1 hPa 0,0 mm 4,7 km/h (1 Bft) W-SW 248 ° 0 min 0,000 mm 0,0 UV-I 0 W/m² 2,0 °C 8,0 km/h (2 Bft)
20.10.2016 05:29 4,8 °C 4,8 °C 82 % 1015,1 hPa 0,0 mm 3,4 km/h (1 Bft) S-SW 200 ° 0 min 0,000 mm 0,0 UV-I 0 W/m² 2,0 °C 6,4 km/h (2 Bft)
20.10.2016 05:30 4,7 °C 4,8 °C 82 % 1015,1 hPa 0,0 mm 2,4 km/h (1 Bft) S 190 ° 0 min 0,000 mm 0,0 UV-I 0 W/m² 1,9 °C 3,2 km/h (1 Bft)
20.10.2016 05:31 4,7 °C 4,8 °C 82 % 1015,0 hPa 0,0 mm 3,3 km/h (1 Bft) S-SW 207 ° 0 min 0,000 mm 0,0 UV-I 0 W/m² 1,9 °C 4,8 km/h (1 Bft)
20.10.2016 05:32 4,7 °C 4,8 °C 82 % 1015,0 hPa 0,0 mm 4,0 km/h (1 Bft) S 174 ° 0 min 0,000 mm 0,0 UV-I 0 W/m² 1,9 °C 8,0 km/h (2 Bft)
20.10.2016 05:33 4,7 °C 4,7 °C 82 % 1015,1 hPa 0,0 mm 9,0 km/h (2 Bft) W 262 ° 0 min 0,000 mm 0,0 UV-I 0 W/m² 1,9 °C 14,5 km/h (3 Bft)
20.10.2016 05:34 4,7 °C 4,7 °C 82 % 1015,0 hPa 0,0 mm 5,8 km/h (2 Bft) W 269 ° 0 min 0,000 mm 0,0 UV-I 0 W/m² 1,9 °C 11,3 km/h (2 Bft)
20.10.2016 05:35 4,7 °C 4,7 °C 82 % 1015,0 hPa 0,0 mm 3,1 km/h (1 Bft) W-SW 244 ° 0 min 0,000 mm 0,0 UV-I 0 W/m² 1,9 °C 6,4 km/h (2 Bft)
20.10.2016 05:36 4,7 °C 4,7 °C 82 % 1015,0 hPa 0,0 mm 4,3 km/h (1 Bft) S-SW 196 ° 0 min 0,000 mm 0,0 UV-I 0 W/m² 1,9 °C 8,0 km/h (2 Bft)
20.10.2016 05:37 4,7 °C 4,7 °C 82 % 1015,0 hPa 0,0 mm 4,2 km/h (1 Bft) SW 235 ° 0 min 0,000 mm 0,0 UV-I 0 W/m² 1,9 °C 6,4 km/h (2 Bft)
20.10.2016 05:38 4,7 °C 4,7 °C 82 % 1015,0 hPa 0,0 mm 4,6 km/h (1 Bft) SW 234 ° 0 min 0,000 mm 0,0 UV-I 0 W/m² 1,9 °C 6,4 km/h (2 Bft)
20.10.2016 05:39 4,7 °C 4,8 °C 82 % 1015,0 hPa 0,0 mm 5,3 km/h (1 Bft) SW 223 ° 0 min 0,000 mm 0,0 UV-I 0 W/m² 1,9 °C 6,4 km/h (2 Bft)
20.10.2016 05:40 4,7 °C 4,7 °C 82 % 1014,9 hPa 0,0 mm 3,0 km/h (1 Bft) W 262 ° 0 min 0,000 mm 0,0 UV-I 0 W/m² 1,9 °C 4,8 km/h (1 Bft)
20.10.2016 05:41 4,6 °C 4,7 °C 82 % 1015,0 hPa 0,0 mm 3,1 km/h (1 Bft) SW 220 ° 0 min 0,000 mm 0,0 UV-I 0 W/m² 1,8 °C 4,8 km/h (1 Bft)
20.10.2016 05:42 4,6 °C 4,6 °C 82 % 1015,0 hPa 0,0 mm 4,5 km/h (1 Bft) W-SW 248 ° 0 min 0,000 mm 0,0 UV-I 0 W/m² 1,8 °C 8,0 km/h (2 Bft)
20.10.2016 05:43 4,6 °C 4,6 °C 82 % 1015,0 hPa 0,0 mm 3,2 km/h (1 Bft) S 181 ° 0 min 0,000 mm 0,0 UV-I 0 W/m² 1,8 °C 6,4 km/h (2 Bft)
20.10.2016 05:44 4,6 °C 4,6 °C 82 % 1015,0 hPa 0,0 mm 1,4 km/h (1 Bft) W-SW 252 ° 0 min 0,000 mm 0,0 UV-I 0 W/m² 1,8 °C 4,8 km/h (1 Bft)
20.10.2016 05:45 4,6 °C 4,6 °C 82 % 1014,9 hPa 0,0 mm 6,8 km/h (2 Bft) W 271 ° 0 min 0,000 mm 0,0 UV-I 0 W/m² 1,8 °C 11,3 km/h (2 Bft)
20.10.2016 05:46 4,5 °C 4,6 °C 82 % 1014,9 hPa 0,0 mm 5,5 km/h (1 Bft) W 261 ° 0 min 0,000 mm 0,0 UV-I 0 W/m² 1,7 °C 9,7 km/h (2 Bft)
20.10.2016 05:47 4,5 °C 4,6 °C 83 % 1014,9 hPa 0,0 mm 1,3 km/h (1 Bft) W 261 ° 0 min 0,000 mm 0,0 UV-I 0 W/m² 1,9 °C 4,8 km/h (1 Bft)
20.10.2016 05:48 4,5 °C 4,5 °C 83 % 1014,9 hPa 0,0 mm 2,9 km/h (1 Bft) SW 232 ° 0 min 0,000 mm 0,0 UV-I 0 W/m² 1,9 °C 4,8 km/h (1 Bft)
20.10.2016 05:49 4,5 °C 4,5 °C 83 % 1014,9 hPa 0,0 mm 2,5 km/h (1 Bft) SW 223 ° 0 min 0,000 mm 0,0 UV-I 0 W/m² 1,9 °C 4,8 km/h (1 Bft)
20.10.2016 05:50 4,5 °C 4,5 °C 83 % 1014,9 hPa 0,0 mm 3,3 km/h (1 Bft) S 180 ° 0 min 0,000 mm 0,0 UV-I 0 W/m² 1,9 °C 4,8 km/h (1 Bft)
20.10.2016 05:51 4,5 °C 4,5 °C 83 % 1014,9 hPa 0,0 mm 3,7 km/h (1 Bft) S 170 ° 0 min 0,000 mm 0,0 UV-I 0 W/m² 1,9 °C 4,8 km/h (1 Bft)
20.10.2016 05:52 4,5 °C 4,6 °C 83 % 1014,9 hPa 0,0 mm 2,4 km/h (1 Bft) S 182 ° 0 min 0,000 mm 0,0 UV-I 0 W/m² 1,9 °C 4,8 km/h (1 Bft)
20.10.2016 05:53 4,5 °C 4,5 °C 83 % 1014,9 hPa 0,0 mm 1,9 km/h (1 Bft) S-SW 202 ° 0 min 0,000 mm 0,0 UV-I 0 W/m² 1,9 °C 3,2 km/h (1 Bft)
20.10.2016 05:54 4,5 °C 4,5 °C 83 % 1014,8 hPa 0,0 mm 1,5 km/h (1 Bft) S-SW 202 ° 0 min 0,000 mm 0,0 UV-I 0 W/m² 1,9 °C 3,2 km/h (1 Bft)
20.10.2016 05:55 4,5 °C 4,5 °C 83 % 1014,9 hPa 0,0 mm 1,3 km/h (1 Bft) S-SW 202 ° 0 min 0,000 mm 0,0 UV-I 0 W/m² 1,9 °C 3,2 km/h (1 Bft)
20.10.2016 05:56 4,4 °C 4,5 °C 83 % 1015,0 hPa 0,0 mm 2,9 km/h (1 Bft) S 176 ° 0 min 0,000 mm 0,0 UV-I 0 W/m² 1,8 °C 4,8 km/h (1 Bft)
20.10.2016 05:57 4,4 °C 4,4 °C 83 % 1014,9 hPa 0,0 mm 1,7 km/h (1 Bft) S 188 ° 0 min 0,000 mm 0,0 UV-I 0 W/m² 1,8 °C 3,2 km/h (1 Bft)
20.10.2016 05:58 4,3 °C 4,4 °C 83 % 1014,9 hPa 0,0 mm 3,4 km/h (1 Bft) S-SO 168 ° 0 min 0,000 mm 0,0 UV-I 0 W/m² 1,7 °C 6,4 km/h (2 Bft)
20.10.2016 05:59 4,2 °C 4,3 °C 84 % 1015,0 hPa 0,0 mm 1,5 km/h (1 Bft) S-SO 168 ° 0 min 0,000 mm 0,0 UV-I 0 W/m² 1,7 °C 3,2 km/h (1 Bft)
20.10.2016 06:00 4,2 °C 4,2 °C 85 % 1014,9 hPa 0,0 mm 2,4 km/h (1 Bft) S 190 ° 0 min 0,000 mm 0,0 UV-I 0 W/m² 1,9 °C 3,2 km/h (1 Bft)
20.10.2016 06:01 4,1 °C 4,2 °C 84 % 1014,9 hPa 0,0 mm 3,4 km/h (1 Bft) S-SW 197 ° 0 min 0,025 mm 0,0 UV-I 0 W/m² 1,6 °C 6,4 km/h (2 Bft)
20.10.2016 06:02 4,0 °C 4,1 °C 84 % 1014,9 hPa 0,0 mm 3,2 km/h (1 Bft) S-SW 194 ° 0 min 0,001 mm 0,0 UV-I 0 W/m² 1,5 °C 4,8 km/h (1 Bft)
20.10.2016 06:03 4,0 °C 4,0 °C 85 % 1014,9 hPa 0,0 mm 3,2 km/h (1 Bft) S 171 ° 0 min 0,000 mm 0,0 UV-I 0 W/m² 1,7 °C 6,4 km/h (2 Bft)
20.10.2016 06:04 3,9 °C 4,0 °C 86 % 1014,9 hPa 0,0 mm 3,3 km/h (1 Bft) S 171 ° 0 min 0,000 mm 0,0 UV-I 0 W/m² 1,8 °C 6,4 km/h (2 Bft)
20.10.2016 06:05 3,8 °C 3,9 °C 86 % 1014,9 hPa 0,0 mm 2,2 km/h (1 Bft) S 171 ° 0 min 0,000 mm 0,0 UV-I 0 W/m² 1,7 °C 3,2 km/h (1 Bft)
20.10.2016 06:06 3,9 °C 3,9 °C 86 % 1014,9 hPa 0,0 mm 3,4 km/h (1 Bft) S 180 ° 0 min 0,000 mm 0,0 UV-I 0 W/m² 1,8 °C 4,8 km/h (1 Bft)
20.10.2016 06:07 3,8 °C 3,9 °C 85 % 1014,9 hPa 0,0 mm 2,9 km/h (1 Bft) S 177 ° 0 min 0,000 mm 0,0 UV-I 0 W/m² 1,5 °C 6,4 km/h (2 Bft)
20.10.2016 06:08 3,7 °C 3,8 °C 86 % 1014,9 hPa 0,0 mm 2,7 km/h (1 Bft) S 176 ° 0 min 0,000 mm 0,0 UV-I 0 W/m² 1,6 °C 3,2 km/h (1 Bft)
20.10.2016 06:09 3,7 °C 3,7 °C 87 % 1014,9 hPa 0,0 mm 2,1 km/h (1 Bft) S 176 ° 0 min 0,000 mm 0,0 UV-I 0 W/m² 1,7 °C 3,2 km/h (1 Bft)
20.10.2016 06:10 3,7 °C 3,7 °C 86 % 1014,9 hPa 0,0 mm 0,9 km/h (0 Bft) S 176 ° 0 min 0,000 mm 0,0 UV-I 0 W/m² 1,6 °C 1,6 km/h (1 Bft)
20.10.2016 06:11 3,6 °C 3,7 °C 86 % 1014,9 hPa 0,0 mm 2,4 km/h (1 Bft) S 169 ° 0 min 0,000 mm 0,0 UV-I 0 W/m² 1,5 °C 6,4 km/h (2 Bft)
20.10.2016 06:12 3,6 °C 3,6 °C 87 % 1014,9 hPa 0,0 mm 3,7 km/h (1 Bft) S-SW 202 ° 0 min 0,000 mm 0,0 UV-I 0 W/m² 1,6 °C 6,4 km/h (2 Bft)
20.10.2016 06:13 3,6 °C 3,6 °C 87 % 1014,9 hPa 0,0 mm 2,1 km/h (1 Bft) S-SW 201 ° 0 min 0,000 mm 0,0 UV-I 0 W/m² 1,6 °C 3,2 km/h (1 Bft)
20.10.2016 06:14 3,7 °C 3,7 °C 86 % 1014,9 hPa 0,0 mm 3,8 km/h (1 Bft) S-SW 193 ° 0 min 0,000 mm 0,0 UV-I 0 W/m² 1,6 °C 4,8 km/h (1 Bft)
20.10.2016 06:15 3,7 °C 3,7 °C 87 % 1014,9 hPa 0,0 mm 3,2 km/h (1 Bft) S 181 ° 0 min 0,000 mm 0,0 UV-I 0 W/m² 1,7 °C 4,8 km/h (1 Bft)
20.10.2016 06:16 3,7 °C 3,7 °C 87 % 1014,9 hPa 0,0 mm 2,0 km/h (1 Bft) S 182 ° 0 min 0,000 mm 0,0 UV-I 0 W/m² 1,7 °C 3,2 km/h (1 Bft)
20.10.2016 06:17 3,7 °C 3,7 °C 86 % 1014,9 hPa 0,0 mm 3,0 km/h (1 Bft) S 186 ° 0 min 0,000 mm 0,0 UV-I 0 W/m² 1,6 °C 4,8 km/h (1 Bft)
20.10.2016 06:18 3,8 °C 3,8 °C 86 % 1014,9 hPa 0,0 mm 4,1 km/h (1 Bft) S-SW 207 ° 0 min 0,000 mm 0,0 UV-I 0 W/m² 1,7 °C 8,0 km/h (2 Bft)
20.10.2016 06:19 3,8 °C 3,8 °C 86 % 1014,9 hPa 0,0 mm 3,4 km/h (1 Bft) S-SW 206 ° 0 min 0,000 mm 0,0 UV-I 0 W/m² 1,7 °C 4,8 km/h (1 Bft)
20.10.2016 06:20 3,9 °C 3,9 °C 86 % 1014,9 hPa 0,0 mm 2,0 km/h (1 Bft) S-SW 206 ° 0 min 0,000 mm 0,0 UV-I 0 W/m² 1,8 °C 3,2 km/h (1 Bft)
20.10.2016 06:21 3,9 °C 3,9 °C 85 % 1014,9 hPa 0,0 mm 3,7 km/h (1 Bft) S 184 ° 0 min 0,000 mm 0,0 UV-I 0 W/m² 1,6 °C 4,8 km/h (1 Bft)
20.10.2016 06:22 3,9 °C 3,9 °C 85 % 1014,9 hPa 0,0 mm 3,0 km/h (1 Bft) S 186 ° 0 min 0,000 mm 0,0 UV-I 0 W/m² 1,6 °C 6,4 km/h (2 Bft)
20.10.2016 06:23 4,0 °C 4,0 °C 85 % 1014,9 hPa 0,0 mm 3,6 km/h (1 Bft) W-SW 242 ° 0 min 0,000 mm 0,0 UV-I 0 W/m² 1,7 °C 11,3 km/h (2 Bft)
20.10.2016 06:24 4,0 °C 4,1 °C 85 % 1014,9 hPa 0,0 mm 2,3 km/h (1 Bft) SW 236 ° 0 min 0,000 mm 0,0 UV-I 0 W/m² 1,7 °C 6,4 km/h (2 Bft)
20.10.2016 06:25 4,1 °C 4,1 °C 85 % 1014,9 hPa 0,0 mm 1,1 km/h (1 Bft) S 190 ° 0 min 0,000 mm 0,0 UV-I 0 W/m² 1,8 °C 4,8 km/h (1 Bft)
20.10.2016 06:26 4,1 °C 4,1 °C 84 % 1014,9 hPa 0,0 mm 5,4 km/h (1 Bft) W 274 ° 0 min 0,000 mm 0,0 UV-I 0 W/m² 1,6 °C 6,4 km/h (2 Bft)
20.10.2016 06:27 4,1 °C 4,1 °C 84 % 1014,9 hPa 0,0 mm 2,2 km/h (1 Bft) SW 217 ° 0 min 0,000 mm 0,0 UV-I 0 W/m² 1,6 °C 4,8 km/h (1 Bft)
20.10.2016 06:28 4,1 °C 4,1 °C 84 % 1014,9 hPa 0,0 mm 1,9 km/h (1 Bft) W-SW 252 ° 0 min 0,000 mm 0,0 UV-I 0 W/m² 1,6 °C 4,8 km/h (1 Bft)
20.10.2016 06:29 4,1 °C 4,1 °C 84 % 1014,9 hPa 0,0 mm 2,6 km/h (1 Bft) S-SW 196 ° 0 min 0,000 mm 0,0 UV-I 0 W/m² 1,6 °C 4,8 km/h (1 Bft)
20.10.2016 06:30 4,1 °C 4,1 °C 85 % 1014,9 hPa 0,0 mm 4,1 km/h (1 Bft) S-SW 201 ° 0 min 0,000 mm 0,0 UV-I 0 W/m² 1,8 °C 8,0 km/h (2 Bft)
20.10.2016 06:31 4,1 °C 4,1 °C 84 % 1014,9 hPa 0,0 mm 5,2 km/h (1 Bft) S-SW 198 ° 0 min 0,000 mm 0,0 UV-I 0 W/m² 1,6 °C 8,0 km/h (2 Bft)
20.10.2016 06:32 4,1 °C 4,1 °C 84 % 1014,9 hPa 0,0 mm 6,2 km/h (2 Bft) S-SW 197 ° 0 min 0,000 mm 0,0 UV-I 0 W/m² 1,6 °C 8,0 km/h (2 Bft)
20.10.2016 06:33 4,1 °C 4,1 °C 84 % 1014,9 hPa 0,0 mm 5,6 km/h (1 Bft) S 182 ° 0 min 0,000 mm 0,0 UV-I 0 W/m² 1,6 °C 8,0 km/h (2 Bft)
20.10.2016 06:34 4,1 °C 4,1 °C 84 % 1014,8 hPa 0,0 mm 5,3 km/h (1 Bft) S 179 ° 0 min 0,000 mm 0,0 UV-I 0 W/m² 1,6 °C 8,0 km/h (2 Bft)
20.10.2016 06:35 4,1 °C 4,1 °C 85 % 1014,8 hPa 0,0 mm 6,2 km/h (2 Bft) S-SW 209 ° 0 min 0,000 mm 0,0 UV-I 0 W/m² 1,8 °C 9,7 km/h (2 Bft)
20.10.2016 06:36 4,1 °C 4,1 °C 84 % 1014,8 hPa 0,0 mm 5,4 km/h (1 Bft) S 188 ° 0 min 0,000 mm 0,0 UV-I 0 W/m² 1,6 °C 9,7 km/h (2 Bft)
20.10.2016 06:37 4,1 °C 4,1 °C 84 % 1014,8 hPa 0,0 mm 3,7 km/h (1 Bft) S 181 ° 0 min 0,000 mm 0,0 UV-I 0 W/m² 1,6 °C 6,4 km/h (2 Bft)
20.10.2016 06:38 4,1 °C 4,1 °C 84 % 1014,8 hPa 0,0 mm 5,6 km/h (1 Bft) S 175 ° 0 min 0,000 mm 0,0 UV-I 0 W/m² 1,6 °C 8,0 km/h (2 Bft)
20.10.2016 06:39 4,0 °C 4,1 °C 84 % 1014,8 hPa 0,0 mm 5,2 km/h (1 Bft) S-SO 157 ° 0 min 0,000 mm 0,0 UV-I 0 W/m² 1,5 °C 8,0 km/h (2 Bft)
20.10.2016 06:40 4,0 °C 4,0 °C 85 % 1014,8 hPa 0,0 mm 5,0 km/h (1 Bft) S 177 ° 0 min 0,000 mm 0,0 UV-I 0 W/m² 1,7 °C 8,0 km/h (2 Bft)
20.10.2016 06:41 4,0 °C 4,1 °C 84 % 1014,8 hPa 0,0 mm 5,2 km/h (1 Bft) S-SO 161 ° 0 min 0,000 mm 0,0 UV-I 0 W/m² 1,5 °C 12,9 km/h (3 Bft)
20.10.2016 06:42 4,0 °C 4,0 °C 84 % 1014,8 hPa 0,0 mm 5,5 km/h (1 Bft) S-SW 194 ° 0 min 0,000 mm 0,0 UV-I 0 W/m² 1,5 °C 8,0 km/h (2 Bft)
20.10.2016 06:43 4,1 °C 4,1 °C 85 % 1014,8 hPa 0,0 mm 4,9 km/h (1 Bft) S 175 ° 0 min 0,000 mm 0,0 UV-I 0 W/m² 1,8 °C 9,7 km/h (2 Bft)
20.10.2016 06:44 4,0 °C 4,1 °C 85 % 1014,8 hPa 0,0 mm 4,4 km/h (1 Bft) S 174 ° 0 min 0,000 mm 0,0 UV-I 0 W/m² 1,7 °C 6,4 km/h (2 Bft)
20.10.2016 06:45 4,0 °C 4,0 °C 85 % 1014,8 hPa 0,0 mm 4,5 km/h (1 Bft) W-SW 238 ° 0 min 0,000 mm 0,0 UV-I 0 W/m² 1,7 °C 9,7 km/h (2 Bft)
20.10.2016 06:46 4,0 °C 4,0 °C 85 % 1014,8 hPa 0,0 mm 3,9 km/h (1 Bft) SW 214 ° 0 min 0,000 mm 0,0 UV-I 0 W/m² 1,7 °C 6,4 km/h (2 Bft)
20.10.2016 06:47 4,0 °C 4,0 °C 84 % 1014,8 hPa 0,0 mm 6,4 km/h (2 Bft) S 188 ° 0 min 0,000 mm 0,0 UV-I 0 W/m² 1,5 °C 9,7 km/h (2 Bft)
20.10.2016 06:48 4,0 °C 4,0 °C 84 % 1014,9 hPa 0,0 mm 5,1 km/h (1 Bft) S-SW 213 ° 0 min 0,000 mm 0,0 UV-I 0 W/m² 1,5 °C 8,0 km/h (2 Bft)
20.10.2016 06:49 4,0 °C 4,0 °C 84 % 1014,9 hPa 0,0 mm 6,2 km/h (2 Bft) S 181 ° 0 min 0,000 mm 0,0 UV-I 0 W/m² 1,5 °C 9,7 km/h (2 Bft)
20.10.2016 06:50 4,1 °C 4,1 °C 84 % 1014,9 hPa 0,0 mm 6,0 km/h (2 Bft) S 190 ° 0 min 0,000 mm 0,0 UV-I 0 W/m² 1,6 °C 9,7 km/h (2 Bft)
20.10.2016 06:51 4,1 °C 4,1 °C 85 % 1014,9 hPa 0,0 mm 5,4 km/h (1 Bft) S 188 ° 0 min 0,000 mm 0,0 UV-I 0 W/m² 1,8 °C 9,7 km/h (2 Bft)
20.10.2016 06:52 4,1 °C 4,1 °C 84 % 1014,9 hPa 0,0 mm 7,5 km/h (2 Bft) S-SO 161 ° 0 min 0,000 mm 0,0 UV-I 0 W/m² 1,6 °C 11,3 km/h (2 Bft)
20.10.2016 06:53 4,1 °C 4,1 °C 85 % 1014,9 hPa 0,0 mm 5,3 km/h (1 Bft) S 188 ° 0 min 0,000 mm 0,0 UV-I 0 W/m² 1,8 °C 8,0 km/h (2 Bft)
20.10.2016 06:54 4,1 °C 4,1 °C 85 % 1014,8 hPa 0,0 mm 5,1 km/h (1 Bft) S-SW 193 ° 0 min 0,000 mm 0,0 UV-I 0 W/m² 1,8 °C 8,0 km/h (2 Bft)
20.10.2016 06:55 4,0 °C 4,1 °C 84 % 1014,9 hPa 0,0 mm 4,8 km/h (1 Bft) SW 227 ° 0 min 0,000 mm 0,0 UV-I 0 W/m² 1,5 °C 8,0 km/h (2 Bft)
20.10.2016 06:56 3,9 °C 4,0 °C 84 % 1014,8 hPa 0,0 mm 3,0 km/h (1 Bft) SW 222 ° 0 min 0,000 mm 0,0 UV-I 0 W/m² 1,4 °C 6,4 km/h (2 Bft)
20.10.2016 06:57 3,8 °C 3,9 °C 85 % 1014,8 hPa 0,0 mm 1,3 km/h (1 Bft) SW 222 ° 0 min 0,000 mm 0,0 UV-I 0 W/m² 1,5 °C 3,2 km/h (1 Bft)
20.10.2016 06:58 3,9 °C 3,9 °C 85 % 1014,9 hPa 0,0 mm 2,3 km/h (1 Bft) S 184 ° 0 min 0,000 mm 0,0 UV-I 0 W/m² 1,6 °C 3,2 km/h (1 Bft)
20.10.2016 06:59 3,8 °C 3,9 °C 86 % 1014,9 hPa 0,0 mm 2,5 km/h (1 Bft) S-SW 195 ° 0 min 0,000 mm 0,0 UV-I 0 W/m² 1,7 °C 4,8 km/h (1 Bft)
20.10.2016 07:00 3,8 °C 3,8 °C 85 % 1014,9 hPa 0,0 mm 2,5 km/h (1 Bft) S-SW 195 ° 0 min 0,000 mm 0,0 UV-I 0 W/m² 1,5 °C 4,8 km/h (1 Bft)
20.10.2016 07:01 3,9 °C 3,9 °C 85 % 1014,9 hPa 0,0 mm 2,0 km/h (1 Bft) S-SW 195 ° 0 min 0,000 mm 0,0 UV-I 0 W/m² 1,6 °C 3,2 km/h (1 Bft)
20.10.2016 07:02 3,8 °C 3,9 °C 85 % 1014,9 hPa 0,0 mm 3,2 km/h (1 Bft) W-SW 240 ° 0 min 0,000 mm 0,0 UV-I 0 W/m² 1,5 °C 4,8 km/h (1 Bft)
20.10.2016 07:03 3,8 °C 3,8 °C 86 % 1014,9 hPa 0,0 mm 3,7 km/h (1 Bft) SW 221 ° 0 min 0,000 mm 0,0 UV-I 0 W/m² 1,7 °C 6,4 km/h (2 Bft)
20.10.2016 07:04 3,9 °C 3,9 °C 85 % 1014,9 hPa 0,0 mm 4,0 km/h (1 Bft) S-SW 194 ° 0 min 0,000 mm 0,0 UV-I 0 W/m² 1,6 °C 4,8 km/h (1 Bft)
20.10.2016 07:05 3,9 °C 3,9 °C 85 % 1014,9 hPa 0,0 mm 6,4 km/h (2 Bft) S 187 ° 0 min 0,000 mm 0,0 UV-I 0 W/m² 1,6 °C 9,7 km/h (2 Bft)
20.10.2016 07:06 3,9 °C 3,9 °C 85 % 1014,9 hPa 0,0 mm 4,5 km/h (1 Bft) S-SW 193 ° 0 min 0,000 mm 0,0 UV-I 0 W/m² 1,6 °C 8,0 km/h (2 Bft)
20.10.2016 07:07 3,9 °C 4,0 °C 85 % 1014,9 hPa 0,0 mm 5,0 km/h (1 Bft) S 186 ° 0 min 0,000 mm 0,0 UV-I 0 W/m² 1,6 °C 6,4 km/h (2 Bft)
20.10.2016 07:08 4,0 °C 4,0 °C 85 % 1014,9 hPa 0,0 mm 4,8 km/h (1 Bft) S-SW 194 ° 0 min 0,000 mm 0,0 UV-I 0 W/m² 1,7 °C 8,0 km/h (2 Bft)
20.10.2016 07:09 3,9 °C 4,0 °C 85 % 1014,9 hPa 0,0 mm 4,6 km/h (1 Bft) S-SW 196 ° 0 min 0,000 mm 0,0 UV-I 0 W/m² 1,6 °C 8,0 km/h (2 Bft)
20.10.2016 07:10 3,9 °C 4,0 °C 85 % 1014,9 hPa 0,0 mm 5,2 km/h (1 Bft) S-SW 209 ° 0 min 0,000 mm 0,0 UV-I 0 W/m² 1,6 °C 8,0 km/h (2 Bft)
20.10.2016 07:11 3,9 °C 3,9 °C 85 % 1014,9 hPa 0,0 mm 3,7 km/h (1 Bft) S 186 ° 0 min 0,000 mm 0,0 UV-I 0 W/m² 1,6 °C 6,4 km/h (2 Bft)
20.10.2016 07:12 3,9 °C 3,9 °C 85 % 1014,9 hPa 0,0 mm 4,6 km/h (1 Bft) S 190 ° 0 min 0,000 mm 0,0 UV-I 0 W/m² 1,6 °C 11,3 km/h (2 Bft)
20.10.2016 07:13 3,9 °C 3,9 °C 85 % 1014,9 hPa 0,0 mm 4,9 km/h (1 Bft) S 171 ° 0 min 0,000 mm 0,0 UV-I 0 W/m² 1,6 °C 8,0 km/h (2 Bft)
20.10.2016 07:14 3,9 °C 3,9 °C 85 % 1014,9 hPa 0,0 mm 6,6 km/h (2 Bft) S 188 ° 0 min 0,000 mm 0,0 UV-I 0 W/m² 1,6 °C 11,3 km/h (2 Bft)
20.10.2016 07:15 3,9 °C 3,9 °C 85 % 1014,8 hPa 0,0 mm 6,0 km/h (2 Bft) S-SW 198 ° 0 min 0,000 mm 0,0 UV-I 0 W/m² 1,6 °C 11,3 km/h (2 Bft)
20.10.2016 07:16 3,9 °C 4,0 °C 85 % 1014,9 hPa 0,0 mm 3,7 km/h (1 Bft) S-SW 199 ° 0 min 0,000 mm 0,0 UV-I 0 W/m² 1,6 °C 6,4 km/h (2 Bft)
20.10.2016 07:17 4,1 °C 4,1 °C 85 % 1014,9 hPa 0,0 mm 4,9 km/h (1 Bft) W-SW 237 ° 0 min 0,000 mm 0,0 UV-I 0 W/m² 1,8 °C 8,0 km/h (2 Bft)
20.10.2016 07:18 4,1 °C 4,1 °C 85 % 1014,8 hPa 0,0 mm 2,6 km/h (1 Bft) S-SW 195 ° 0 min 0,000 mm 0,0 UV-I 0 W/m² 1,8 °C 3,2 km/h (1 Bft)
20.10.2016 07:19 4,1 °C 4,1 °C 84 % 1014,8 hPa 0,0 mm 2,2 km/h (1 Bft) S 191 ° 0 min 0,000 mm 0,0 UV-I 0 W/m² 1,6 °C 3,2 km/h (1 Bft)
20.10.2016 07:20 4,2 °C 4,2 °C 84 % 1014,8 hPa 0,0 mm 2,6 km/h (1 Bft) S-SW 198 ° 0 min 0,000 mm 0,0 UV-I 0 W/m² 1,7 °C 4,8 km/h (1 Bft)
20.10.2016 07:21 4,2 °C 4,2 °C 84 % 1014,8 hPa 0,0 mm 3,1 km/h (1 Bft) S-SW 196 ° 0 min 0,000 mm 0,0 UV-I 0 W/m² 1,7 °C 4,8 km/h (1 Bft)
20.10.2016 07:22 4,2 °C 4,2 °C 84 % 1014,9 hPa 0,0 mm 2,7 km/h (1 Bft) S-SW 200 ° 0 min 0,000 mm 0,0 UV-I 0 W/m² 1,7 °C 4,8 km/h (1 Bft)
20.10.2016 07:23 4,2 °C 4,2 °C 84 % 1014,9 hPa 0,0 mm 2,5 km/h (1 Bft) S 184 ° 0 min 0,000 mm 0,0 UV-I 0 W/m² 1,7 °C 4,8 km/h (1 Bft)
20.10.2016 07:24 4,2 °C 4,2 °C 84 % 1014,9 hPa 0,0 mm 2,6 km/h (1 Bft) S 183 ° 0 min 0,000 mm 0,0 UV-I 0 W/m² 1,7 °C 4,8 km/h (1 Bft)
20.10.2016 07:25 4,2 °C 4,2 °C 84 % 1014,9 hPa 0,0 mm 2,3 km/h (1 Bft) S 183 ° 0 min 0,000 mm 0,0 UV-I 0 W/m² 1,7 °C 3,2 km/h (1 Bft)
20.10.2016 07:26 4,2 °C 4,2 °C 84 % 1014,9 hPa 0,0 mm 0,5 km/h (0 Bft) S 183 ° 0 min 0,000 mm 0,0 UV-I 0 W/m² 1,7 °C 1,6 km/h (1 Bft)
20.10.2016 07:27 4,2 °C 4,2 °C 84 % 1014,9 hPa 0,0 mm 1,9 km/h (1 Bft) S 184 ° 0 min 0,000 mm 0,0 UV-I 0 W/m² 1,7 °C 4,8 km/h (1 Bft)
20.10.2016 07:28 4,2 °C 4,2 °C 84 % 1014,9 hPa 0,0 mm 3,4 km/h (1 Bft) S 173 ° 0 min 0,000 mm 0,0 UV-I 0 W/m² 1,7 °C 4,8 km/h (1 Bft)
20.10.2016 07:29 4,1 °C 4,2 °C 84 % 1014,8 hPa 0,0 mm 3,0 km/h (1 Bft) S-SW 212 ° 0 min 0,000 mm 0,0 UV-I 0 W/m² 1,6 °C 3,2 km/h (1 Bft)
20.10.2016 07:30 4,1 °C 4,1 °C 84 % 1014,9 hPa 0,0 mm 2,1 km/h (1 Bft) SW 215 ° 0 min 0,000 mm 0,0 UV-I 0 W/m² 1,6 °C 3,2 km/h (1 Bft)
20.10.2016 07:31 4,1 °C 4,1 °C 84 % 1014,9 hPa 0,0 mm 2,6 km/h (1 Bft) S-SW 209 ° 0 min 0,000 mm 0,0 UV-I 0 W/m² 1,6 °C 4,8 km/h (1 Bft)
20.10.2016 07:32 4,1 °C 4,1 °C 84 % 1014,9 hPa 0,0 mm 2,1 km/h (1 Bft) S-SW 209 ° 0 min 0,000 mm 0,0 UV-I 0 W/m² 1,6 °C 4,8 km/h (1 Bft)
20.10.2016 07:33 4,0 °C 4,1 °C 86 % 1014,9 hPa 0,0 mm 1,5 km/h (1 Bft) S-SW 209 ° 0 min 0,000 mm 0,0 UV-I 0 W/m² 1,9 °C 3,2 km/h (1 Bft)
20.10.2016 07:34 3,9 °C 4,0 °C 86 % 1014,8 hPa 0,0 mm 1,9 km/h (1 Bft) S-SW 209 ° 0 min 0,000 mm 0,0 UV-I 0 W/m² 1,8 °C 3,2 km/h (1 Bft)
20.10.2016 07:35 3,8 °C 3,9 °C 86 % 1014,9 hPa 0,0 mm 0,5 km/h (0 Bft) S-SW 209 ° 0 min 0,000 mm 0,0 UV-I 0 W/m² 1,7 °C 3,2 km/h (1 Bft)
20.10.2016 07:36 3,7 °C 3,8 °C 87 % 1014,9 hPa 0,0 mm 0,6 km/h (0 Bft) S-SW 209 ° 0 min 0,000 mm 0,0 UV-I 0 W/m² 1,7 °C 1,6 km/h (1 Bft)
20.10.2016 07:37 3,7 °C 3,7 °C 87 % 1014,9 hPa 0,0 mm 0,4 km/h (0 Bft) S-SW 209 ° 0 min 0,000 mm 0,0 UV-I 0 W/m² 1,7 °C 1,6 km/h (1 Bft)
20.10.2016 07:38 3,6 °C 3,7 °C 87 % 1014,9 hPa 0,0 mm 0,0 km/h (0 Bft) S-SW 209 ° 0 min 0,000 mm 0,0 UV-I 0 W/m² 1,6 °C 0,0 km/h (0 Bft)
20.10.2016 07:39 3,6 °C 3,6 °C 88 % 1014,9 hPa 0,0 mm 1,8 km/h (1 Bft) S-SW 209 ° 0 min 0,000 mm 0,0 UV-I 0 W/m² 1,8 °C 3,2 km/h (1 Bft)
20.10.2016 07:40 3,6 °C 3,6 °C 88 % 1014,9 hPa 0,0 mm 1,1 km/h (1 Bft) S-SW 209 ° 0 min 0,000 mm 0,0 UV-I 0 W/m² 1,8 °C 1,6 km/h (1 Bft)
20.10.2016 07:41 3,5 °C 3,6 °C 87 % 1014,9 hPa 0,0 mm 0,5 km/h (0 Bft) S-SW 209 ° 0 min 0,000 mm 0,0 UV-I 0 W/m² 1,5 °C 1,6 km/h (1 Bft)
20.10.2016 07:42 3,5 °C 3,5 °C 87 % 1014,9 hPa 0,0 mm 1,7 km/h (1 Bft) W-SW 254 ° 0 min 0,000 mm 0,0 UV-I 0 W/m² 1,5 °C 4,8 km/h (1 Bft)
20.10.2016 07:43 3,4 °C 3,5 °C 87 % 1014,9 hPa 0,0 mm 1,1 km/h (1 Bft) W-SW 254 ° 0 min 0,000 mm 0,0 UV-I 0 W/m² 1,4 °C 3,2 km/h (1 Bft)
20.10.2016 07:44 3,3 °C 3,4 °C 87 % 1015,0 hPa 0,0 mm 0,0 km/h (0 Bft) W-SW 254 ° 0 min 0,000 mm 0,0 UV-I 0 W/m² 1,3 °C 0,0 km/h (0 Bft)
20.10.2016 07:45 3,3 °C 3,3 °C 88 % 1014,9 hPa 0,0 mm 0,4 km/h (0 Bft) W-SW 254 ° 0 min 0,000 mm 0,0 UV-I 0 W/m² 1,5 °C 3,2 km/h (1 Bft)
20.10.2016 07:46 3,3 °C 3,3 °C 88 % 1015,0 hPa 0,0 mm 0,4 km/h (0 Bft) S-SW 211 ° 0 min 0,000 mm 0,0 UV-I 0 W/m² 1,5 °C 1,6 km/h (1 Bft)
20.10.2016 07:47 3,3 °C 3,3 °C 88 % 1015,0 hPa 0,0 mm 1,7 km/h (1 Bft) S-SW 211 ° 0 min 0,000 mm 0,0 UV-I 0 W/m² 1,5 °C 3,2 km/h (1 Bft)
20.10.2016 07:48 3,3 °C 3,3 °C 89 % 1015,0 hPa 0,0 mm 3,8 km/h (1 Bft) S 191 ° 0 min 0,000 mm 0,0 UV-I 0 W/m² 1,7 °C 4,8 km/h (1 Bft)
20.10.2016 07:49 3,3 °C 3,3 °C 88 % 1015,0 hPa 0,0 mm 3,6 km/h (1 Bft) S-SW 195 ° 0 min 0,000 mm 0,0 UV-I 0 W/m² 1,5 °C 6,4 km/h (2 Bft)
20.10.2016 07:50 3,4 °C 3,4 °C 88 % 1014,9 hPa 0,0 mm 2,6 km/h (1 Bft) S-SW 211 ° 0 min 0,000 mm 0,0 UV-I 0 W/m² 1,6 °C 4,8 km/h (1 Bft)
20.10.2016 07:51 3,3 °C 3,4 °C 88 % 1015,0 hPa 0,0 mm 0,6 km/h (0 Bft) S-SW 211 ° 0 min 0,000 mm 0,0 UV-I 5 W/m² 1,5 °C 1,6 km/h (1 Bft)
20.10.2016 07:52 3,3 °C 3,3 °C 88 % 1015,0 hPa 0,0 mm 0,2 km/h (0 Bft) S-SW 211 ° 0 min 0,000 mm 0,0 UV-I 5 W/m² 1,5 °C 1,6 km/h (1 Bft)
20.10.2016 07:53 3,3 °C 3,3 °C 88 % 1015,0 hPa 0,0 mm 1,2 km/h (1 Bft) S-SW 211 ° 0 min 0,000 mm 0,0 UV-I 5 W/m² 1,5 °C 1,6 km/h (1 Bft)
20.10.2016 07:54 3,3 °C 3,3 °C 87 % 1015,0 hPa 0,0 mm 1,6 km/h (1 Bft) S-SW 211 ° 0 min 0,000 mm 0,0 UV-I 5 W/m² 1,3 °C 1,6 km/h (1 Bft)
20.10.2016 07:55 3,3 °C 3,3 °C 88 % 1015,0 hPa 0,0 mm 1,1 km/h (1 Bft) S-SW 211 ° 0 min 0,000 mm 0,0 UV-I 5 W/m² 1,5 °C 1,6 km/h (1 Bft)
20.10.2016 07:56 3,3 °C 3,3 °C 88 % 1015,0 hPa 0,0 mm 1,1 km/h (1 Bft) S-SW 211 ° 0 min 0,000 mm 0,0 UV-I 5 W/m² 1,5 °C 1,6 km/h (1 Bft)
20.10.2016 07:57 3,2 °C 3,3 °C 88 % 1015,0 hPa 0,0 mm 0,3 km/h (0 Bft) S-SW 211 ° 0 min 0,000 mm 0,0 UV-I 5 W/m² 1,4 °C 1,6 km/h (1 Bft)
20.10.2016 07:58 3,2 °C 3,3 °C 88 % 1015,0 hPa 0,0 mm 1,1 km/h (1 Bft) S-SW 211 ° 0 min 0,000 mm 0,0 UV-I 5 W/m² 1,4 °C 3,2 km/h (1 Bft)
20.10.2016 07:59 3,2 °C 3,3 °C 88 % 1015,0 hPa 0,0 mm 2,2 km/h (1 Bft) S-SW 211 ° 0 min 0,000 mm 0,0 UV-I 7 W/m² 1,4 °C 4,8 km/h (1 Bft)
20.10.2016 08:00 3,3 °C 3,3 °C 88 % 1015,0 hPa 0,0 mm 2,1 km/h (1 Bft) S-SW 211 ° 0 min 0,000 mm 0,0 UV-I 7 W/m² 1,5 °C 4,8 km/h (1 Bft)
20.10.2016 08:01 3,2 °C 3,3 °C 88 % 1015,0 hPa 0,0 mm 2,0 km/h (1 Bft) S-SW 211 ° 0 min 0,000 mm 0,0 UV-I 11 W/m² 1,4 °C 3,2 km/h (1 Bft)
20.10.2016 08:02 3,2 °C 3,2 °C 88 % 1015,1 hPa 0,0 mm 1,8 km/h (1 Bft) S-SW 211 ° 0 min 0,000 mm 0,0 UV-I 11 W/m² 1,4 °C 3,2 km/h (1 Bft)
20.10.2016 08:03 3,2 °C 3,2 °C 89 % 1015,1 hPa 0,0 mm 1,7 km/h (1 Bft) S-SW 211 ° 0 min 0,000 mm 0,0 UV-I 12 W/m² 1,6 °C 3,2 km/h (1 Bft)
20.10.2016 08:04 3,2 °C 3,2 °C 89 % 1015,1 hPa 0,0 mm 2,0 km/h (1 Bft) S-SW 211 ° 0 min 0,000 mm 0,0 UV-I 12 W/m² 1,6 °C 3,2 km/h (1 Bft)
20.10.2016 08:05 3,3 °C 3,3 °C 89 % 1015,1 hPa 0,0 mm 2,1 km/h (1 Bft) S-SW 211 ° 0 min 0,000 mm 0,0 UV-I 14 W/m² 1,7 °C 3,2 km/h (1 Bft)
20.10.2016 08:06 3,3 °C 3,3 °C 89 % 1015,0 hPa 0,0 mm 1,1 km/h (1 Bft) S-SW 211 ° 0 min 0,000 mm 0,0 UV-I 14 W/m² 1,7 °C 3,2 km/h (1 Bft)
20.10.2016 08:07 3,3 °C 3,3 °C 89 % 1015,0 hPa 0,0 mm 0,5 km/h (0 Bft) S-SW 211 ° 0 min 0,000 mm 0,0 UV-I 14 W/m² 1,7 °C 1,6 km/h (1 Bft)
20.10.2016 08:08 3,3 °C 3,3 °C 89 % 1015,1 hPa 0,0 mm 0,0 km/h (0 Bft) S-SW 211 ° 0 min 0,000 mm 0,0 UV-I 16 W/m² 1,7 °C 0,0 km/h (0 Bft)
20.10.2016 08:09 3,3 °C 3,3 °C 89 % 1015,1 hPa 0,0 mm 0,1 km/h (0 Bft) S-SW 211 ° 0 min 0,000 mm 0,0 UV-I 16 W/m² 1,7 °C 1,6 km/h (1 Bft)
20.10.2016 08:10 3,3 °C 3,3 °C 89 % 1015,1 hPa 0,0 mm 0,4 km/h (0 Bft) S-SW 211 ° 0 min 0,000 mm 0,0 UV-I 16 W/m² 1,7 °C 1,6 km/h (1 Bft)
20.10.2016 08:11 3,3 °C 3,3 °C 89 % 1015,0 hPa 0,0 mm 0,3 km/h (0 Bft) S-SW 211 ° 0 min 0,000 mm 0,0 UV-I 16 W/m² 1,7 °C 1,6 km/h (1 Bft)
20.10.2016 08:12 3,3 °C 3,3 °C 89 % 1015,1 hPa 0,0 mm 0,8 km/h (0 Bft) S-SW 211 ° 0 min 0,000 mm 0,0 UV-I 16 W/m² 1,7 °C 1,6 km/h (1 Bft)
20.10.2016 08:13 3,3 °C 3,3 °C 89 % 1015,1 hPa 0,0 mm 1,0 km/h (0 Bft) S-SW 211 ° 0 min 0,000 mm 0,0 UV-I 16 W/m² 1,7 °C 3,2 km/h (1 Bft)
20.10.2016 08:14 3,3 °C 3,3 °C 89 % 1015,1 hPa 0,0 mm 1,2 km/h (1 Bft) S-SW 211 ° 0 min 0,000 mm 0,0 UV-I 18 W/m² 1,7 °C 1,6 km/h (1 Bft)
20.10.2016 08:15 3,3 °C 3,3 °C 89 % 1015,1 hPa 0,0 mm 1,3 km/h (1 Bft) S-SW 211 ° 0 min 0,000 mm 0,0 UV-I 19 W/m² 1,7 °C 3,2 km/h (1 Bft)
20.10.2016 08:16 3,2 °C 3,3 °C 89 % 1015,1 hPa 0,0 mm 0,7 km/h (0 Bft) S-SW 211 ° 0 min 0,000 mm 0,0 UV-I 19 W/m² 1,6 °C 1,6 km/h (1 Bft)
20.10.2016 08:17 3,2 °C 3,2 °C 90 % 1015,1 hPa 0,0 mm 1,3 km/h (1 Bft) O 86 ° 0 min 0,000 mm 0,0 UV-I 21 W/m² 1,7 °C 3,2 km/h (1 Bft)
20.10.2016 08:18 3,1 °C 3,2 °C 90 % 1015,1 hPa 0,0 mm 3,1 km/h (1 Bft) O 83 ° 0 min 0,000 mm 0,0 UV-I 23 W/m² 1,6 °C 4,8 km/h (1 Bft)
20.10.2016 08:19 3,2 °C 3,2 °C 90 % 1015,1 hPa 0,0 mm 0,9 km/h (0 Bft) O 83 ° 0 min 0,000 mm 0,0 UV-I 25 W/m² 1,7 °C 1,6 km/h (1 Bft)
20.10.2016 08:20 3,2 °C 3,2 °C 90 % 1015,1 hPa 0,0 mm 0,6 km/h (0 Bft) O 83 ° 0 min 0,000 mm 0,0 UV-I 28 W/m² 1,7 °C 1,6 km/h (1 Bft)
20.10.2016 08:21 3,2 °C 3,2 °C 90 % 1015,0 hPa 0,0 mm 0,8 km/h (0 Bft) O 83 ° 0 min 0,000 mm 0,0 UV-I 30 W/m² 1,7 °C 1,6 km/h (1 Bft)
20.10.2016 08:22 3,2 °C 3,2 °C 90 % 1015,1 hPa 0,0 mm 0,6 km/h (0 Bft) O 83 ° 0 min 0,000 mm 0,0 UV-I 30 W/m² 1,7 °C 1,6 km/h (1 Bft)
20.10.2016 08:23 3,2 °C 3,2 °C 90 % 1015,1 hPa 0,0 mm 0,0 km/h (0 Bft) O 83 ° 0 min 0,000 mm 0,0 UV-I 30 W/m² 1,7 °C 0,0 km/h (0 Bft)
20.10.2016 08:24 3,2 °C 3,2 °C 90 % 1015,1 hPa 0,0 mm 0,9 km/h (0 Bft) O 83 ° 0 min 0,000 mm 0,0 UV-I 32 W/m² 1,7 °C 1,6 km/h (1 Bft)
20.10.2016 08:25 3,2 °C 3,2 °C 90 % 1015,1 hPa 0,0 mm 0,4 km/h (0 Bft) O 83 ° 0 min 0,000 mm 0,0 UV-I 32 W/m² 1,7 °C 1,6 km/h (1 Bft)
20.10.2016 08:26 3,2 °C 3,2 °C 90 % 1015,1 hPa 0,0 mm 1,1 km/h (1 Bft) O 83 ° 0 min 0,000 mm 0,0 UV-I 32 W/m² 1,7 °C 1,6 km/h (1 Bft)
20.10.2016 08:27 3,3 °C 3,3 °C 90 % 1015,0 hPa 0,0 mm 2,0 km/h (1 Bft) O 83 ° 0 min 0,000 mm 0,0 UV-I 32 W/m² 1,8 °C 3,2 km/h (1 Bft)
20.10.2016 08:28 3,3 °C 3,3 °C 90 % 1015,0 hPa 0,0 mm 1,1 km/h (1 Bft) O 83 ° 0 min 0,000 mm 0,0 UV-I 32 W/m² 1,8 °C 3,2 km/h (1 Bft)
20.10.2016 08:29 3,3 °C 3,3 °C 90 % 1015,1 hPa 0,0 mm 2,7 km/h (1 Bft) O 83 ° 0 min 0,000 mm 0,0 UV-I 35 W/m² 1,8 °C 3,2 km/h (1 Bft)
20.10.2016 08:30 3,3 °C 3,3 °C 90 % 1015,1 hPa 0,0 mm 2,3 km/h (1 Bft) O 83 ° 0 min 0,000 mm 0,0 UV-I 37 W/m² 1,8 °C 4,8 km/h (1 Bft)
20.10.2016 08:31 3,3 °C 3,3 °C 90 % 1015,1 hPa 0,0 mm 1,1 km/h (1 Bft) O 84 ° 0 min 0,000 mm 0,0 UV-I 40 W/m² 1,8 °C 3,2 km/h (1 Bft)
20.10.2016 08:32 3,3 °C 3,3 °C 89 % 1015,1 hPa 0,0 mm 1,2 km/h (1 Bft) O 84 ° 0 min 0,000 mm 0,0 UV-I 40 W/m² 1,7 °C 1,6 km/h (1 Bft)
20.10.2016 08:33 3,4 °C 3,4 °C 89 % 1015,1 hPa 0,0 mm 1,3 km/h (1 Bft) O 84 ° 0 min 0,000 mm 0,0 UV-I 39 W/m² 1,8 °C 1,6 km/h (1 Bft)
20.10.2016 08:34 3,4 °C 3,5 °C 89 % 1015,1 hPa 0,0 mm 0,1 km/h (0 Bft) O 84 ° 0 min 0,000 mm 0,0 UV-I 39 W/m² 1,8 °C 1,6 km/h (1 Bft)
20.10.2016 08:35 3,4 °C 3,4 °C 88 % 1015,1 hPa 0,0 mm 0,0 km/h (0 Bft) O 84 ° 0 min 0,000 mm 0,0 UV-I 44 W/m² 1,6 °C 0,0 km/h (0 Bft)
20.10.2016 08:36 3,4 °C 3,5 °C 88 % 1015,0 hPa 0,0 mm 0,0 km/h (0 Bft) O 84 ° 0 min 0,000 mm 0,0 UV-I 44 W/m² 1,6 °C 0,0 km/h (0 Bft)
20.10.2016 08:37 3,4 °C 3,4 °C 88 % 1015,1 hPa 0,0 mm 2,3 km/h (1 Bft) O 84 ° 0 min 0,000 mm 0,0 UV-I 44 W/m² 1,6 °C 3,2 km/h (1 Bft)
20.10.2016 08:38 3,4 °C 3,4 °C 89 % 1015,1 hPa 0,0 mm 1,9 km/h (1 Bft) O 84 ° 0 min 0,000 mm 0,0 UV-I 44 W/m² 1,8 °C 3,2 km/h (1 Bft)
20.10.2016 08:39 3,4 °C 3,5 °C 89 % 1015,1 hPa 0,0 mm 1,0 km/h (0 Bft) O 84 ° 0 min 0,000 mm 0,0 UV-I 44 W/m² 1,8 °C 1,6 km/h (1 Bft)
20.10.2016 08:40 3,4 °C 3,4 °C 89 % 1015,0 hPa 0,0 mm 0,5 km/h (0 Bft) O 84 ° 0 min 0,000 mm 0,0 UV-I 46 W/m² 1,8 °C 1,6 km/h (1 Bft)
20.10.2016 08:41 3,4 °C 3,4 °C 89 % 1015,1 hPa 0,0 mm 0,5 km/h (0 Bft) O 84 ° 0 min 0,000 mm 0,0 UV-I 47 W/m² 1,8 °C 1,6 km/h (1 Bft)
20.10.2016 08:42 3,5 °C 3,5 °C 90 % 1015,1 hPa 0,0 mm 1,6 km/h (1 Bft) O 84 ° 0 min 0,000 mm 0,0 UV-I 47 W/m² 2,0 °C 3,2 km/h (1 Bft)
20.10.2016 08:43 3,6 °C 3,6 °C 90 % 1015,1 hPa 0,0 mm 2,8 km/h (1 Bft) O 84 ° 0 min 0,000 mm 0,0 UV-I 47 W/m² 2,1 °C 3,2 km/h (1 Bft)
20.10.2016 08:44 3,6 °C 3,6 °C 89 % 1015,1 hPa 0,0 mm 1,0 km/h (0 Bft) O 84 ° 0 min 0,000 mm 0,0 UV-I 47 W/m² 2,0 °C 3,2 km/h (1 Bft)
20.10.2016 08:45 3,7 °C 3,7 °C 89 % 1015,1 hPa 0,0 mm 0,1 km/h (0 Bft) O 84 ° 0 min 0,000 mm 0,0 UV-I 47 W/m² 2,1 °C 1,6 km/h (1 Bft)
20.10.2016 08:46 3,8 °C 3,8 °C 89 % 1015,1 hPa 0,0 mm 0,4 km/h (0 Bft) O 84 ° 0 min 0,000 mm 0,0 UV-I 46 W/m² 2,2 °C 1,6 km/h (1 Bft)
20.10.2016 08:47 3,8 °C 3,8 °C 89 % 1015,1 hPa 0,0 mm 1,1 km/h (1 Bft) O 84 ° 0 min 0,000 mm 0,0 UV-I 46 W/m² 2,2 °C 1,6 km/h (1 Bft)
20.10.2016 08:48 3,9 °C 3,9 °C 90 % 1015,1 hPa 0,0 mm 0,9 km/h (0 Bft) O 84 ° 0 min 0,000 mm 0,0 UV-I 47 W/m² 2,4 °C 1,6 km/h (1 Bft)
20.10.2016 08:49 4,0 °C 4,0 °C 89 % 1015,0 hPa 0,0 mm 1,5 km/h (1 Bft) NO 49 ° 0 min 0,000 mm 0,0 UV-I 49 W/m² 2,4 °C 4,8 km/h (1 Bft)
20.10.2016 08:50 4,0 °C 4,0 °C 89 % 1015,1 hPa 0,0 mm 2,0 km/h (1 Bft) NO 50 ° 0 min 0,000 mm 0,0 UV-I 49 W/m² 2,4 °C 3,2 km/h (1 Bft)
20.10.2016 08:51 4,1 °C 4,1 °C 88 % 1015,1 hPa 0,0 mm 0,3 km/h (0 Bft) NO 50 ° 0 min 0,000 mm 0,0 UV-I 53 W/m² 2,3 °C 1,6 km/h (1 Bft)
20.10.2016 08:52 4,2 °C 4,2 °C 87 % 1015,2 hPa 0,0 mm 0,0 km/h (0 Bft) NO 50 ° 0 min 0,000 mm 0,0 UV-I 56 W/m² 2,2 °C 0,0 km/h (0 Bft)
20.10.2016 08:53 4,3 °C 4,3 °C 88 % 1015,1 hPa 0,0 mm 0,7 km/h (0 Bft) NO 50 ° 0 min 0,000 mm 0,0 UV-I 58 W/m² 2,5 °C 1,6 km/h (1 Bft)
20.10.2016 08:54 4,3 °C 4,3 °C 87 % 1015,1 hPa 0,0 mm 1,9 km/h (1 Bft) NO 49 ° 0 min 0,000 mm 0,0 UV-I 60 W/m² 2,3 °C 3,2 km/h (1 Bft)
20.10.2016 08:55 4,3 °C 4,3 °C 87 % 1015,1 hPa 0,0 mm 2,1 km/h (1 Bft) NO 49 ° 0 min 0,000 mm 0,0 UV-I 60 W/m² 2,3 °C 3,2 km/h (1 Bft)
20.10.2016 08:56 4,4 °C 4,4 °C 87 % 1015,2 hPa 0,0 mm 1,5 km/h (1 Bft) NO 49 ° 0 min 0,000 mm 0,0 UV-I 58 W/m² 2,4 °C 3,2 km/h (1 Bft)
20.10.2016 08:57 4,4 °C 4,4 °C 86 % 1015,2 hPa 0,0 mm 0,5 km/h (0 Bft) NO 49 ° 0 min 0,000 mm 0,0 UV-I 56 W/m² 2,3 °C 1,6 km/h (1 Bft)
20.10.2016 08:58 4,5 °C 4,5 °C 87 % 1015,1 hPa 0,0 mm 1,7 km/h (1 Bft) NO 49 ° 0 min 0,000 mm 0,0 UV-I 54 W/m² 2,5 °C 3,2 km/h (1 Bft)
20.10.2016 08:59 4,6 °C 4,6 °C 86 % 1015,2 hPa 0,0 mm 0,5 km/h (0 Bft) NO 49 ° 0 min 0,000 mm 0,0 UV-I 53 W/m² 2,5 °C 1,6 km/h (1 Bft)
20.10.2016 09:00 4,6 °C 4,6 °C 86 % 1015,2 hPa 0,0 mm 1,2 km/h (1 Bft) NO 49 ° 0 min 0,000 mm 0,0 UV-I 53 W/m² 2,5 °C 1,6 km/h (1 Bft)
20.10.2016 09:01 4,6 °C 4,6 °C 86 % 1015,2 hPa 0,0 mm 1,0 km/h (0 Bft) NO 49 ° 0 min 0,025 mm 0,0 UV-I 53 W/m² 2,5 °C 3,2 km/h (1 Bft)
20.10.2016 09:02 4,6 °C 4,6 °C 86 % 1015,2 hPa 0,0 mm 2,3 km/h (1 Bft) NO 49 ° 0 min 0,000 mm 0,0 UV-I 53 W/m² 2,5 °C 3,2 km/h (1 Bft)
20.10.2016 09:03 4,6 °C 4,6 °C 86 % 1015,2 hPa 0,0 mm 1,3 km/h (1 Bft) NO 49 ° 0 min 0,000 mm 0,0 UV-I 53 W/m² 2,5 °C 3,2 km/h (1 Bft)
20.10.2016 09:04 4,6 °C 4,6 °C 85 % 1015,2 hPa 0,0 mm 0,9 km/h (0 Bft) NO 49 ° 0 min 0,000 mm 0,0 UV-I 51 W/m² 2,3 °C 1,6 km/h (1 Bft)
20.10.2016 09:05 4,7 °C 4,7 °C 85 % 1015,2 hPa 0,0 mm 1,1 km/h (1 Bft) NO 49 ° 0 min 0,000 mm 0,0 UV-I 49 W/m² 2,4 °C 1,6 km/h (1 Bft)
20.10.2016 09:06 4,7 °C 4,7 °C 85 % 1015,2 hPa 0,0 mm 0,7 km/h (0 Bft) NO 49 ° 0 min 0,000 mm 0,0 UV-I 46 W/m² 2,4 °C 1,6 km/h (1 Bft)
20.10.2016 09:07 4,7 °C 4,7 °C 85 % 1015,2 hPa 0,0 mm 0,3 km/h (0 Bft) NO 49 ° 0 min 0,000 mm 0,0 UV-I 44 W/m² 2,4 °C 1,6 km/h (1 Bft)
20.10.2016 09:08 4,7 °C 4,7 °C 85 % 1015,2 hPa 0,0 mm 0,9 km/h (0 Bft) NO 49 ° 0 min 0,000 mm 0,0 UV-I 44 W/m² 2,4 °C 1,6 km/h (1 Bft)
20.10.2016 09:09 4,7 °C 4,7 °C 86 % 1015,2 hPa 0,0 mm 2,3 km/h (1 Bft) NO 49 ° 0 min 0,000 mm 0,0 UV-I 46 W/m² 2,6 °C 3,2 km/h (1 Bft)
20.10.2016 09:10 4,6 °C 4,7 °C 86 % 1015,2 hPa 0,0 mm 0,8 km/h (0 Bft) NO 49 ° 0 min 0,000 mm 0,0 UV-I 46 W/m² 2,5 °C 3,2 km/h (1 Bft)
20.10.2016 09:11 4,6 °C 4,6 °C 86 % 1015,2 hPa 0,0 mm 0,0 km/h (0 Bft) NO 49 ° 0 min 0,000 mm 0,0 UV-I 42 W/m² 2,5 °C 0,0 km/h (0 Bft)
20.10.2016 09:12 4,4 °C 4,6 °C 86 % 1015,2 hPa 0,0 mm 0,0 km/h (0 Bft) NO 49 ° 0 min 0,000 mm 0,0 UV-I 37 W/m² 2,3 °C 0,0 km/h (0 Bft)
20.10.2016 09:13 4,4 °C 4,4 °C 86 % 1015,2 hPa 0,0 mm 0,5 km/h (0 Bft) NO 49 ° 0 min 0,000 mm 0,0 UV-I 35 W/m² 2,3 °C 1,6 km/h (1 Bft)
20.10.2016 09:14 4,3 °C 4,4 °C 86 % 1015,2 hPa 0,0 mm 0,0 km/h (0 Bft) NO 49 ° 0 min 0,000 mm 0,0 UV-I 39 W/m² 2,2 °C 0,0 km/h (0 Bft)
20.10.2016 09:15 4,3 °C 4,3 °C 86 % 1015,2 hPa 0,0 mm 0,9 km/h (0 Bft) NO 49 ° 0 min 0,000 mm 0,0 UV-I 42 W/m² 2,2 °C 3,2 km/h (1 Bft)
20.10.2016 09:16 4,4 °C 4,4 °C 85 % 1015,2 hPa 0,0 mm 1,5 km/h (1 Bft) NO 49 ° 0 min 0,000 mm 0,0 UV-I 47 W/m² 2,1 °C 1,6 km/h (1 Bft)
20.10.2016 09:17 4,4 °C 4,4 °C 86 % 1015,2 hPa 0,0 mm 1,5 km/h (1 Bft) NO 49 ° 0 min 0,000 mm 0,0 UV-I 44 W/m² 2,3 °C 3,2 km/h (1 Bft)
20.10.2016 09:18 4,4 °C 4,5 °C 87 % 1015,2 hPa 0,0 mm 0,9 km/h (0 Bft) NO 49 ° 0 min 0,000 mm 0,0 UV-I 39 W/m² 2,4 °C 1,6 km/h (1 Bft)
20.10.2016 09:19 4,4 °C 4,4 °C 85 % 1015,2 hPa 0,0 mm 0,0 km/h (0 Bft) NO 49 ° 0 min 0,000 mm 0,0 UV-I 33 W/m² 2,1 °C 0,0 km/h (0 Bft)
20.10.2016 09:20 4,4 °C 4,4 °C 86 % 1015,2 hPa 0,0 mm 0,0 km/h (0 Bft) NO 49 ° 0 min 0,000 mm 0,0 UV-I 32 W/m² 2,3 °C 0,0 km/h (0 Bft)
20.10.2016 09:21 4,5 °C 4,5 °C 85 % 1015,2 hPa 0,0 mm 0,3 km/h (0 Bft) NO 49 ° 0 min 0,000 mm 0,0 UV-I 30 W/m² 2,2 °C 1,6 km/h (1 Bft)
20.10.2016 09:22 4,5 °C 4,5 °C 86 % 1015,2 hPa 0,0 mm 0,0 km/h (0 Bft) NO 49 ° 0 min 0,000 mm 0,0 UV-I 30 W/m² 2,4 °C 0,0 km/h (0 Bft)
20.10.2016 09:23 4,4 °C 4,5 °C 86 % 1015,2 hPa 0,0 mm 0,4 km/h (0 Bft) NO 49 ° 0 min 0,000 mm 0,0 UV-I 32 W/m² 2,3 °C 1,6 km/h (1 Bft)
20.10.2016 09:24 4,4 °C 4,4 °C 86 % 1015,2 hPa 0,0 mm 0,0 km/h (0 Bft) NO 49 ° 0 min 0,000 mm 0,0 UV-I 30 W/m² 2,3 °C 0,0 km/h (0 Bft)
20.10.2016 09:25 4,4 °C 4,5 °C 85 % 1015,2 hPa 0,0 mm 0,0 km/h (0 Bft) NO 49 ° 0 min 0,000 mm 0,0 UV-I 30 W/m² 2,1 °C 0,0 km/h (0 Bft)
20.10.2016 09:26 4,5 °C 4,5 °C 86 % 1015,2 hPa 0,0 mm 0,0 km/h (0 Bft) NO 49 ° 0 min 0,000 mm 0,0 UV-I 30 W/m² 2,4 °C 0,0 km/h (0 Bft)
20.10.2016 09:27 4,6 °C 4,6 °C 86 % 1015,2 hPa 0,0 mm 0,0 km/h (0 Bft) NO 49 ° 0 min 0,000 mm 0,0 UV-I 33 W/m² 2,5 °C 0,0 km/h (0 Bft)
20.10.2016 09:28 4,6 °C 4,6 °C 85 % 1015,2 hPa 0,0 mm 0,0 km/h (0 Bft) NO 49 ° 0 min 0,000 mm 0,0 UV-I 33 W/m² 2,3 °C 0,0 km/h (0 Bft)
20.10.2016 09:29 4,6 °C 4,6 °C 85 % 1015,2 hPa 0,0 mm 0,0 km/h (0 Bft) NO 49 ° 0 min 0,000 mm 0,0 UV-I 35 W/m² 2,3 °C 0,0 km/h (0 Bft)
20.10.2016 09:30 4,7 °C 4,7 °C 85 % 1015,2 hPa 0,0 mm 0,0 km/h (0 Bft) NO 49 ° 0 min 0,000 mm 0,0 UV-I 33 W/m² 2,4 °C 0,0 km/h (0 Bft)
20.10.2016 09:31 4,7 °C 4,7 °C 85 % 1015,2 hPa 0,0 mm 0,0 km/h (0 Bft) NO 49 ° 0 min 0,000 mm 0,0 UV-I 33 W/m² 2,4 °C 0,0 km/h (0 Bft)
20.10.2016 09:32 4,8 °C 4,8 °C 85 % 1015,2 hPa 0,0 mm 0,0 km/h (0 Bft) NO 49 ° 0 min 0,000 mm 0,0 UV-I 33 W/m² 2,5 °C 0,0 km/h (0 Bft)
20.10.2016 09:33 4,8 °C 4,8 °C 85 % 1015,2 hPa 0,0 mm 1,1 km/h (1 Bft) NO 49 ° 0 min 0,000 mm 0,0 UV-I 32 W/m² 2,5 °C 3,2 km/h (1 Bft)
20.10.2016 09:34 4,9 °C 4,9 °C 84 % 1015,2 hPa 0,0 mm 2,0 km/h (1 Bft) NO 49 ° 0 min 0,000 mm 0,0 UV-I 32 W/m² 2,4 °C 3,2 km/h (1 Bft)
20.10.2016 09:35 5,0 °C 5,0 °C 83 % 1015,2 hPa 0,0 mm 0,3 km/h (0 Bft) NO 49 ° 0 min 0,000 mm 0,0 UV-I 32 W/m² 2,4 °C 1,6 km/h (1 Bft)
20.10.2016 09:36 5,1 °C 5,1 °C 83 % 1015,2 hPa 0,0 mm 0,0 km/h (0 Bft) NO 49 ° 0 min 0,000 mm 0,0 UV-I 33 W/m² 2,5 °C 0,0 km/h (0 Bft)
20.10.2016 09:37 5,1 °C 5,1 °C 82 % 1015,1 hPa 0,0 mm 0,3 km/h (0 Bft) NO 49 ° 0 min 0,000 mm 0,0 UV-I 33 W/m² 2,3 °C 1,6 km/h (1 Bft)
20.10.2016 09:38 5,2 °C 5,2 °C 82 % 1015,2 hPa 0,0 mm 1,9 km/h (1 Bft) NO 49 ° 0 min 0,000 mm 0,0 UV-I 35 W/m² 2,4 °C 3,2 km/h (1 Bft)
20.10.2016 09:39 5,2 °C 5,2 °C 81 % 1015,2 hPa 0,0 mm 2,6 km/h (1 Bft) SO 130 ° 0 min 0,000 mm 0,0 UV-I 35 W/m² 2,2 °C 3,2 km/h (1 Bft)
20.10.2016 09:40 5,3 °C 5,3 °C 79 % 1015,2 hPa 0,0 mm 5,1 km/h (1 Bft) S 176 ° 0 min 0,000 mm 0,0 UV-I 37 W/m² 2,0 °C 11,3 km/h (2 Bft)
20.10.2016 09:41 5,5 °C 5,5 °C 78 % 1015,1 hPa 0,0 mm 7,7 km/h (2 Bft) S-SW 196 ° 0 min 0,000 mm 0,0 UV-I 35 W/m² 2,0 °C 9,7 km/h (2 Bft)
20.10.2016 09:42 5,7 °C 5,7 °C 76 % 1015,2 hPa 0,0 mm 5,7 km/h (1 Bft) S 173 ° 0 min 0,000 mm 0,0 UV-I 33 W/m² 1,8 °C 8,0 km/h (2 Bft)
20.10.2016 09:43 5,8 °C 5,8 °C 76 % 1015,1 hPa 0,0 mm 2,8 km/h (1 Bft) S 191 ° 0 min 0,000 mm 0,0 UV-I 33 W/m² 1,9 °C 3,2 km/h (1 Bft)
20.10.2016 09:44 5,8 °C 5,9 °C 77 % 1015,1 hPa 0,0 mm 0,3 km/h (0 Bft) S 191 ° 0 min 0,000 mm 0,0 UV-I 35 W/m² 2,1 °C 1,6 km/h (1 Bft)
20.10.2016 09:45 5,8 °C 5,9 °C 78 % 1015,1 hPa 0,0 mm 1,4 km/h (1 Bft) W-SW 252 ° 0 min 0,000 mm 0,0 UV-I 35 W/m² 2,3 °C 1,6 km/h (1 Bft)
20.10.2016 09:46 5,8 °C 5,8 °C 78 % 1015,1 hPa 0,0 mm 3,4 km/h (1 Bft) W-NW 282 ° 0 min 0,000 mm 0,0 UV-I 35 W/m² 2,3 °C 4,8 km/h (1 Bft)
20.10.2016 09:47 5,8 °C 5,8 °C 78 % 1015,1 hPa 0,0 mm 2,5 km/h (1 Bft) W-NW 284 ° 0 min 0,000 mm 0,0 UV-I 37 W/m² 2,3 °C 4,8 km/h (1 Bft)
20.10.2016 09:48 5,7 °C 5,8 °C 79 % 1015,1 hPa 0,0 mm 2,8 km/h (1 Bft) W-NW 296 ° 0 min 0,000 mm 0,0 UV-I 35 W/m² 2,3 °C 4,8 km/h (1 Bft)
20.10.2016 09:49 5,7 °C 5,7 °C 78 % 1015,1 hPa 0,0 mm 1,2 km/h (1 Bft) W-NW 296 ° 0 min 0,000 mm 0,0 UV-I 35 W/m² 2,2 °C 3,2 km/h (1 Bft)
20.10.2016 09:50 5,7 °C 5,7 °C 78 % 1015,1 hPa 0,0 mm 3,0 km/h (1 Bft) W-NW 296 ° 0 min 0,000 mm 0,0 UV-I 35 W/m² 2,2 °C 3,2 km/h (1 Bft)
20.10.2016 09:51 5,8 °C 5,8 °C 78 % 1015,1 hPa 0,0 mm 3,5 km/h (1 Bft) W-NW 296 ° 0 min 0,000 mm 0,0 UV-I 37 W/m² 2,3 °C 4,8 km/h (1 Bft)
20.10.2016 09:52 5,8 °C 5,8 °C 78 % 1015,1 hPa 0,0 mm 2,7 km/h (1 Bft) W-NW 295 ° 0 min 0,000 mm 0,0 UV-I 37 W/m² 2,3 °C 3,2 km/h (1 Bft)
20.10.2016 09:53 5,8 °C 5,8 °C 77 % 1015,1 hPa 0,0 mm 2,3 km/h (1 Bft) W-NW 295 ° 0 min 0,000 mm 0,0 UV-I 37 W/m² 2,1 °C 3,2 km/h (1 Bft)
20.10.2016 09:54 5,9 °C 5,9 °C 78 % 1015,1 hPa 0,0 mm 1,1 km/h (1 Bft) W 269 ° 0 min 0,000 mm 0,0 UV-I 37 W/m² 2,4 °C 1,6 km/h (1 Bft)
20.10.2016 09:55 5,9 °C 5,9 °C 77 % 1015,1 hPa 0,0 mm 2,0 km/h (1 Bft) W 269 ° 0 min 0,000 mm 0,0 UV-I 40 W/m² 2,2 °C 3,2 km/h (1 Bft)
20.10.2016 09:56 5,9 °C 5,9 °C 77 % 1015,1 hPa 0,0 mm 1,1 km/h (1 Bft) W 269 ° 0 min 0,000 mm 0,0 UV-I 49 W/m² 2,2 °C 1,6 km/h (1 Bft)
20.10.2016 09:57 5,9 °C 5,9 °C 77 % 1015,1 hPa 0,0 mm 0,1 km/h (0 Bft) W 269 ° 0 min 0,000 mm 0,0 UV-I 51 W/m² 2,2 °C 1,6 km/h (1 Bft)
20.10.2016 09:58 5,9 °C 6,0 °C 77 % 1015,1 hPa 0,0 mm 0,8 km/h (0 Bft) W 269 ° 0 min 0,000 mm 0,0 UV-I 53 W/m² 2,2 °C 3,2 km/h (1 Bft)
20.10.2016 09:59 5,9 °C 5,9 °C 78 % 1015,1 hPa 0,0 mm 2,9 km/h (1 Bft) W 262 ° 0 min 0,000 mm 0,9 UV-I 56 W/m² 2,4 °C 4,8 km/h (1 Bft)
20.10.2016 10:00 6,0 °C 6,0 °C 77 % 1015,1 hPa 0,0 mm 2,2 km/h (1 Bft) W 262 ° 0 min 0,000 mm 0,9 UV-I 56 W/m² 2,3 °C 4,8 km/h (1 Bft)
20.10.2016 10:01 6,1 °C 6,1 °C 76 % 1015,1 hPa 0,0 mm 2,2 km/h (1 Bft) S-SW 205 ° 0 min 0,025 mm 0,0 UV-I 54 W/m² 2,2 °C 3,2 km/h (1 Bft)
20.10.2016 10:02 6,2 °C 6,2 °C 77 % 1015,1 hPa 0,0 mm 2,9 km/h (1 Bft) S-SW 205 ° 0 min 0,001 mm 0,0 UV-I 54 W/m² 2,5 °C 3,2 km/h (1 Bft)
20.10.2016 10:03 6,3 °C 6,3 °C 77 % 1015,1 hPa 0,0 mm 2,5 km/h (1 Bft) S-SW 205 ° 0 min 0,000 mm 0,0 UV-I 56 W/m² 2,6 °C 4,8 km/h (1 Bft)
20.10.2016 10:04 6,3 °C 6,3 °C 77 % 1015,1 hPa 0,0 mm 2,5 km/h (1 Bft) W 259 ° 0 min 0,000 mm 0,9 UV-I 60 W/m² 2,6 °C 6,4 km/h (2 Bft)
20.10.2016 10:05 6,3 °C 6,3 °C 77 % 1015,0 hPa 0,0 mm 5,5 km/h (1 Bft) W-SW 249 ° 0 min 0,000 mm 0,9 UV-I 63 W/m² 2,6 °C 8,0 km/h (2 Bft)
20.10.2016 10:06 6,4 °C 6,4 °C 77 % 1015,1 hPa 0,0 mm 5,4 km/h (1 Bft) W-SW 252 ° 0 min 0,000 mm 0,9 UV-I 67 W/m² 2,7 °C 11,3 km/h (2 Bft)
20.10.2016 10:07 6,4 °C 6,4 °C 77 % 1015,0 hPa 0,0 mm 2,3 km/h (1 Bft) W-SW 252 ° 0 min 0,000 mm 0,9 UV-I 70 W/m² 2,7 °C 3,2 km/h (1 Bft)
20.10.2016 10:08 6,4 °C 6,4 °C 77 % 1015,1 hPa 0,0 mm 4,1 km/h (1 Bft) W-SW 251 ° 0 min 0,000 mm 0,9 UV-I 86 W/m² 2,7 °C 6,4 km/h (2 Bft)
20.10.2016 10:09 6,4 °C 6,4 °C 79 % 1015,1 hPa 0,0 mm 5,8 km/h (2 Bft) W-NW 283 ° 0 min 0,000 mm 1,0 UV-I 93 W/m² 3,0 °C 8,0 km/h (2 Bft)
20.10.2016 10:10 6,5 °C 6,5 °C 78 % 1015,1 hPa 0,0 mm 5,1 km/h (1 Bft) W 270 ° 0 min 0,000 mm 1,0 UV-I 102 W/m² 2,9 °C 11,3 km/h (2 Bft)
20.10.2016 10:11 6,6 °C 6,6 °C 78 % 1015,1 hPa 0,0 mm 4,7 km/h (1 Bft) W-SW 239 ° 0 min 0,000 mm 1,0 UV-I 109 W/m² 3,0 °C 6,4 km/h (2 Bft)
20.10.2016 10:12 6,7 °C 6,7 °C 77 % 1015,0 hPa 0,0 mm 2,7 km/h (1 Bft) S-SW 198 ° 0 min 0,000 mm 1,0 UV-I 123 W/m² 3,0 °C 4,8 km/h (1 Bft)
20.10.2016 10:13 6,8 °C 6,8 °C 78 % 1015,1 hPa 0,0 mm 4,6 km/h (1 Bft) W 261 ° 0 min 0,000 mm 1,0 UV-I 132 W/m² 3,2 °C 6,4 km/h (2 Bft)
20.10.2016 10:14 6,9 °C 6,9 °C 77 % 1015,0 hPa 0,0 mm 4,5 km/h (1 Bft) W 265 ° 0 min 0,000 mm 1,0 UV-I 148 W/m² 3,2 °C 9,7 km/h (2 Bft)
20.10.2016 10:15 6,9 °C 6,9 °C 76 % 1015,0 hPa 0,0 mm 5,1 km/h (1 Bft) W-SW 253 ° 0 min 0,000 mm 1,1 UV-I 155 W/m² 3,0 °C 8,0 km/h (2 Bft)
20.10.2016 10:16 7,1 °C 7,1 °C 76 % 1015,0 hPa 0,0 mm 2,2 km/h (1 Bft) W 263 ° 0 min 0,000 mm 1,1 UV-I 162 W/m² 3,2 °C 4,8 km/h (1 Bft)
20.10.2016 10:17 7,2 °C 7,2 °C 79 % 1015,0 hPa 0,0 mm 3,2 km/h (1 Bft) W 265 ° 0 min 0,000 mm 1,1 UV-I 162 W/m² 3,8 °C 4,8 km/h (1 Bft)
20.10.2016 10:18 7,2 °C 7,2 °C 78 % 1015,0 hPa 0,0 mm 2,6 km/h (1 Bft) W 265 ° 0 min 0,000 mm 1,1 UV-I 156 W/m² 3,6 °C 3,2 km/h (1 Bft)
20.10.2016 10:19 7,3 °C 7,3 °C 78 % 1015,0 hPa 0,0 mm 5,9 km/h (2 Bft) W-SW 246 ° 0 min 0,000 mm 1,1 UV-I 153 W/m² 3,7 °C 8,0 km/h (2 Bft)
20.10.2016 10:20 7,3 °C 7,4 °C 75 % 1015,0 hPa 0,0 mm 9,1 km/h (2 Bft) W-SW 238 ° 0 min 0,000 mm 1,1 UV-I 156 W/m² 3,2 °C 12,9 km/h (3 Bft)
20.10.2016 10:21 7,4 °C 7,4 °C 75 % 1015,0 hPa 0,0 mm 7,0 km/h (2 Bft) W 269 ° 0 min 0,000 mm 1,1 UV-I 160 W/m² 3,3 °C 11,3 km/h (2 Bft)
20.10.2016 10:22 7,4 °C 7,4 °C 73 % 1015,0 hPa 0,0 mm 3,8 km/h (1 Bft) W-NW 283 ° 0 min 0,000 mm 1,1 UV-I 165 W/m² 2,9 °C 6,4 km/h (2 Bft)
20.10.2016 10:23 7,5 °C 7,5 °C 75 % 1015,0 hPa 0,0 mm 3,4 km/h (1 Bft) W 281 ° 0 min 0,000 mm 1,1 UV-I 165 W/m² 3,4 °C 6,4 km/h (2 Bft)
20.10.2016 10:24 7,5 °C 7,5 °C 74 % 1015,0 hPa 0,0 mm 6,4 km/h (2 Bft) W 276 ° 0 min 0,000 mm 1,1 UV-I 160 W/m² 3,2 °C 11,3 km/h (2 Bft)
20.10.2016 10:25 7,5 °C 7,6 °C 75 % 1015,0 hPa 0,0 mm 6,6 km/h (2 Bft) W-SW 250 ° 0 min 0,000 mm 1,0 UV-I 148 W/m² 3,4 °C 9,7 km/h (2 Bft)
20.10.2016 10:26 7,6 °C 7,6 °C 74 % 1015,0 hPa 0,0 mm 4,9 km/h (1 Bft) W-SW 256 ° 0 min 0,000 mm 1,0 UV-I 127 W/m² 3,3 °C 6,4 km/h (2 Bft)
20.10.2016 10:27 7,6 °C 7,6 °C 73 % 1015,0 hPa 0,0 mm 6,3 km/h (2 Bft) W 271 ° 0 min 0,000 mm 1,0 UV-I 125 W/m² 3,1 °C 8,0 km/h (2 Bft)
20.10.2016 10:28 7,5 °C 7,6 °C 73 % 1015,1 hPa 0,0 mm 5,5 km/h (1 Bft) N-NW 329 ° 0 min 0,000 mm 1,0 UV-I 128 W/m² 3,0 °C 8,0 km/h (2 Bft)
20.10.2016 10:29 7,5 °C 7,5 °C 73 % 1015,0 hPa 0,0 mm 4,5 km/h (1 Bft) NW 312 ° 0 min 0,000 mm 1,1 UV-I 128 W/m² 3,0 °C 6,4 km/h (2 Bft)
20.10.2016 10:30 7,4 °C 7,5 °C 72 % 1015,0 hPa 0,0 mm 5,0 km/h (1 Bft) W 271 ° 0 min 0,000 mm 1,1 UV-I 121 W/m² 2,7 °C 6,4 km/h (2 Bft)
20.10.2016 10:31 7,5 °C 7,5 °C 74 % 1015,0 hPa 0,0 mm 3,4 km/h (1 Bft) W 270 ° 0 min 0,000 mm 1,1 UV-I 116 W/m² 3,2 °C 4,8 km/h (1 Bft)
20.10.2016 10:32 7,4 °C 7,5 °C 73 % 1015,0 hPa 0,0 mm 2,6 km/h (1 Bft) W 269 ° 0 min 0,000 mm 1,1 UV-I 121 W/m² 2,9 °C 3,2 km/h (1 Bft)
20.10.2016 10:33 7,4 °C 7,4 °C 74 % 1015,0 hPa 0,0 mm 4,5 km/h (1 Bft) W-NW 295 ° 0 min 0,000 mm 1,2 UV-I 132 W/m² 3,1 °C 6,4 km/h (2 Bft)
20.10.2016 10:34 7,5 °C 7,5 °C 75 % 1015,0 hPa 0,0 mm 7,5 km/h (2 Bft) W-NW 296 ° 0 min 0,000 mm 1,2 UV-I 130 W/m² 3,4 °C 14,5 km/h (3 Bft)
20.10.2016 10:35 7,5 °C 7,5 °C 75 % 1015,0 hPa 0,0 mm 5,2 km/h (1 Bft) NW 310 ° 0 min 0,000 mm 1,2 UV-I 132 W/m² 3,4 °C 12,9 km/h (3 Bft)
20.10.2016 10:36 7,4 °C 7,5 °C 75 % 1015,1 hPa 0,0 mm 5,4 km/h (1 Bft) NW 321 ° 0 min 0,000 mm 1,2 UV-I 132 W/m² 3,3 °C 11,3 km/h (2 Bft)
20.10.2016 10:37 7,5 °C 7,5 °C 76 % 1015,1 hPa 0,0 mm 11,6 km/h (2 Bft) W-NW 285 ° 0 min 0,000 mm 1,2 UV-I 134 W/m² 3,5 °C 14,5 km/h (3 Bft)
20.10.2016 10:38 7,4 °C 7,5 °C 76 % 1015,1 hPa 0,0 mm 4,8 km/h (1 Bft) W 281 ° 0 min 0,000 mm 1,2 UV-I 148 W/m² 3,5 °C 6,4 km/h (2 Bft)
20.10.2016 10:39 7,4 °C 7,4 °C 76 % 1015,1 hPa 0,0 mm 10,3 km/h (2 Bft) W 266 ° 0 min 0,000 mm 1,2 UV-I 139 W/m² 3,5 °C 16,1 km/h (3 Bft)
20.10.2016 10:40 7,4 °C 7,4 °C 75 % 1015,1 hPa 0,0 mm 14,9 km/h (3 Bft) W 277 ° 0 min 0,000 mm 1,2 UV-I 130 W/m² 3,3 °C 22,5 km/h (4 Bft)
20.10.2016 10:41 7,3 °C 7,4 °C 74 % 1015,1 hPa 0,0 mm 13,5 km/h (3 Bft) W-NW 285 ° 0 min 0,000 mm 1,2 UV-I 113 W/m² 3,0 °C 17,7 km/h (3 Bft)
20.10.2016 10:42 7,2 °C 7,3 °C 74 % 1015,1 hPa 0,0 mm 5,5 km/h (1 Bft) W-NW 302 ° 0 min 0,000 mm 1,2 UV-I 104 W/m² 2,9 °C 12,9 km/h (3 Bft)
20.10.2016 10:43 7,2 °C 7,2 °C 74 % 1015,1 hPa 0,0 mm 7,0 km/h (2 Bft) W 271 ° 0 min 0,000 mm 1,2 UV-I 104 W/m² 2,9 °C 12,9 km/h (3 Bft)
20.10.2016 10:44 7,2 °C 7,2 °C 75 % 1015,1 hPa 0,0 mm 10,3 km/h (2 Bft) W-NW 301 ° 0 min 0,000 mm 1,1 UV-I 90 W/m² 3,1 °C 16,1 km/h (3 Bft)
20.10.2016 10:45 7,1 °C 7,2 °C 76 % 1015,0 hPa 0,0 mm 11,7 km/h (2 Bft) W-SW 254 ° 0 min 0,000 mm 1,1 UV-I 56 W/m² 3,2 °C 17,7 km/h (3 Bft)
20.10.2016 10:46 7,1 °C 7,1 °C 75 % 1015,0 hPa 0,0 mm 11,6 km/h (2 Bft) NW 309 ° 0 min 0,000 mm 0,0 UV-I 40 W/m² 3,0 °C 17,7 km/h (3 Bft)
20.10.2016 10:47 6,9 °C 7,1 °C 75 % 1015,1 hPa 0,0 mm 7,4 km/h (2 Bft) W-NW 300 ° 0 min 0,000 mm 0,0 UV-I 40 W/m² 2,8 °C 12,9 km/h (3 Bft)
20.10.2016 10:48 6,9 °C 6,9 °C 76 % 1015,0 hPa 0,0 mm 6,7 km/h (2 Bft) W 276 ° 0 min 0,000 mm 0,0 UV-I 37 W/m² 3,0 °C 11,3 km/h (2 Bft)
20.10.2016 10:49 6,9 °C 6,9 °C 76 % 1015,0 hPa 0,0 mm 10,3 km/h (2 Bft) W-NW 303 ° 0 min 0,000 mm 0,0 UV-I 39 W/m² 3,0 °C 14,5 km/h (3 Bft)
20.10.2016 10:50 6,8 °C 6,9 °C 76 % 1015,0 hPa 0,0 mm 8,4 km/h (2 Bft) W 274 ° 0 min 0,000 mm 0,0 UV-I 33 W/m² 2,9 °C 12,9 km/h (3 Bft)
20.10.2016 10:51 6,7 °C 6,8 °C 75 % 1015,0 hPa 0,0 mm 5,1 km/h (1 Bft) W-NW 288 ° 0 min 0,000 mm 0,0 UV-I 30 W/m² 2,6 °C 9,7 km/h (2 Bft)
20.10.2016 10:52 6,7 °C 6,7 °C 76 % 1015,0 hPa 0,0 mm 11,3 km/h (2 Bft) NW 313 ° 0 min 0,000 mm 0,0 UV-I 28 W/m² 2,8 °C 22,5 km/h (4 Bft)
20.10.2016 10:53 6,6 °C 6,7 °C 76 % 1015,0 hPa 0,0 mm 7,5 km/h (2 Bft) W-NW 287 ° 0 min 0,000 mm 0,0 UV-I 35 W/m² 2,7 °C 11,3 km/h (2 Bft)
20.10.2016 10:54 6,6 °C 6,6 °C 76 % 1015,0 hPa 0,0 mm 9,0 km/h (2 Bft) W 279 ° 0 min 0,000 mm 0,0 UV-I 32 W/m² 2,7 °C 12,9 km/h (3 Bft)
20.10.2016 10:55 6,7 °C 6,7 °C 77 % 1015,0 hPa 0,0 mm 5,7 km/h (1 Bft) W 273 ° 0 min 0,000 mm 0,0 UV-I 39 W/m² 3,0 °C 11,3 km/h (2 Bft)
20.10.2016 10:56 6,7 °C 6,7 °C 77 % 1015,0 hPa 0,0 mm 12,1 km/h (2 Bft) W-NW 290 ° 0 min 0,000 mm 0,0 UV-I 42 W/m² 3,0 °C 20,9 km/h (4 Bft)
20.10.2016 10:57 6,7 °C 6,7 °C 78 % 1015,0 hPa 0,0 mm 16,2 km/h (3 Bft) W 277 ° 0 min 0,000 mm 0,0 UV-I 44 W/m² 3,1 °C 20,9 km/h (4 Bft)
20.10.2016 10:58 6,8 °C 6,8 °C 77 % 1015,0 hPa 0,0 mm 10,5 km/h (2 Bft) W-NW 298 ° 0 min 0,000 mm 0,0 UV-I 44 W/m² 3,1 °C 14,5 km/h (3 Bft)
20.10.2016 10:59 6,9 °C 6,9 °C 78 % 1015,0 hPa 0,0 mm 9,3 km/h (2 Bft) W-NW 299 ° 0 min 0,000 mm 0,0 UV-I 47 W/m² 3,3 °C 17,7 km/h (3 Bft)
20.10.2016 11:00 7,0 °C 7,0 °C 77 % 1015,0 hPa 0,0 mm 9,2 km/h (2 Bft) W 269 ° 0 min 0,000 mm 0,0 UV-I 49 W/m² 3,2 °C 16,1 km/h (3 Bft)
20.10.2016 11:01 7,1 °C 7,1 °C 77 % 1014,9 hPa 0,0 mm 7,4 km/h (2 Bft) NW 316 ° 0 min 0,050 mm 0,0 UV-I 60 W/m² 3,3 °C 12,9 km/h (3 Bft)
20.10.2016 11:02 7,2 °C 7,2 °C 76 % 1015,0 hPa 0,0 mm 5,0 km/h (1 Bft) W 281 ° 0 min 0,000 mm 1,2 UV-I 58 W/m² 3,3 °C 11,3 km/h (2 Bft)
20.10.2016 11:03 7,2 °C 7,2 °C 77 % 1015,0 hPa 0,0 mm 4,5 km/h (1 Bft) W 260 ° 0 min 0,000 mm 0,0 UV-I 49 W/m² 3,4 °C 6,4 km/h (2 Bft)
20.10.2016 11:04 7,2 °C 7,3 °C 76 % 1015,0 hPa 0,0 mm 10,0 km/h (2 Bft) W 281 ° 0 min 0,000 mm 0,0 UV-I 54 W/m² 3,3 °C 17,7 km/h (3 Bft)
20.10.2016 11:05 7,2 °C 7,2 °C 75 % 1015,0 hPa 0,0 mm 11,2 km/h (2 Bft) W 266 ° 0 min 0,000 mm 1,2 UV-I 77 W/m² 3,1 °C 19,3 km/h (3 Bft)
20.10.2016 11:06 7,2 °C 7,2 °C 75 % 1015,0 hPa 0,0 mm 9,1 km/h (2 Bft) W-SW 252 ° 0 min 0,000 mm 1,2 UV-I 91 W/m² 3,1 °C 14,5 km/h (3 Bft)
20.10.2016 11:07 7,2 °C 7,2 °C 75 % 1015,0 hPa 0,0 mm 11,3 km/h (2 Bft) W-NW 292 ° 0 min 0,000 mm 0,0 UV-I 58 W/m² 3,1 °C 17,7 km/h (3 Bft)
20.10.2016 11:08 7,2 °C 7,2 °C 75 % 1014,9 hPa 0,0 mm 11,8 km/h (2 Bft) W-NW 292 ° 0 min 0,000 mm 1,2 UV-I 69 W/m² 3,1 °C 16,1 km/h (3 Bft)
20.10.2016 11:09 7,1 °C 7,2 °C 75 % 1014,9 hPa 0,0 mm 10,7 km/h (2 Bft) W 271 ° 0 min 0,000 mm 1,2 UV-I 76 W/m² 3,0 °C 16,1 km/h (3 Bft)
20.10.2016 11:10 7,1 °C 7,1 °C 75 % 1014,9 hPa 0,0 mm 10,1 km/h (2 Bft) W-NW 300 ° 0 min 0,000 mm 1,2 UV-I 76 W/m² 3,0 °C 16,1 km/h (3 Bft)
20.10.2016 11:11 7,1 °C 7,1 °C 76 % 1014,9 hPa 0,0 mm 7,1 km/h (2 Bft) W 281 ° 0 min 0,000 mm 1,2 UV-I 76 W/m² 3,2 °C 16,1 km/h (3 Bft)
20.10.2016 11:12 7,0 °C 7,1 °C 76 % 1014,9 hPa 0,0 mm 9,1 km/h (2 Bft) W-NW 287 ° 0 min 0,000 mm 1,2 UV-I 79 W/m² 3,1 °C 11,3 km/h (2 Bft)
20.10.2016 11:13 7,0 °C 7,0 °C 76 % 1014,9 hPa 0,0 mm 11,3 km/h (2 Bft) W-NW 295 ° 0 min 0,000 mm 1,3 UV-I 125 W/m² 3,1 °C 16,1 km/h (3 Bft)
20.10.2016 11:14 6,9 °C 7,0 °C 77 % 1015,0 hPa 0,0 mm 8,0 km/h (2 Bft) W-NW 290 ° 0 min 0,000 mm 1,3 UV-I 151 W/m² 3,2 °C 11,3 km/h (2 Bft)
20.10.2016 11:15 6,9 °C 7,0 °C 77 % 1014,9 hPa 0,0 mm 12,3 km/h (3 Bft) W 281 ° 0 min 0,000 mm 1,3 UV-I 179 W/m² 3,2 °C 14,5 km/h (3 Bft)
20.10.2016 11:16 7,1 °C 7,1 °C 77 % 1015,0 hPa 0,0 mm 9,4 km/h (2 Bft) W 277 ° 0 min 0,000 mm 1,2 UV-I 179 W/m² 3,3 °C 16,1 km/h (3 Bft)
20.10.2016 11:17 7,1 °C 7,1 °C 77 % 1014,9 hPa 0,0 mm 12,6 km/h (3 Bft) W-NW 292 ° 0 min 0,000 mm 1,1 UV-I 169 W/m² 3,3 °C 19,3 km/h (3 Bft)
20.10.2016 11:18 7,2 °C 7,2 °C 77 % 1015,0 hPa 0,0 mm 15,2 km/h (3 Bft) W 271 ° 0 min 0,000 mm 1,0 UV-I 135 W/m² 3,4 °C 22,5 km/h (4 Bft)
20.10.2016 11:19 7,2 °C 7,2 °C 76 % 1015,0 hPa 0,0 mm 11,5 km/h (2 Bft) W-NW 284 ° 0 min 0,000 mm 0,9 UV-I 121 W/m² 3,3 °C 16,1 km/h (3 Bft)
20.10.2016 11:20 7,2 °C 7,2 °C 78 % 1015,1 hPa 0,0 mm 10,1 km/h (2 Bft) W-SW 247 ° 0 min 0,000 mm 0,7 UV-I 109 W/m² 3,6 °C 16,1 km/h (3 Bft)
20.10.2016 11:21 7,3 °C 7,3 °C 77 % 1015,0 hPa 0,0 mm 12,4 km/h (3 Bft) NW 310 ° 0 min 0,000 mm 0,7 UV-I 102 W/m² 3,5 °C 22,5 km/h (4 Bft)
20.10.2016 11:22 7,2 °C 7,3 °C 77 % 1014,9 hPa 0,0 mm 13,5 km/h (3 Bft) W-NW 296 ° 0 min 0,000 mm 0,8 UV-I 102 W/m² 3,4 °C 17,7 km/h (3 Bft)
20.10.2016 11:23 7,2 °C 7,2 °C 77 % 1014,9 hPa 0,0 mm 10,7 km/h (2 Bft) W-SW 237 ° 0 min 0,000 mm 0,9 UV-I 109 W/m² 3,4 °C 14,5 km/h (3 Bft)
20.10.2016 11:24 7,2 °C 7,2 °C 77 % 1015,0 hPa 0,0 mm 13,3 km/h (3 Bft) NW 307 ° 0 min 0,000 mm 1,0 UV-I 120 W/m² 3,4 °C 22,5 km/h (4 Bft)
20.10.2016 11:25 7,2 °C 7,2 °C 78 % 1015,0 hPa 0,0 mm 10,5 km/h (2 Bft) W-NW 284 ° 0 min 0,000 mm 1,1 UV-I 121 W/m² 3,6 °C 12,9 km/h (3 Bft)
20.10.2016 11:26 7,2 °C 7,2 °C 78 % 1015,0 hPa 0,0 mm 11,3 km/h (2 Bft) W 269 ° 0 min 0,000 mm 1,1 UV-I 123 W/m² 3,6 °C 16,1 km/h (3 Bft)
20.10.2016 11:27 7,2 °C 7,2 °C 78 % 1015,1 hPa 0,0 mm 6,9 km/h (2 Bft) W-NW 298 ° 0 min 0,000 mm 1,1 UV-I 125 W/m² 3,6 °C 12,9 km/h (3 Bft)
20.10.2016 11:28 7,1 °C 7,2 °C 78 % 1015,1 hPa 0,0 mm 9,7 km/h (2 Bft) W-NW 298 ° 0 min 0,000 mm 1,2 UV-I 130 W/m² 3,5 °C 16,1 km/h (3 Bft)
20.10.2016 11:29 7,1 °C 7,2 °C 78 % 1015,1 hPa 0,0 mm 15,2 km/h (3 Bft) NW 308 ° 0 min 0,000 mm 1,3 UV-I 141 W/m² 3,5 °C 22,5 km/h (4 Bft)
20.10.2016 11:30 7,1 °C 7,1 °C 77 % 1015,0 hPa 0,0 mm 14,1 km/h (3 Bft) W-SW 250 ° 0 min 0,000 mm 1,3 UV-I 162 W/m² 3,3 °C 22,5 km/h (4 Bft)
20.10.2016 11:31 7,1 °C 7,1 °C 78 % 1015,1 hPa 0,0 mm 10,7 km/h (2 Bft) W-SW 244 ° 0 min 0,000 mm 1,4 UV-I 178 W/m² 3,5 °C 16,1 km/h (3 Bft)
20.10.2016 11:32 6,9 °C 7,1 °C 78 % 1015,1 hPa 0,0 mm 8,2 km/h (2 Bft) W-SW 253 ° 0 min 0,000 mm 1,5 UV-I 200 W/m² 3,3 °C 12,9 km/h (3 Bft)
20.10.2016 11:33 6,9 °C 7,0 °C 78 % 1015,1 hPa 0,0 mm 13,6 km/h (3 Bft) W-NW 284 ° 0 min 0,000 mm 1,5 UV-I 209 W/m² 3,3 °C 24,1 km/h (4 Bft)
20.10.2016 11:34 6,9 °C 6,9 °C 78 % 1015,1 hPa 0,0 mm 10,3 km/h (2 Bft) W-SW 253 ° 0 min 0,000 mm 1,6 UV-I 221 W/m² 3,3 °C 14,5 km/h (3 Bft)
20.10.2016 11:35 6,9 °C 6,9 °C 77 % 1015,1 hPa 0,0 mm 12,4 km/h (3 Bft) W 259 ° 0 min 0,000 mm 1,6 UV-I 214 W/m² 3,2 °C 17,7 km/h (3 Bft)
20.10.2016 11:36 6,9 °C 6,9 °C 77 % 1015,1 hPa 0,0 mm 9,7 km/h (2 Bft) W 280 ° 0 min 0,000 mm 1,6 UV-I 214 W/m² 3,2 °C 14,5 km/h (3 Bft)
20.10.2016 11:37 7,0 °C 7,0 °C 77 % 1015,1 hPa 0,0 mm 13,3 km/h (3 Bft) W 263 ° 0 min 0,000 mm 1,5 UV-I 188 W/m² 3,2 °C 24,1 km/h (4 Bft)
20.10.2016 11:38 7,0 °C 7,1 °C 76 % 1015,1 hPa 0,0 mm 14,3 km/h (3 Bft) W 277 ° 0 min 0,000 mm 1,5 UV-I 167 W/m² 3,1 °C 20,9 km/h (4 Bft)
20.10.2016 11:39 7,0 °C 7,0 °C 76 % 1015,1 hPa 0,0 mm 7,1 km/h (2 Bft) W-SW 254 ° 0 min 0,000 mm 1,5 UV-I 144 W/m² 3,1 °C 17,7 km/h (3 Bft)
20.10.2016 11:40 6,9 °C 7,0 °C 76 % 1015,1 hPa 0,0 mm 10,6 km/h (2 Bft) W 273 ° 0 min 0,000 mm 1,4 UV-I 132 W/m² 3,0 °C 16,1 km/h (3 Bft)
20.10.2016 11:41 6,9 °C 6,9 °C 76 % 1015,1 hPa 0,0 mm 11,1 km/h (2 Bft) W 274 ° 0 min 0,000 mm 1,4 UV-I 123 W/m² 3,0 °C 16,1 km/h (3 Bft)
20.10.2016 11:42 6,8 °C 6,9 °C 76 % 1015,0 hPa 0,0 mm 14,8 km/h (3 Bft) NW 313 ° 0 min 0,000 mm 1,4 UV-I 151 W/m² 2,9 °C 19,3 km/h (3 Bft)
20.10.2016 11:43 6,8 °C 6,8 °C 76 % 1015,0 hPa 0,0 mm 12,5 km/h (3 Bft) W-NW 286 ° 0 min 0,000 mm 1,5 UV-I 142 W/m² 2,9 °C 16,1 km/h (3 Bft)
20.10.2016 11:44 6,8 °C 6,8 °C 76 % 1015,1 hPa 0,0 mm 9,1 km/h (2 Bft) W 280 ° 0 min 0,000 mm 1,5 UV-I 148 W/m² 2,9 °C 17,7 km/h (3 Bft)
20.10.2016 11:45 6,8 °C 6,8 °C 77 % 1015,0 hPa 0,0 mm 6,8 km/h (2 Bft) W-NW 289 ° 0 min 0,000 mm 1,5 UV-I 163 W/m² 3,1 °C 11,3 km/h (2 Bft)
20.10.2016 11:46 6,8 °C 6,8 °C 79 % 1015,0 hPa 0,0 mm 10,9 km/h (2 Bft) W-SW 246 ° 0 min 0,000 mm 1,6 UV-I 176 W/m² 3,4 °C 14,5 km/h (3 Bft)
20.10.2016 11:47 6,9 °C 6,9 °C 76 % 1015,1 hPa 0,0 mm 13,5 km/h (3 Bft) W-NW 297 ° 0 min 0,000 mm 1,6 UV-I 183 W/m² 3,0 °C 20,9 km/h (4 Bft)
20.10.2016 11:48 6,9 °C 6,9 °C 77 % 1015,0 hPa 0,0 mm 15,2 km/h (3 Bft) W 264 ° 0 min 0,000 mm 1,6 UV-I 193 W/m² 3,2 °C 20,9 km/h (4 Bft)
20.10.2016 11:49 7,0 °C 7,0 °C 76 % 1015,1 hPa 0,0 mm 16,6 km/h (3 Bft) W 280 ° 0 min 0,000 mm 1,6 UV-I 188 W/m² 3,1 °C 27,4 km/h (4 Bft)
20.10.2016 11:50 7,0 °C 7,0 °C 76 % 1015,1 hPa 0,0 mm 14,0 km/h (3 Bft) W-NW 296 ° 0 min 0,000 mm 1,6 UV-I 197 W/m² 3,1 °C 27,4 km/h (4 Bft)
20.10.2016 11:51 7,1 °C 7,1 °C 77 % 1015,1 hPa 0,0 mm 12,7 km/h (3 Bft) W-NW 286 ° 0 min 0,000 mm 1,6 UV-I 190 W/m² 3,3 °C 16,1 km/h (3 Bft)
20.10.2016 11:52 7,1 °C 7,1 °C 76 % 1015,0 hPa 0,0 mm 9,9 km/h (2 Bft) W-SW 248 ° 0 min 0,000 mm 1,6 UV-I 190 W/m² 3,2 °C 17,7 km/h (3 Bft)
20.10.2016 11:53 7,2 °C 7,2 °C 77 % 1015,0 hPa 0,0 mm 9,9 km/h (2 Bft) W 269 ° 0 min 0,000 mm 1,6 UV-I 174 W/m² 3,4 °C 12,9 km/h (3 Bft)
20.10.2016 11:54 7,2 °C 7,2 °C 77 % 1015,0 hPa 0,0 mm 8,6 km/h (2 Bft) S 169 ° 0 min 0,000 mm 1,6 UV-I 149 W/m² 3,4 °C 16,1 km/h (3 Bft)
20.10.2016 11:55 7,2 °C 7,2 °C 75 % 1014,9 hPa 0,0 mm 8,9 km/h (2 Bft) W 276 ° 0 min 0,000 mm 1,5 UV-I 149 W/m² 3,1 °C 16,1 km/h (3 Bft)
20.10.2016 11:56 7,1 °C 7,2 °C 75 % 1015,0 hPa 0,0 mm 12,3 km/h (3 Bft) W 266 ° 0 min 0,000 mm 1,5 UV-I 149 W/m² 3,0 °C 17,7 km/h (3 Bft)
20.10.2016 11:57 7,1 °C 7,1 °C 75 % 1015,0 hPa 0,0 mm 8,9 km/h (2 Bft) W-SW 245 ° 0 min 0,000 mm 1,5 UV-I 155 W/m² 3,0 °C 17,7 km/h (3 Bft)
20.10.2016 11:58 7,1 °C 7,1 °C 75 % 1015,1 hPa 0,0 mm 17,2 km/h (3 Bft) W-NW 288 ° 0 min 0,000 mm 1,6 UV-I 165 W/m² 3,0 °C 24,1 km/h (4 Bft)
20.10.2016 11:59 7,1 °C 7,1 °C 75 % 1014,9 hPa 0,0 mm 13,9 km/h (3 Bft) W-NW 284 ° 0 min 0,000 mm 1,5 UV-I 162 W/m² 3,0 °C 20,9 km/h (4 Bft)
20.10.2016 12:00 7,0 °C 7,1 °C 75 % 1015,0 hPa 0,0 mm 12,9 km/h (3 Bft) W 261 ° 0 min 0,000 mm 1,5 UV-I 135 W/m² 2,9 °C 17,7 km/h (3 Bft)
20.10.2016 12:01 6,9 °C 7,0 °C 75 % 1014,9 hPa 0,0 mm 10,2 km/h (2 Bft) W-SW 251 ° 0 min 0,076 mm 1,4 UV-I 121 W/m² 2,8 °C 14,5 km/h (3 Bft)
20.10.2016 12:02 6,9 °C 7,0 °C 75 % 1014,9 hPa 0,0 mm 11,5 km/h (2 Bft) W-SW 242 ° 0 min 0,001 mm 1,4 UV-I 107 W/m² 2,8 °C 19,3 km/h (3 Bft)
20.10.2016 12:03 6,9 °C 6,9 °C 77 % 1015,0 hPa 0,0 mm 10,1 km/h (2 Bft) W-NW 300 ° 0 min 0,000 mm 1,3 UV-I 98 W/m² 3,2 °C 16,1 km/h (3 Bft)
20.10.2016 12:04 6,9 °C 6,9 °C 76 % 1015,0 hPa 0,0 mm 7,8 km/h (2 Bft) W-SW 256 ° 0 min 0,000 mm 1,4 UV-I 93 W/m² 3,0 °C 12,9 km/h (3 Bft)
20.10.2016 12:05 6,8 °C 6,9 °C 76 % 1015,0 hPa 0,0 mm 14,9 km/h (3 Bft) W-SW 246 ° 0 min 0,000 mm 1,4 UV-I 97 W/m² 2,9 °C 32,2 km/h (5 Bft)
20.10.2016 12:06 6,8 °C 6,9 °C 76 % 1015,0 hPa 0,0 mm 12,7 km/h (3 Bft) W-NW 284 ° 0 min 0,000 mm 1,4 UV-I 102 W/m² 2,9 °C 19,3 km/h (3 Bft)
20.10.2016 12:07 6,8 °C 6,8 °C 75 % 1014,9 hPa 0,0 mm 7,6 km/h (2 Bft) W-NW 285 ° 0 min 0,000 mm 1,4 UV-I 127 W/m² 2,7 °C 12,9 km/h (3 Bft)
20.10.2016 12:08 6,8 °C 6,8 °C 75 % 1014,9 hPa 0,0 mm 8,5 km/h (2 Bft) W-NW 286 ° 0 min 0,000 mm 1,6 UV-I 139 W/m² 2,7 °C 14,5 km/h (3 Bft)
20.10.2016 12:09 6,8 °C 6,8 °C 76 % 1014,9 hPa 0,0 mm 8,5 km/h (2 Bft) W 272 ° 0 min 0,000 mm 1,8 UV-I 213 W/m² 2,9 °C 12,9 km/h (3 Bft)
20.10.2016 12:10 6,9 °C 6,9 °C 76 % 1014,9 hPa 0,0 mm 7,1 km/h (2 Bft) W-SW 257 ° 0 min 0,000 mm 2,4 UV-I 213 W/m² 3,0 °C 11,3 km/h (2 Bft)
20.10.2016 12:11 7,1 °C 7,1 °C 78 % 1014,9 hPa 0,0 mm 3,3 km/h (1 Bft) W 273 ° 0 min 0,000 mm 2,8 UV-I 213 W/m² 3,5 °C 6,4 km/h (2 Bft)
20.10.2016 12:12 7,2 °C 7,2 °C 79 % 1014,8 hPa 0,0 mm 4,5 km/h (1 Bft) W 279 ° 0 min 0,000 mm 1,8 UV-I 213 W/m² 3,8 °C 9,7 km/h (2 Bft)
20.10.2016 12:13 7,3 °C 7,3 °C 78 % 1014,8 hPa 0,0 mm 7,2 km/h (2 Bft) W-SW 254 ° 0 min 0,000 mm 1,7 UV-I 130 W/m² 3,7 °C 12,9 km/h (3 Bft)
20.10.2016 12:14 7,4 °C 7,4 °C 76 % 1014,9 hPa 0,0 mm 8,0 km/h (2 Bft) W-SW 249 ° 0 min 0,000 mm 1,8 UV-I 158 W/m² 3,5 °C 16,1 km/h (3 Bft)
20.10.2016 12:15 7,3 °C 7,4 °C 75 % 1014,8 hPa 0,0 mm 10,9 km/h (2 Bft) W-NW 291 ° 0 min 0,000 mm 1,8 UV-I 123 W/m² 3,2 °C 14,5 km/h (3 Bft)
20.10.2016 12:16 7,3 °C 7,3 °C 76 % 1014,8 hPa 0,0 mm 7,7 km/h (2 Bft) W-NW 283 ° 0 min 0,000 mm 2,7 UV-I 123 W/m² 3,4 °C 17,7 km/h (3 Bft)
20.10.2016 12:17 7,4 °C 7,4 °C 75 % 1014,8 hPa 0,0 mm 7,4 km/h (2 Bft) W 276 ° 1 min 0,000 mm 2,7 UV-I 541 W/m² 3,3 °C 12,9 km/h (3 Bft)
20.10.2016 12:18 7,6 °C 7,6 °C 76 % 1014,8 hPa 0,0 mm 7,5 km/h (2 Bft) W-NW 292 ° 1 min 0,000 mm 2,7 UV-I 543 W/m² 3,6 °C 11,3 km/h (2 Bft)
20.10.2016 12:19 7,7 °C 7,7 °C 75 % 1014,8 hPa 0,0 mm 8,5 km/h (2 Bft) W 281 ° 1 min 0,000 mm 2,7 UV-I 543 W/m² 3,6 °C 11,3 km/h (2 Bft)
20.10.2016 12:20 7,8 °C 7,8 °C 75 % 1014,8 hPa 0,0 mm 9,7 km/h (2 Bft) W 259 ° 1 min 0,000 mm 2,7 UV-I 541 W/m² 3,7 °C 14,5 km/h (3 Bft)
20.10.2016 12:21 7,9 °C 7,9 °C 73 % 1014,8 hPa 0,0 mm 5,6 km/h (1 Bft) NW 311 ° 1 min 0,000 mm 2,7 UV-I 541 W/m² 3,4 °C 11,3 km/h (2 Bft)
20.10.2016 12:22 8,0 °C 8,0 °C 73 % 1014,8 hPa 0,0 mm 6,7 km/h (2 Bft) W 272 ° 1 min 0,000 mm 2,7 UV-I 552 W/m² 3,5 °C 12,9 km/h (3 Bft)
20.10.2016 12:23 8,1 °C 8,1 °C 74 % 1014,7 hPa 0,0 mm 5,8 km/h (2 Bft) W 277 ° 1 min 0,000 mm 2,8 UV-I 550 W/m² 3,8 °C 16,1 km/h (3 Bft)
20.10.2016 12:24 8,2 °C 8,2 °C 73 % 1014,7 hPa 0,0 mm 9,7 km/h (2 Bft) W 267 ° 1 min 0,000 mm 2,7 UV-I 536 W/m² 3,7 °C 19,3 km/h (3 Bft)
20.10.2016 12:25 8,3 °C 8,3 °C 74 % 1014,8 hPa 0,0 mm 12,9 km/h (3 Bft) W 267 ° 1 min 0,000 mm 2,7 UV-I 536 W/m² 3,9 °C 17,7 km/h (3 Bft)
20.10.2016 12:26 8,3 °C 8,3 °C 74 % 1014,7 hPa 0,0 mm 16,7 km/h (3 Bft) W-NW 295 ° 1 min 0,000 mm 2,7 UV-I 540 W/m² 3,9 °C 24,1 km/h (4 Bft)
20.10.2016 12:27 8,4 °C 8,4 °C 72 % 1014,7 hPa 0,0 mm 14,8 km/h (3 Bft) W-SW 248 ° 1 min 0,000 mm 2,8 UV-I 547 W/m² 3,7 °C 29,0 km/h (5 Bft)
20.10.2016 12:28 8,3 °C 8,4 °C 70 % 1014,7 hPa 0,0 mm 11,9 km/h (2 Bft) W 267 ° 1 min 0,000 mm 2,8 UV-I 552 W/m² 3,2 °C 17,7 km/h (3 Bft)
20.10.2016 12:29 8,3 °C 8,4 °C 71 % 1014,7 hPa 0,0 mm 8,9 km/h (2 Bft) N-NW 328 ° 1 min 0,000 mm 2,8 UV-I 541 W/m² 3,4 °C 14,5 km/h (3 Bft)
20.10.2016 12:30 8,4 °C 8,4 °C 73 % 1014,7 hPa 0,0 mm 14,3 km/h (3 Bft) W 267 ° 1 min 0,000 mm 2,7 UV-I 538 W/m² 3,8 °C 19,3 km/h (3 Bft)
20.10.2016 12:31 8,4 °C 8,4 °C 71 % 1014,7 hPa 0,0 mm 12,3 km/h (3 Bft) NW 321 ° 1 min 0,000 mm 2,7 UV-I 538 W/m² 3,5 °C 20,9 km/h (4 Bft)
20.10.2016 12:32 8,3 °C 8,4 °C 72 % 1014,6 hPa 0,0 mm 13,1 km/h (3 Bft) W 261 ° 1 min 0,000 mm 2,7 UV-I 536 W/m² 3,6 °C 19,3 km/h (3 Bft)
20.10.2016 12:33 8,3 °C 8,3 °C 72 % 1014,7 hPa 0,0 mm 7,0 km/h (2 Bft) W-NW 283 ° 1 min 0,000 mm 2,7 UV-I 534 W/m² 3,6 °C 12,9 km/h (3 Bft)
20.10.2016 12:34 8,3 °C 8,3 °C 72 % 1014,7 hPa 0,0 mm 10,9 km/h (2 Bft) W 281 ° 1 min 0,000 mm 2,7 UV-I 533 W/m² 3,6 °C 17,7 km/h (3 Bft)
20.10.2016 12:35 8,3 °C 8,3 °C 72 % 1014,7 hPa 0,0 mm 13,8 km/h (3 Bft) W-SW 248 ° 1 min 0,000 mm 2,7 UV-I 533 W/m² 3,6 °C 19,3 km/h (3 Bft)
20.10.2016 12:36 8,3 °C 8,3 °C 72 % 1014,7 hPa 0,0 mm 11,4 km/h (2 Bft) W 273 ° 1 min 0,000 mm 2,7 UV-I 534 W/m² 3,6 °C 22,5 km/h (4 Bft)
20.10.2016 12:37 8,3 °C 8,3 °C 73 % 1014,7 hPa 0,0 mm 12,5 km/h (3 Bft) W 266 ° 1 min 0,000 mm 2,7 UV-I 534 W/m² 3,8 °C 16,1 km/h (3 Bft)
20.10.2016 12:38 8,3 °C 8,3 °C 73 % 1014,7 hPa 0,0 mm 12,8 km/h (3 Bft) W 266 ° 1 min 0,000 mm 2,7 UV-I 536 W/m² 3,8 °C 20,9 km/h (4 Bft)
20.10.2016 12:39 8,2 °C 8,3 °C 72 % 1014,6 hPa 0,0 mm 14,7 km/h (3 Bft) NW 305 ° 1 min 0,000 mm 2,8 UV-I 534 W/m² 3,5 °C 22,5 km/h (4 Bft)
20.10.2016 12:40 8,3 °C 8,3 °C 72 % 1014,6 hPa 0,0 mm 10,5 km/h (2 Bft) W-NW 283 ° 1 min 0,000 mm 2,8 UV-I 534 W/m² 3,6 °C 16,1 km/h (3 Bft)
20.10.2016 12:41 8,3 °C 8,3 °C 72 % 1014,6 hPa 0,0 mm 12,1 km/h (2 Bft) W-NW 300 ° 1 min 0,000 mm 2,8 UV-I 536 W/m² 3,6 °C 16,1 km/h (3 Bft)
20.10.2016 12:42 8,3 °C 8,3 °C 72 % 1014,5 hPa 0,0 mm 13,9 km/h (3 Bft) W 279 ° 1 min 0,000 mm 2,8 UV-I 536 W/m² 3,6 °C 20,9 km/h (4 Bft)
20.10.2016 12:43 8,3 °C 8,3 °C 72 % 1014,5 hPa 0,0 mm 12,1 km/h (2 Bft) W-SW 257 ° 1 min 0,000 mm 2,8 UV-I 536 W/m² 3,6 °C 16,1 km/h (3 Bft)
20.10.2016 12:44 8,3 °C 8,3 °C 71 % 1014,4 hPa 0,0 mm 8,6 km/h (2 Bft) W-SW 255 ° 1 min 0,000 mm 2,8 UV-I 536 W/m² 3,4 °C 11,3 km/h (2 Bft)
20.10.2016 12:45 8,3 °C 8,3 °C 72 % 1014,5 hPa 0,0 mm 10,7 km/h (2 Bft) W-NW 290 ° 1 min 0,000 mm 2,8 UV-I 538 W/m² 3,6 °C 16,1 km/h (3 Bft)
20.10.2016 12:46 8,4 °C 8,4 °C 71 % 1014,5 hPa 0,0 mm 11,0 km/h (2 Bft) S 177 ° 1 min 0,000 mm 2,8 UV-I 543 W/m² 3,5 °C 17,7 km/h (3 Bft)
20.10.2016 12:47 8,4 °C 8,4 °C 71 % 1014,5 hPa 0,0 mm 12,1 km/h (2 Bft) S-SW 212 ° 1 min 0,000 mm 2,8 UV-I 540 W/m² 3,5 °C 17,7 km/h (3 Bft)
20.10.2016 12:48 8,2 °C 8,4 °C 70 % 1014,5 hPa 0,0 mm 11,5 km/h (2 Bft) W-SW 247 ° 1 min 0,000 mm 2,8 UV-I 538 W/m² 3,1 °C 17,7 km/h (3 Bft)
20.10.2016 12:49 8,1 °C 8,2 °C 70 % 1014,4 hPa 0,0 mm 8,5 km/h (2 Bft) W-NW 283 ° 1 min 0,000 mm 2,8 UV-I 538 W/m² 3,0 °C 20,9 km/h (4 Bft)
20.10.2016 12:50 8,2 °C 8,2 °C 70 % 1014,4 hPa 0,0 mm 6,0 km/h (2 Bft) W 270 ° 1 min 0,000 mm 2,8 UV-I 538 W/m² 3,1 °C 9,7 km/h (2 Bft)
20.10.2016 12:51 8,2 °C 8,3 °C 71 % 1014,4 hPa 0,0 mm 7,4 km/h (2 Bft) W-NW 286 ° 1 min 0,000 mm 2,8 UV-I 540 W/m² 3,3 °C 14,5 km/h (3 Bft)
20.10.2016 12:52 8,3 °C 8,3 °C 71 % 1014,4 hPa 0,0 mm 5,6 km/h (1 Bft) W 259 ° 1 min 0,000 mm 2,8 UV-I 540 W/m² 3,4 °C 9,7 km/h (2 Bft)
20.10.2016 12:53 8,4 °C 8,4 °C 72 % 1014,4 hPa 0,0 mm 8,6 km/h (2 Bft) W-SW 254 ° 1 min 0,000 mm 2,8 UV-I 541 W/m² 3,7 °C 16,1 km/h (3 Bft)
20.10.2016 12:54 8,4 °C 8,4 °C 71 % 1014,4 hPa 0,0 mm 8,2 km/h (2 Bft) W-SW 253 ° 1 min 0,000 mm 2,8 UV-I 512 W/m² 3,5 °C 12,9 km/h (3 Bft)
20.10.2016 12:55 8,4 °C 8,4 °C 71 % 1014,4 hPa 0,0 mm 6,1 km/h (2 Bft) W 280 ° 1 min 0,000 mm 2,7 UV-I 508 W/m² 3,5 °C 12,9 km/h (3 Bft)
20.10.2016 12:56 8,6 °C 8,6 °C 74 % 1014,4 hPa 0,0 mm 6,6 km/h (2 Bft) W 270 ° 1 min 0,000 mm 2,8 UV-I 540 W/m² 4,2 °C 11,3 km/h (2 Bft)
20.10.2016 12:57 8,6 °C 8,6 °C 70 % 1014,4 hPa 0,0 mm 9,1 km/h (2 Bft) NW 321 ° 1 min 0,000 mm 2,8 UV-I 540 W/m² 3,4 °C 14,5 km/h (3 Bft)
20.10.2016 12:58 8,6 °C 8,6 °C 70 % 1014,3 hPa 0,0 mm 5,3 km/h (1 Bft) W 261 ° 1 min 0,000 mm 2,8 UV-I 540 W/m² 3,4 °C 9,7 km/h (2 Bft)
20.10.2016 12:59 8,7 °C 8,7 °C 72 % 1014,3 hPa 0,0 mm 13,8 km/h (3 Bft) SW 228 ° 1 min 0,000 mm 2,8 UV-I 540 W/m² 3,9 °C 24,1 km/h (4 Bft)
20.10.2016 13:00 8,6 °C 8,7 °C 72 % 1014,3 hPa 0,0 mm 5,1 km/h (1 Bft) W 272 ° 1 min 0,000 mm 2,8 UV-I 538 W/m² 3,8 °C 12,9 km/h (3 Bft)
20.10.2016 13:01 8,6 °C 8,6 °C 70 % 1014,3 hPa 0,0 mm 7,6 km/h (2 Bft) W-NW 283 ° 1 min 0,228 mm 2,8 UV-I 540 W/m² 3,4 °C 11,3 km/h (2 Bft)
20.10.2016 13:02 8,6 °C 8,6 °C 70 % 1014,3 hPa 0,0 mm 9,4 km/h (2 Bft) W-NW 292 ° 1 min 0,000 mm 2,8 UV-I 541 W/m² 3,4 °C 14,5 km/h (3 Bft)
20.10.2016 13:03 8,6 °C 8,6 °C 71 % 1014,3 hPa 0,0 mm 10,9 km/h (2 Bft) W-SW 242 ° 1 min 0,000 mm 2,8 UV-I 541 W/m² 3,6 °C 16,1 km/h (3 Bft)
20.10.2016 13:04 8,6 °C 8,7 °C 70 % 1014,3 hPa 0,0 mm 8,6 km/h (2 Bft) W-NW 285 ° 1 min 0,000 mm 2,8 UV-I 533 W/m² 3,4 °C 11,3 km/h (2 Bft)
20.10.2016 13:05 8,6 °C 8,6 °C 70 % 1014,2 hPa 0,0 mm 10,2 km/h (2 Bft) W-NW 291 ° 1 min 0,000 mm 2,8 UV-I 520 W/m² 3,4 °C 14,5 km/h (3 Bft)
20.10.2016 13:06 8,6 °C 8,7 °C 70 % 1014,2 hPa 0,0 mm 8,7 km/h (2 Bft) W 271 ° 1 min 0,000 mm 2,8 UV-I 531 W/m² 3,4 °C 12,9 km/h (3 Bft)
20.10.2016 13:07 8,6 °C 8,6 °C 70 % 1014,2 hPa 0,0 mm 13,1 km/h (3 Bft) W-SW 248 ° 1 min 0,000 mm 2,8 UV-I 527 W/m² 3,4 °C 17,7 km/h (3 Bft)
20.10.2016 13:08 8,6 °C 8,6 °C 70 % 1014,2 hPa 0,0 mm 10,6 km/h (2 Bft) W 267 ° 1 min 0,000 mm 2,4 UV-I 527 W/m² 3,4 °C 14,5 km/h (3 Bft)
20.10.2016 13:09 8,5 °C 8,6 °C 70 % 1014,2 hPa 0,0 mm 6,8 km/h (2 Bft) W 263 ° 1 min 0,000 mm 1,7 UV-I 527 W/m² 3,3 °C 12,9 km/h (3 Bft)
20.10.2016 13:10 8,5 °C 8,5 °C 70 % 1014,2 hPa 0,0 mm 10,5 km/h (2 Bft) W 270 ° 0 min 0,000 mm 1,6 UV-I 146 W/m² 3,3 °C 17,7 km/h (3 Bft)
20.10.2016 13:11 8,5 °C 8,5 °C 71 % 1014,3 hPa 0,0 mm 12,7 km/h (3 Bft) W-SW 255 ° 1 min 0,000 mm 2,6 UV-I 422 W/m² 3,5 °C 16,1 km/h (3 Bft)
20.10.2016 13:12 8,5 °C 8,5 °C 71 % 1014,2 hPa 0,0 mm 11,8 km/h (2 Bft) W-SW 258 ° 1 min 0,000 mm 2,8 UV-I 422 W/m² 3,5 °C 17,7 km/h (3 Bft)
20.10.2016 13:13 8,5 °C 8,5 °C 71 % 1014,2 hPa 0,0 mm 11,8 km/h (2 Bft) W-SW 238 ° 1 min 0,000 mm 2,8 UV-I 520 W/m² 3,5 °C 19,3 km/h (3 Bft)
20.10.2016 13:14 8,6 °C 8,6 °C 71 % 1014,2 hPa 0,0 mm 15,8 km/h (3 Bft) W 280 ° 1 min 0,000 mm 2,7 UV-I 533 W/m² 3,6 °C 22,5 km/h (4 Bft)
20.10.2016 13:15 8,6 °C 8,6 °C 70 % 1014,2 hPa 0,0 mm 14,3 km/h (3 Bft) W-SW 244 ° 1 min 0,000 mm 2,7 UV-I 533 W/m² 3,4 °C 19,3 km/h (3 Bft)
20.10.2016 13:16 8,6 °C 8,6 °C 70 % 1014,2 hPa 0,0 mm 8,8 km/h (2 Bft) W-NW 296 ° 0 min 0,000 mm 1,5 UV-I 176 W/m² 3,4 °C 12,9 km/h (3 Bft)
20.10.2016 13:17 8,4 °C 8,6 °C 71 % 1014,2 hPa 0,0 mm 7,2 km/h (2 Bft) W 273 ° 0 min 0,000 mm 2,0 UV-I 206 W/m² 3,5 °C 11,3 km/h (2 Bft)
20.10.2016 13:18 8,4 °C 8,4 °C 70 % 1014,1 hPa 0,0 mm 10,5 km/h (2 Bft) W-SW 238 ° 0 min 0,000 mm 1,8 UV-I 195 W/m² 3,3 °C 17,7 km/h (3 Bft)
20.10.2016 13:19 8,4 °C 8,4 °C 71 % 1014,2 hPa 0,0 mm 7,3 km/h (2 Bft) SW 236 ° 0 min 0,000 mm 2,2 UV-I 195 W/m² 3,5 °C 11,3 km/h (2 Bft)
20.10.2016 13:20 8,4 °C 8,4 °C 71 % 1014,2 hPa 0,0 mm 7,6 km/h (2 Bft) W-SW 255 ° 0 min 0,000 mm 2,6 UV-I 195 W/m² 3,5 °C 16,1 km/h (3 Bft)
20.10.2016 13:21 8,6 °C 8,6 °C 71 % 1014,2 hPa 0,0 mm 11,5 km/h (2 Bft) W 275 ° 1 min 0,000 mm 2,7 UV-I 476 W/m² 3,6 °C 16,1 km/h (3 Bft)
20.10.2016 13:22 8,6 °C 8,6 °C 71 % 1014,1 hPa 0,0 mm 11,6 km/h (2 Bft) W-SW 253 ° 1 min 0,000 mm 2,2 UV-I 476 W/m² 3,6 °C 16,1 km/h (3 Bft)
20.10.2016 13:23 8,7 °C 8,7 °C 72 % 1014,2 hPa 0,0 mm 5,7 km/h (1 Bft) W-SW 247 ° 1 min 0,000 mm 2,4 UV-I 385 W/m² 3,9 °C 9,7 km/h (2 Bft)
20.10.2016 13:24 8,8 °C 8,8 °C 71 % 1014,1 hPa 0,0 mm 7,5 km/h (2 Bft) W-SW 258 ° 1 min 0,000 mm 2,4 UV-I 476 W/m² 3,8 °C 14,5 km/h (3 Bft)
20.10.2016 13:25 8,7 °C 8,8 °C 71 % 1014,1 hPa 0,0 mm 10,1 km/h (2 Bft) W-SW 247 ° 1 min 0,000 mm 2,7 UV-I 476 W/m² 3,7 °C 16,1 km/h (3 Bft)
20.10.2016 13:26 8,8 °C 8,8 °C 72 % 1014,1 hPa 0,0 mm 11,7 km/h (2 Bft) W-SW 257 ° 1 min 0,000 mm 2,7 UV-I 540 W/m² 4,0 °C 16,1 km/h (3 Bft)
20.10.2016 13:27 8,8 °C 8,8 °C 70 % 1014,1 hPa 0,0 mm 9,5 km/h (2 Bft) W-NW 287 ° 1 min 0,000 mm 2,7 UV-I 536 W/m² 3,6 °C 14,5 km/h (3 Bft)
20.10.2016 13:28 8,9 °C 8,9 °C 69 % 1014,1 hPa 0,0 mm 12,1 km/h (2 Bft) W-NW 284 ° 1 min 0,000 mm 2,8 UV-I 561 W/m² 3,5 °C 17,7 km/h (3 Bft)
20.10.2016 13:29 8,9 °C 8,9 °C 70 % 1014,1 hPa 0,0 mm 13,0 km/h (3 Bft) W 261 ° 1 min 0,000 mm 2,8 UV-I 561 W/m² 3,7 °C 20,9 km/h (4 Bft)
20.10.2016 13:30 9,1 °C 9,1 °C 72 % 1014,1 hPa 0,0 mm 9,1 km/h (2 Bft) W-SW 256 ° 1 min 0,000 mm 2,8 UV-I 580 W/m² 4,3 °C 14,5 km/h (3 Bft)
20.10.2016 13:31 9,2 °C 9,2 °C 71 % 1014,1 hPa 0,0 mm 10,1 km/h (2 Bft) NW 319 ° 1 min 0,000 mm 2,8 UV-I 585 W/m² 4,2 °C 16,1 km/h (3 Bft)
20.10.2016 13:32 9,2 °C 9,2 °C 69 % 1014,1 hPa 0,0 mm 11,8 km/h (2 Bft) W 271 ° 1 min 0,000 mm 2,3 UV-I 585 W/m² 3,8 °C 16,1 km/h (3 Bft)
20.10.2016 13:33 9,2 °C 9,2 °C 68 % 1014,1 hPa 0,0 mm 9,6 km/h (2 Bft) W 263 ° 1 min 0,000 mm 2,8 UV-I 594 W/m² 3,6 °C 14,5 km/h (3 Bft)
20.10.2016 13:34 9,3 °C 9,3 °C 68 % 1014,1 hPa 0,0 mm 12,7 km/h (3 Bft) W 264 ° 1 min 0,000 mm 2,7 UV-I 598 W/m² 3,7 °C 19,3 km/h (3 Bft)
20.10.2016 13:35 9,3 °C 9,3 °C 70 % 1014,2 hPa 0,0 mm 10,9 km/h (2 Bft) W-NW 296 ° 1 min 0,000 mm 1,9 UV-I 598 W/m² 4,1 °C 16,1 km/h (3 Bft)
20.10.2016 13:36 9,2 °C 9,3 °C 67 % 1014,0 hPa 0,0 mm 7,7 km/h (2 Bft) SW 236 ° 0 min 0,000 mm 1,9 UV-I 230 W/m² 3,4 °C 12,9 km/h (3 Bft)
20.10.2016 13:37 9,1 °C 9,2 °C 67 % 1014,1 hPa 0,0 mm 8,3 km/h (2 Bft) W 276 ° 0 min 0,000 mm 2,7 UV-I 230 W/m² 3,3 °C 12,9 km/h (3 Bft)
20.10.2016 13:38 9,2 °C 9,2 °C 66 % 1014,0 hPa 0,0 mm 7,0 km/h (2 Bft) NO 42 ° 1 min 0,000 mm 2,7 UV-I 563 W/m² 3,2 °C 11,3 km/h (2 Bft)
20.10.2016 13:39 9,1 °C 9,2 °C 67 % 1014,0 hPa 0,0 mm 4,0 km/h (1 Bft) W-NW 284 ° 1 min 0,000 mm 2,5 UV-I 568 W/m² 3,3 °C 6,4 km/h (2 Bft)
20.10.2016 13:40 9,1 °C 9,1 °C 67 % 1014,1 hPa 0,0 mm 11,1 km/h (2 Bft) W-NW 293 ° 0 min 0,000 mm 1,4 UV-I 63 W/m² 3,3 °C 19,3 km/h (3 Bft)
20.10.2016 13:41 9,1 °C 9,1 °C 66 % 1014,1 hPa 0,0 mm 11,1 km/h (2 Bft) S 185 ° 0 min 0,000 mm 2,7 UV-I 63 W/m² 3,1 °C 16,1 km/h (3 Bft)
20.10.2016 13:42 9,1 °C 9,1 °C 67 % 1014,0 hPa 0,0 mm 7,8 km/h (2 Bft) S-SO 150 ° 1 min 0,000 mm 2,7 UV-I 554 W/m² 3,3 °C 14,5 km/h (3 Bft)
20.10.2016 13:43 9,0 °C 9,1 °C 65 % 1014,0 hPa 0,0 mm 5,8 km/h (2 Bft) W-SW 251 ° 1 min 0,000 mm 2,7 UV-I 545 W/m² 2,8 °C 9,7 km/h (2 Bft)
20.10.2016 13:44 9,1 °C 9,1 °C 67 % 1014,0 hPa 0,0 mm 9,8 km/h (2 Bft) W 261 ° 1 min 0,000 mm 2,7 UV-I 540 W/m² 3,3 °C 17,7 km/h (3 Bft)
20.10.2016 13:45 9,1 °C 9,1 °C 66 % 1014,0 hPa 0,0 mm 9,2 km/h (2 Bft) W-NW 290 ° 1 min 0,000 mm 2,7 UV-I 534 W/m² 3,1 °C 17,7 km/h (3 Bft)
20.10.2016 13:46 9,3 °C 9,3 °C 66 % 1014,0 hPa 0,0 mm 8,7 km/h (2 Bft) W-SW 241 ° 1 min 0,000 mm 2,6 UV-I 531 W/m² 3,3 °C 12,9 km/h (3 Bft)
20.10.2016 13:47 9,4 °C 9,4 °C 69 % 1014,0 hPa 0,0 mm 9,4 km/h (2 Bft) S-SW 209 ° 1 min 0,000 mm 2,6 UV-I 522 W/m² 4,0 °C 17,7 km/h (3 Bft)
20.10.2016 13:48 9,4 °C 9,4 °C 66 % 1014,0 hPa 0,0 mm 5,5 km/h (1 Bft) SW 223 ° 1 min 0,000 mm 2,5 UV-I 522 W/m² 3,4 °C 9,7 km/h (2 Bft)
20.10.2016 13:49 9,4 °C 9,4 °C 66 % 1013,9 hPa 0,0 mm 4,2 km/h (1 Bft) S 171 ° 1 min 0,000 mm 2,4 UV-I 418 W/m² 3,4 °C 8,0 km/h (2 Bft)
20.10.2016 13:50 9,3 °C 9,4 °C 66 % 1013,9 hPa 0,0 mm 3,4 km/h (1 Bft) W-SW 237 ° 1 min 0,000 mm 2,6 UV-I 492 W/m² 3,3 °C 6,4 km/h (2 Bft)
20.10.2016 13:51 9,3 °C 9,3 °C 66 % 1013,8 hPa 0,0 mm 5,3 km/h (1 Bft) W-NW 294 ° 1 min 0,000 mm 2,7 UV-I 520 W/m² 3,3 °C 8,0 km/h (2 Bft)
20.10.2016 13:52 9,3 °C 9,3 °C 66 % 1013,8 hPa 0,0 mm 7,8 km/h (2 Bft) W-SW 254 ° 1 min 0,000 mm 2,6 UV-I 529 W/m² 3,3 °C 14,5 km/h (3 Bft)
20.10.2016 13:53 9,3 °C 9,3 °C 66 % 1013,8 hPa 0,0 mm 7,1 km/h (2 Bft) W-SW 250 ° 1 min 0,000 mm 2,7 UV-I 541 W/m² 3,3 °C 11,3 km/h (2 Bft)
20.10.2016 13:54 9,3 °C 9,4 °C 65 % 1013,8 hPa 0,0 mm 3,7 km/h (1 Bft) W-SW 255 ° 1 min 0,000 mm 1,9 UV-I 541 W/m² 3,1 °C 6,4 km/h (2 Bft)
20.10.2016 13:55 9,3 °C 9,4 °C 66 % 1013,8 hPa 0,0 mm 5,6 km/h (1 Bft) W 277 ° 1 min 0,000 mm 1,6 UV-I 541 W/m² 3,3 °C 11,3 km/h (2 Bft)
20.10.2016 13:56 9,3 °C 9,4 °C 65 % 1013,7 hPa 0,0 mm 3,9 km/h (1 Bft) W-SW 251 ° 0 min 0,000 mm 1,6 UV-I 86 W/m² 3,1 °C 11,3 km/h (2 Bft)
20.10.2016 13:57 9,3 °C 9,3 °C 65 % 1013,8 hPa 0,0 mm 6,8 km/h (2 Bft) W 273 ° 1 min 0,000 mm 2,7 UV-I 533 W/m² 3,1 °C 9,7 km/h (2 Bft)
20.10.2016 13:58 9,3 °C 9,3 °C 67 % 1013,8 hPa 0,0 mm 8,0 km/h (2 Bft) W 279 ° 1 min 0,000 mm 2,6 UV-I 527 W/m² 3,5 °C 14,5 km/h (3 Bft)
20.10.2016 13:59 9,3 °C 9,3 °C 66 % 1013,8 hPa 0,0 mm 10,1 km/h (2 Bft) W-NW 296 ° 1 min 0,000 mm 2,6 UV-I 531 W/m² 3,3 °C 14,5 km/h (3 Bft)
20.10.2016 14:00 9,3 °C 9,3 °C 68 % 1013,7 hPa 0,0 mm 7,6 km/h (2 Bft) W 279 ° 1 min 0,000 mm 2,6 UV-I 541 W/m² 3,7 °C 11,3 km/h (2 Bft)
20.10.2016 14:01 9,4 °C 9,4 °C 67 % 1013,7 hPa 0,0 mm 4,5 km/h (1 Bft) W-NW 298 ° 1 min 0,229 mm 2,7 UV-I 559 W/m² 3,6 °C 8,0 km/h (2 Bft)
20.10.2016 14:02 9,6 °C 9,6 °C 66 % 1013,7 hPa 0,0 mm 4,4 km/h (1 Bft) NW 314 ° 1 min 0,000 mm 2,7 UV-I 554 W/m² 3,6 °C 11,3 km/h (2 Bft)
20.10.2016 14:03 9,7 °C 9,7 °C 65 % 1013,7 hPa 0,0 mm 2,9 km/h (1 Bft) W 261 ° 1 min 0,000 mm 2,7 UV-I 554 W/m² 3,4 °C 9,7 km/h (2 Bft)
20.10.2016 14:04 9,8 °C 9,8 °C 68 % 1013,7 hPa 0,0 mm 7,0 km/h (2 Bft) W 269 ° 1 min 0,000 mm 2,7 UV-I 554 W/m² 4,2 °C 9,7 km/h (2 Bft)
20.10.2016 14:05 9,9 °C 9,9 °C 67 % 1013,6 hPa 0,0 mm 7,8 km/h (2 Bft) W-NW 300 ° 1 min 0,000 mm 2,5 UV-I 552 W/m² 4,1 °C 12,9 km/h (3 Bft)
20.10.2016 14:06 9,9 °C 9,9 °C 63 % 1013,6 hPa 0,0 mm 10,4 km/h (2 Bft) W-NW 284 ° 1 min 0,000 mm 2,6 UV-I 555 W/m² 3,2 °C 14,5 km/h (3 Bft)
20.10.2016 14:07 9,9 °C 9,9 °C 63 % 1013,6 hPa 0,0 mm 11,0 km/h (2 Bft) W-SW 252 ° 1 min 0,000 mm 2,5 UV-I 575 W/m² 3,2 °C 16,1 km/h (3 Bft)
20.10.2016 14:08 9,8 °C 9,9 °C 61 % 1013,6 hPa 0,0 mm 10,1 km/h (2 Bft) W-NW 288 ° 1 min 0,000 mm 2,3 UV-I 575 W/m² 2,6 °C 14,5 km/h (3 Bft)
20.10.2016 14:09 9,7 °C 9,8 °C 63 % 1013,6 hPa 0,0 mm 7,9 km/h (2 Bft) W 260 ° 1 min 0,000 mm 2,2 UV-I 575 W/m² 3,0 °C 14,5 km/h (3 Bft)
20.10.2016 14:10 9,7 °C 9,8 °C 62 % 1013,6 hPa 0,0 mm 8,2 km/h (2 Bft) W 265 ° 1 min 0,000 mm 2,7 UV-I 615 W/m² 2,8 °C 16,1 km/h (3 Bft)
20.10.2016 14:11 9,8 °C 9,8 °C 64 % 1013,6 hPa 0,0 mm 14,7 km/h (3 Bft) W 269 ° 1 min 0,000 mm 2,6 UV-I 587 W/m² 3,3 °C 17,7 km/h (3 Bft)
20.10.2016 14:12 9,8 °C 9,8 °C 63 % 1013,6 hPa 0,0 mm 12,7 km/h (3 Bft) W 279 ° 1 min 0,000 mm 2,5 UV-I 568 W/m² 3,1 °C 16,1 km/h (3 Bft)
20.10.2016 14:13 9,8 °C 9,8 °C 62 % 1013,6 hPa 0,0 mm 8,9 km/h (2 Bft) W-NW 283 ° 1 min 0,000 mm 2,3 UV-I 568 W/m² 2,9 °C 16,1 km/h (3 Bft)
20.10.2016 14:14 9,8 °C 9,8 °C 61 % 1013,6 hPa 0,0 mm 12,8 km/h (3 Bft) W-NW 296 ° 1 min 0,000 mm 2,6 UV-I 573 W/m² 2,6 °C 17,7 km/h (3 Bft)
20.10.2016 14:15 9,8 °C 9,8 °C 61 % 1013,5 hPa 0,0 mm 8,9 km/h (2 Bft) W-NW 289 ° 1 min 0,000 mm 2,6 UV-I 570 W/m² 2,6 °C 14,5 km/h (3 Bft)
20.10.2016 14:16 9,8 °C 9,8 °C 61 % 1013,5 hPa 0,0 mm 12,6 km/h (3 Bft) W-NW 284 ° 1 min 0,000 mm 2,6 UV-I 566 W/m² 2,6 °C 24,1 km/h (4 Bft)
20.10.2016 14:17 9,8 °C 9,8 °C 63 % 1013,6 hPa 0,0 mm 13,5 km/h (3 Bft) W 280 ° 1 min 0,000 mm 2,6 UV-I 563 W/m² 3,1 °C 19,3 km/h (3 Bft)
20.10.2016 14:18 9,9 °C 9,9 °C 63 % 1013,6 hPa 0,0 mm 9,6 km/h (2 Bft) W 277 ° 1 min 0,000 mm 2,6 UV-I 573 W/m² 3,2 °C 17,7 km/h (3 Bft)
20.10.2016 14:19 9,9 °C 9,9 °C 62 % 1013,6 hPa 0,0 mm 7,4 km/h (2 Bft) W-NW 288 ° 1 min 0,000 mm 2,5 UV-I 575 W/m² 3,0 °C 14,5 km/h (3 Bft)
20.10.2016 14:20 10,1 °C 10,1 °C 62 % 1013,5 hPa 0,0 mm 7,8 km/h (2 Bft) W 274 ° 1 min 0,000 mm 2,2 UV-I 563 W/m² 3,2 °C 19,3 km/h (3 Bft)
20.10.2016 14:21 10,1 °C 10,1 °C 63 % 1013,5 hPa 0,0 mm 6,6 km/h (2 Bft) N-NW 333 ° 1 min 0,000 mm 2,5 UV-I 557 W/m² 3,4 °C 12,9 km/h (3 Bft)
20.10.2016 14:22 10,2 °C 10,2 °C 62 % 1013,6 hPa 0,0 mm 10,9 km/h (2 Bft) NW 305 ° 1 min 0,000 mm 1,4 UV-I 557 W/m² 3,3 °C 14,5 km/h (3 Bft)
20.10.2016 14:23 10,1 °C 10,2 °C 62 % 1013,5 hPa 0,0 mm 3,8 km/h (1 Bft) W 276 ° 0 min 0,000 mm 1,4 UV-I 223 W/m² 3,2 °C 8,0 km/h (2 Bft)
20.10.2016 14:24 10,0 °C 10,1 °C 62 % 1013,6 hPa 0,0 mm 5,8 km/h (2 Bft) W-SW 257 ° 0 min 0,000 mm 1,3 UV-I 223 W/m² 3,1 °C 8,0 km/h (2 Bft)
20.10.2016 14:25 9,9 °C 10,0 °C 61 % 1013,5 hPa 0,0 mm 5,3 km/h (1 Bft) W-NW 299 ° 0 min 0,000 mm 1,2 UV-I 100 W/m² 2,7 °C 9,7 km/h (2 Bft)
20.10.2016 14:26 9,8 °C 9,9 °C 62 % 1013,5 hPa 0,0 mm 5,6 km/h (1 Bft) W 277 ° 0 min 0,000 mm 1,1 UV-I 88 W/m² 2,9 °C 14,5 km/h (3 Bft)
20.10.2016 14:27 9,6 °C 9,8 °C 63 % 1013,6 hPa 0,0 mm 17,5 km/h (3 Bft) W 275 ° 0 min 0,000 mm 1,2 UV-I 104 W/m² 2,9 °C 24,1 km/h (4 Bft)
20.10.2016 14:28 9,6 °C 9,7 °C 63 % 1013,6 hPa 0,0 mm 11,7 km/h (2 Bft) NW 305 ° 0 min 0,000 mm 1,4 UV-I 149 W/m² 2,9 °C 14,5 km/h (3 Bft)
20.10.2016 14:29 9,4 °C 9,6 °C 63 % 1013,5 hPa 0,0 mm 6,1 km/h (2 Bft) W 276 ° 0 min 0,000 mm 2,2 UV-I 149 W/m² 2,7 °C 11,3 km/h (2 Bft)
20.10.2016 14:30 9,4 °C 9,4 °C 64 % 1013,6 hPa 0,0 mm 13,2 km/h (3 Bft) W 267 ° 1 min 0,000 mm 2,4 UV-I 585 W/m² 2,9 °C 20,9 km/h (4 Bft)
20.10.2016 14:31 9,4 °C 9,4 °C 62 % 1013,6 hPa 0,0 mm 16,0 km/h (3 Bft) W 277 ° 1 min 0,000 mm 2,4 UV-I 566 W/m² 2,5 °C 24,1 km/h (4 Bft)
20.10.2016 14:32 9,6 °C 9,6 °C 63 % 1013,6 hPa 0,0 mm 11,6 km/h (2 Bft) W-NW 282 ° 1 min 0,000 mm 2,4 UV-I 520 W/m² 2,9 °C 16,1 km/h (3 Bft)
20.10.2016 14:33 9,7 °C 9,7 °C 62 % 1013,6 hPa 0,0 mm 8,6 km/h (2 Bft) W-NW 286 ° 1 min 0,000 mm 2,3 UV-I 504 W/m² 2,8 °C 14,5 km/h (3 Bft)
20.10.2016 14:34 9,8 °C 9,8 °C 64 % 1013,6 hPa 0,0 mm 8,4 km/h (2 Bft) W-SW 244 ° 1 min 0,000 mm 2,2 UV-I 490 W/m² 3,3 °C 17,7 km/h (3 Bft)
20.10.2016 14:35 9,7 °C 9,8 °C 63 % 1013,6 hPa 0,0 mm 6,0 km/h (2 Bft) W-SW 254 ° 1 min 0,000 mm 1,7 UV-I 490 W/m² 3,0 °C 12,9 km/h (3 Bft)
20.10.2016 14:36 9,7 °C 9,7 °C 61 % 1013,6 hPa 0,0 mm 12,9 km/h (3 Bft) W-SW 249 ° 1 min 0,000 mm 2,3 UV-I 490 W/m² 2,5 °C 19,3 km/h (3 Bft)
20.10.2016 14:37 9,6 °C 9,7 °C 62 % 1013,5 hPa 0,0 mm 7,6 km/h (2 Bft) W 269 ° 1 min 0,000 mm 2,3 UV-I 520 W/m² 2,7 °C 14,5 km/h (3 Bft)
20.10.2016 14:38 9,7 °C 9,7 °C 61 % 1013,5 hPa 0,0 mm 7,7 km/h (2 Bft) SW 232 ° 1 min 0,000 mm 2,3 UV-I 519 W/m² 2,5 °C 12,9 km/h (3 Bft)
20.10.2016 14:39 9,7 °C 9,7 °C 63 % 1013,6 hPa 0,0 mm 9,0 km/h (2 Bft) SW 228 ° 1 min 0,000 mm 2,3 UV-I 503 W/m² 3,0 °C 17,7 km/h (3 Bft)
20.10.2016 14:40 9,7 °C 9,8 °C 61 % 1013,5 hPa 0,0 mm 5,6 km/h (1 Bft) W 267 ° 1 min 0,000 mm 2,2 UV-I 485 W/m² 2,5 °C 11,3 km/h (2 Bft)
20.10.2016 14:41 9,8 °C 9,8 °C 63 % 1013,5 hPa 0,0 mm 10,9 km/h (2 Bft) W-SW 245 ° 1 min 0,000 mm 2,2 UV-I 473 W/m² 3,1 °C 14,5 km/h (3 Bft)
20.10.2016 14:42 9,8 °C 9,8 °C 61 % 1013,5 hPa 0,0 mm 7,1 km/h (2 Bft) W 265 ° 1 min 0,000 mm 2,2 UV-I 466 W/m² 2,6 °C 12,9 km/h (3 Bft)
20.10.2016 14:43 9,8 °C 9,8 °C 62 % 1013,5 hPa 0,0 mm 8,8 km/h (2 Bft) W 263 ° 1 min 0,000 mm 2,2 UV-I 466 W/m² 2,9 °C 12,9 km/h (3 Bft)
20.10.2016 14:44 9,8 °C 9,8 °C 61 % 1013,4 hPa 0,0 mm 3,6 km/h (1 Bft) W 260 ° 1 min 0,000 mm 2,2 UV-I 464 W/m² 2,6 °C 4,8 km/h (1 Bft)
20.10.2016 14:45 9,8 °C 9,8 °C 62 % 1013,4 hPa 0,0 mm 12,0 km/h (2 Bft) W-SW 250 ° 1 min 0,000 mm 2,2 UV-I 462 W/m² 2,9 °C 20,9 km/h (4 Bft)
20.10.2016 14:46 9,9 °C 9,9 °C 62 % 1013,4 hPa 0,0 mm 6,1 km/h (2 Bft) W 277 ° 1 min 0,000 mm 2,2 UV-I 464 W/m² 3,0 °C 9,7 km/h (2 Bft)
20.10.2016 14:47 9,9 °C 9,9 °C 65 % 1013,4 hPa 0,0 mm 7,4 km/h (2 Bft) W 277 ° 1 min 0,000 mm 2,2 UV-I 466 W/m² 3,6 °C 19,3 km/h (3 Bft)
20.10.2016 14:48 9,9 °C 9,9 °C 60 % 1013,5 hPa 0,0 mm 16,2 km/h (3 Bft) W 262 ° 1 min 0,000 mm 2,2 UV-I 468 W/m² 2,5 °C 25,7 km/h (4 Bft)
20.10.2016 14:49 9,9 °C 9,9 °C 61 % 1013,4 hPa 0,0 mm 14,2 km/h (3 Bft) W 276 ° 1 min 0,000 mm 2,2 UV-I 473 W/m² 2,7 °C 19,3 km/h (3 Bft)
20.10.2016 14:50 9,7 °C 9,9 °C 61 % 1013,4 hPa 0,0 mm 9,1 km/h (2 Bft) W-NW 291 ° 1 min 0,000 mm 2,1 UV-I 473 W/m² 2,5 °C 12,9 km/h (3 Bft)
20.10.2016 14:51 9,7 °C 9,8 °C 60 % 1013,4 hPa 0,0 mm 8,6 km/h (2 Bft) W-NW 286 ° 1 min 0,000 mm 2,1 UV-I 473 W/m² 2,3 °C 12,9 km/h (3 Bft)
20.10.2016 14:52 9,7 °C 9,7 °C 61 % 1013,4 hPa 0,0 mm 8,2 km/h (2 Bft) NW 321 ° 1 min 0,000 mm 2,1 UV-I 480 W/m² 2,5 °C 12,9 km/h (3 Bft)
20.10.2016 14:53 9,8 °C 9,8 °C 62 % 1013,4 hPa 0,0 mm 7,7 km/h (2 Bft) NW 307 ° 1 min 0,000 mm 2,1 UV-I 476 W/m² 2,9 °C 12,9 km/h (3 Bft)
20.10.2016 14:54 9,8 °C 9,8 °C 62 % 1013,4 hPa 0,0 mm 7,0 km/h (2 Bft) W 280 ° 1 min 0,000 mm 2,1 UV-I 471 W/m² 2,9 °C 11,3 km/h (2 Bft)
20.10.2016 14:55 9,8 °C 9,8 °C 61 % 1013,4 hPa 0,0 mm 15,0 km/h (3 Bft) NW 308 ° 1 min 0,000 mm 2,1 UV-I 466 W/m² 2,6 °C 19,3 km/h (3 Bft)
20.10.2016 14:56 9,8 °C 9,8 °C 61 % 1013,4 hPa 0,0 mm 11,9 km/h (2 Bft) NW 312 ° 1 min 0,000 mm 2,1 UV-I 464 W/m² 2,6 °C 17,7 km/h (3 Bft)
20.10.2016 14:57 9,9 °C 9,9 °C 63 % 1013,4 hPa 0,0 mm 8,5 km/h (2 Bft) W-NW 291 ° 1 min 0,000 mm 2,1 UV-I 464 W/m² 3,2 °C 12,9 km/h (3 Bft)
20.10.2016 14:58 9,9 °C 9,9 °C 62 % 1013,3 hPa 0,0 mm 7,6 km/h (2 Bft) SW 225 ° 1 min 0,000 mm 2,0 UV-I 457 W/m² 3,0 °C 12,9 km/h (3 Bft)
20.10.2016 14:59 9,9 °C 9,9 °C 64 % 1013,4 hPa 0,0 mm 10,3 km/h (2 Bft) W-SW 254 ° 1 min 0,000 mm 2,0 UV-I 455 W/m² 3,4 °C 12,9 km/h (3 Bft)
20.10.2016 15:00 9,9 °C 9,9 °C 62 % 1013,4 hPa 0,0 mm 8,9 km/h (2 Bft) N 350 ° 1 min 0,000 mm 2,0 UV-I 452 W/m² 3,0 °C 14,5 km/h (3 Bft)
20.10.2016 15:01 9,9 °C 9,9 °C 63 % 1013,4 hPa 0,0 mm 4,0 km/h (1 Bft) W-NW 284 ° 1 min 0,254 mm 2,0 UV-I 441 W/m² 3,2 °C 9,7 km/h (2 Bft)
20.10.2016 15:02 10,0 °C 10,0 °C 64 % 1013,4 hPa 0,0 mm 7,0 km/h (2 Bft) W-NW 292 ° 1 min 0,000 mm 2,0 UV-I 439 W/m² 3,5 °C 14,5 km/h (3 Bft)
20.10.2016 15:03 10,1 °C 10,1 °C 65 % 1013,4 hPa 0,0 mm 12,7 km/h (3 Bft) W 263 ° 1 min 0,000 mm 2,0 UV-I 434 W/m² 3,8 °C 22,5 km/h (4 Bft)
20.10.2016 15:04 10,0 °C 10,1 °C 64 % 1013,4 hPa 0,0 mm 16,2 km/h (3 Bft) W-NW 289 ° 1 min 0,000 mm 1,9 UV-I 431 W/m² 3,5 °C 20,9 km/h (4 Bft)
20.10.2016 15:05 9,8 °C 10,0 °C 64 % 1013,5 hPa 0,0 mm 13,9 km/h (3 Bft) W 277 ° 1 min 0,000 mm 1,9 UV-I 429 W/m² 3,3 °C 20,9 km/h (4 Bft)
20.10.2016 15:06 9,8 °C 9,8 °C 64 % 1013,5 hPa 0,0 mm 12,3 km/h (3 Bft) W-NW 288 ° 1 min 0,000 mm 1,9 UV-I 425 W/m² 3,3 °C 22,5 km/h (4 Bft)
20.10.2016 15:07 9,7 °C 9,8 °C 64 % 1013,5 hPa 0,0 mm 13,0 km/h (3 Bft) W 278 ° 1 min 0,000 mm 1,9 UV-I 429 W/m² 3,2 °C 19,3 km/h (3 Bft)
20.10.2016 15:08 9,6 °C 9,7 °C 63 % 1013,6 hPa 0,0 mm 8,1 km/h (2 Bft) W-NW 294 ° 1 min 0,000 mm 1,9 UV-I 438 W/m² 2,9 °C 12,9 km/h (3 Bft)
20.10.2016 15:09 9,6 °C 9,6 °C 64 % 1013,4 hPa 0,0 mm 10,1 km/h (2 Bft) W 264 ° 1 min 0,000 mm 1,9 UV-I 439 W/m² 3,1 °C 16,1 km/h (3 Bft)
20.10.2016 15:10 9,6 °C 9,6 °C 65 % 1013,5 hPa 0,0 mm 7,2 km/h (2 Bft) W-NW 287 ° 1 min 0,000 mm 1,8 UV-I 434 W/m² 3,4 °C 11,3 km/h (2 Bft)
20.10.2016 15:11 9,6 °C 9,6 °C 65 % 1013,5 hPa 0,0 mm 14,1 km/h (3 Bft) W-NW 300 ° 1 min 0,000 mm 1,9 UV-I 425 W/m² 3,4 °C 20,9 km/h (4 Bft)
20.10.2016 15:12 9,6 °C 9,6 °C 65 % 1013,4 hPa 0,0 mm 9,3 km/h (2 Bft) W 266 ° 1 min 0,000 mm 1,8 UV-I 415 W/m² 3,4 °C 14,5 km/h (3 Bft)
20.10.2016 15:13 9,6 °C 9,6 °C 65 % 1013,5 hPa 0,0 mm 11,8 km/h (2 Bft) W 281 ° 1 min 0,000 mm 1,8 UV-I 408 W/m² 3,4 °C 14,5 km/h (3 Bft)
20.10.2016 15:14 9,6 °C 9,6 °C 65 % 1013,4 hPa 0,0 mm 5,3 km/h (1 Bft) N-NW 327 ° 1 min 0,000 mm 1,8 UV-I 404 W/m² 3,4 °C 9,7 km/h (2 Bft)
20.10.2016 15:15 9,6 °C 9,6 °C 66 % 1013,5 hPa 0,0 mm 10,1 km/h (2 Bft) W-NW 287 ° 1 min 0,000 mm 1,7 UV-I 403 W/m² 3,6 °C 14,5 km/h (3 Bft)
20.10.2016 15:16 9,7 °C 9,7 °C 65 % 1013,5 hPa 0,0 mm 6,6 km/h (2 Bft) W-NW 288 ° 1 min 0,000 mm 1,7 UV-I 401 W/m² 3,4 °C 11,3 km/h (2 Bft)
20.10.2016 15:17 9,7 °C 9,7 °C 64 % 1013,4 hPa 0,0 mm 7,2 km/h (2 Bft) NW 311 ° 1 min 0,000 mm 1,7 UV-I 399 W/m² 3,2 °C 14,5 km/h (3 Bft)
20.10.2016 15:18 9,6 °C 9,7 °C 64 % 1013,4 hPa 0,0 mm 7,9 km/h (2 Bft) W 281 ° 1 min 0,000 mm 1,7 UV-I 404 W/m² 3,1 °C 11,3 km/h (2 Bft)
20.10.2016 15:19 9,6 °C 9,7 °C 66 % 1013,4 hPa 0,0 mm 11,7 km/h (2 Bft) W-NW 286 ° 1 min 0,000 mm 1,7 UV-I 425 W/m² 3,6 °C 16,1 km/h (3 Bft)
20.10.2016 15:20 9,6 °C 9,6 °C 65 % 1013,3 hPa 0,0 mm 6,8 km/h (2 Bft) W-SW 250 ° 1 min 0,000 mm 1,7 UV-I 429 W/m² 3,4 °C 12,9 km/h (3 Bft)
20.10.2016 15:21 9,6 °C 9,6 °C 65 % 1013,4 hPa 0,0 mm 4,8 km/h (1 Bft) W 275 ° 1 min 0,000 mm 1,6 UV-I 431 W/m² 3,4 °C 9,7 km/h (2 Bft)
20.10.2016 15:22 9,6 °C 9,6 °C 65 % 1013,3 hPa 0,0 mm 9,3 km/h (2 Bft) W 272 ° 1 min 0,000 mm 1,6 UV-I 425 W/m² 3,4 °C 14,5 km/h (3 Bft)
20.10.2016 15:23 9,6 °C 9,6 °C 64 % 1013,3 hPa 0,0 mm 8,3 km/h (2 Bft) W-NW 282 ° 1 min 0,000 mm 1,6 UV-I 417 W/m² 3,1 °C 14,5 km/h (3 Bft)
20.10.2016 15:24 9,6 °C 9,6 °C 65 % 1013,3 hPa 0,0 mm 4,6 km/h (1 Bft) W-SW 257 ° 1 min 0,000 mm 1,2 UV-I 359 W/m² 3,4 °C 9,7 km/h (2 Bft)
20.10.2016 15:25 9,6 °C 9,6 °C 67 % 1013,4 hPa 0,0 mm 5,3 km/h (1 Bft) W-SW 248 ° 1 min 0,000 mm 1,3 UV-I 359 W/m² 3,8 °C 9,7 km/h (2 Bft)
20.10.2016 15:26 9,6 °C 9,6 °C 66 % 1013,4 hPa 0,0 mm 6,6 km/h (2 Bft) W-SW 256 ° 1 min 0,000 mm 1,5 UV-I 359 W/m² 3,6 °C 12,9 km/h (3 Bft)
20.10.2016 15:27 9,6 °C 9,6 °C 66 % 1013,4 hPa 0,0 mm 7,8 km/h (2 Bft) W 276 ° 1 min 0,000 mm 1,5 UV-I 401 W/m² 3,6 °C 14,5 km/h (3 Bft)
20.10.2016 15:28 9,6 °C 9,6 °C 65 % 1013,4 hPa 0,0 mm 9,5 km/h (2 Bft) W-NW 294 ° 1 min 0,000 mm 1,2 UV-I 401 W/m² 3,4 °C 16,1 km/h (3 Bft)
20.10.2016 15:29 9,5 °C 9,6 °C 65 % 1013,4 hPa 0,0 mm 11,6 km/h (2 Bft) W 281 ° 1 min 0,000 mm 1,5 UV-I 401 W/m² 3,3 °C 17,7 km/h (3 Bft)
20.10.2016 15:30 9,5 °C 9,5 °C 65 % 1013,4 hPa 0,0 mm 6,0 km/h (2 Bft) W 273 ° 1 min 0,000 mm 1,5 UV-I 373 W/m² 3,3 °C 12,9 km/h (3 Bft)
20.10.2016 15:31 9,4 °C 9,5 °C 64 % 1013,3 hPa 0,0 mm 8,9 km/h (2 Bft) S-SW 209 ° 1 min 0,000 mm 1,3 UV-I 373 W/m² 2,9 °C 12,9 km/h (3 Bft)
20.10.2016 15:32 9,4 °C 9,4 °C 66 % 1013,4 hPa 0,0 mm 10,0 km/h (2 Bft) SW 232 ° 1 min 0,000 mm 1,4 UV-I 373 W/m² 3,4 °C 16,1 km/h (3 Bft)
20.10.2016 15:33 9,4 °C 9,4 °C 65 % 1013,4 hPa 0,0 mm 7,3 km/h (2 Bft) S-SW 197 ° 1 min 0,000 mm 1,4 UV-I 383 W/m² 3,2 °C 11,3 km/h (2 Bft)
20.10.2016 15:34 9,4 °C 9,4 °C 63 % 1013,4 hPa 0,0 mm 9,3 km/h (2 Bft) W-SW 244 ° 1 min 0,000 mm 1,1 UV-I 383 W/m² 2,7 °C 14,5 km/h (3 Bft)
20.10.2016 15:35 9,3 °C 9,4 °C 65 % 1013,4 hPa 0,0 mm 7,3 km/h (2 Bft) W 281 ° 0 min 0,000 mm 1,1 UV-I 127 W/m² 3,1 °C 12,9 km/h (3 Bft)
20.10.2016 15:36 9,3 °C 9,3 °C 65 % 1013,4 hPa 0,0 mm 5,4 km/h (1 Bft) W 275 ° 0 min 0,000 mm 1,3 UV-I 127 W/m² 3,1 °C 8,0 km/h (2 Bft)
20.10.2016 15:37 9,3 °C 9,3 °C 65 % 1013,4 hPa 0,0 mm 4,0 km/h (1 Bft) W-NW 294 ° 0 min 0,000 mm 1,3 UV-I 127 W/m² 3,1 °C 6,4 km/h (2 Bft)
20.10.2016 15:38 9,2 °C 9,3 °C 64 % 1013,4 hPa 0,0 mm 10,8 km/h (2 Bft) SW 236 ° 0 min 0,000 mm 1,0 UV-I 127 W/m² 2,8 °C 17,7 km/h (3 Bft)
20.10.2016 15:39 9,2 °C 9,2 °C 64 % 1013,5 hPa 0,0 mm 14,4 km/h (3 Bft) W-SW 257 ° 0 min 0,000 mm 1,1 UV-I 127 W/m² 2,8 °C 17,7 km/h (3 Bft)
20.10.2016 15:40 9,1 °C 9,2 °C 64 % 1013,4 hPa 0,0 mm 18,0 km/h (3 Bft) W-SW 257 ° 0 min 0,000 mm 1,2 UV-I 127 W/m² 2,7 °C 27,4 km/h (4 Bft)
20.10.2016 15:41 9,1 °C 9,1 °C 65 % 1013,4 hPa 0,0 mm 13,1 km/h (3 Bft) W-SW 257 ° 0 min 0,000 mm 1,2 UV-I 127 W/m² 2,9 °C 17,7 km/h (3 Bft)
20.10.2016 15:42 9,0 °C 9,1 °C 65 % 1013,4 hPa 0,0 mm 9,2 km/h (2 Bft) NW 306 ° 1 min 0,000 mm 1,3 UV-I 338 W/m² 2,8 °C 14,5 km/h (3 Bft)
20.10.2016 15:43 9,0 °C 9,0 °C 65 % 1013,4 hPa 0,0 mm 4,6 km/h (1 Bft) SW 227 ° 1 min 0,000 mm 1,3 UV-I 338 W/m² 2,8 °C 9,7 km/h (2 Bft)
20.10.2016 15:44 9,0 °C 9,0 °C 66 % 1013,4 hPa 0,0 mm 10,1 km/h (2 Bft) W-NW 294 ° 1 min 0,000 mm 1,3 UV-I 338 W/m² 3,0 °C 17,7 km/h (3 Bft)
20.10.2016 15:45 9,0 °C 9,0 °C 64 % 1013,3 hPa 0,0 mm 8,7 km/h (2 Bft) W-SW 250 ° 1 min 0,000 mm 1,3 UV-I 336 W/m² 2,6 °C 14,5 km/h (3 Bft)
20.10.2016 15:46 9,1 °C 9,1 °C 63 % 1013,3 hPa 0,0 mm 8,2 km/h (2 Bft) W-SW 250 ° 1 min 0,000 mm 1,3 UV-I 334 W/m² 2,4 °C 19,3 km/h (3 Bft)
20.10.2016 15:47 9,1 °C 9,1 °C 64 % 1013,4 hPa 0,0 mm 14,9 km/h (3 Bft) W 264 ° 1 min 0,000 mm 1,3 UV-I 332 W/m² 2,7 °C 22,5 km/h (4 Bft)
20.10.2016 15:48 9,1 °C 9,1 °C 64 % 1013,4 hPa 0,0 mm 8,0 km/h (2 Bft) W 275 ° 1 min 0,000 mm 1,3 UV-I 330 W/m² 2,7 °C 20,9 km/h (4 Bft)
20.10.2016 15:49 9,1 °C 9,1 °C 66 % 1013,4 hPa 0,0 mm 6,8 km/h (2 Bft) W 264 ° 1 min 0,000 mm 1,3 UV-I 276 W/m² 3,1 °C 14,5 km/h (3 Bft)
20.10.2016 15:50 9,1 °C 9,1 °C 65 % 1013,4 hPa 0,0 mm 13,3 km/h (3 Bft) W-NW 299 ° 1 min 0,000 mm 1,3 UV-I 323 W/m² 2,9 °C 20,9 km/h (4 Bft)
20.10.2016 15:51 9,1 °C 9,1 °C 64 % 1013,4 hPa 0,0 mm 10,1 km/h (2 Bft) SW 219 ° 1 min 0,000 mm 1,3 UV-I 323 W/m² 2,7 °C 19,3 km/h (3 Bft)
20.10.2016 15:52 9,1 °C 9,1 °C 65 % 1013,4 hPa 0,0 mm 11,8 km/h (2 Bft) SW 233 ° 1 min 0,000 mm 1,3 UV-I 325 W/m² 2,9 °C 19,3 km/h (3 Bft)
20.10.2016 15:53 9,1 °C 9,1 °C 65 % 1013,4 hPa 0,0 mm 12,4 km/h (3 Bft) W 278 ° 1 min 0,000 mm 1,3 UV-I 323 W/m² 2,9 °C 17,7 km/h (3 Bft)
20.10.2016 15:54 9,0 °C 9,1 °C 64 % 1013,4 hPa 0,0 mm 8,4 km/h (2 Bft) W 261 ° 1 min 0,000 mm 1,3 UV-I 315 W/m² 2,6 °C 12,9 km/h (3 Bft)
20.10.2016 15:55 9,0 °C 9,0 °C 65 % 1013,4 hPa 0,0 mm 8,7 km/h (2 Bft) SW 231 ° 1 min 0,000 mm 1,2 UV-I 311 W/m² 2,8 °C 19,3 km/h (3 Bft)
20.10.2016 15:56 8,9 °C 9,0 °C 66 % 1013,4 hPa 0,0 mm 7,5 km/h (2 Bft) SW 232 ° 1 min 0,000 mm 1,2 UV-I 308 W/m² 2,9 °C 16,1 km/h (3 Bft)
20.10.2016 15:57 8,9 °C 8,9 °C 66 % 1013,4 hPa 0,0 mm 15,5 km/h (3 Bft) W 263 ° 1 min 0,000 mm 1,2 UV-I 306 W/m² 2,9 °C 22,5 km/h (4 Bft)
20.10.2016 15:58 8,9 °C 8,9 °C 64 % 1013,4 hPa 0,0 mm 11,1 km/h (2 Bft) W 280 ° 1 min 0,000 mm 1,2 UV-I 304 W/m² 2,5 °C 17,7 km/h (3 Bft)
20.10.2016 15:59 8,8 °C 8,9 °C 64 % 1013,4 hPa 0,0 mm 4,7 km/h (1 Bft) W 272 ° 1 min 0,000 mm 1,2 UV-I 301 W/m² 2,4 °C 14,5 km/h (3 Bft)
20.10.2016 16:00 8,8 °C 8,8 °C 64 % 1013,4 hPa 0,0 mm 10,2 km/h (2 Bft) W 268 ° 1 min 0,000 mm 1,2 UV-I 295 W/m² 2,4 °C 12,9 km/h (3 Bft)
20.10.2016 16:01 8,8 °C 8,9 °C 65 % 1013,3 hPa 0,0 mm 6,9 km/h (2 Bft) W-SW 256 ° 1 min 0,203 mm 1,1 UV-I 294 W/m² 2,6 °C 14,5 km/h (3 Bft)
20.10.2016 16:02 8,8 °C 8,9 °C 66 % 1013,4 hPa 0,0 mm 7,6 km/h (2 Bft) W-SW 254 ° 1 min 0,000 mm 1,1 UV-I 290 W/m² 2,8 °C 12,9 km/h (3 Bft)
20.10.2016 16:03 8,8 °C 8,8 °C 66 % 1013,3 hPa 0,0 mm 10,9 km/h (2 Bft) NW 307 ° 1 min 0,000 mm 1,1 UV-I 288 W/m² 2,8 °C 14,5 km/h (3 Bft)
20.10.2016 16:04 8,9 °C 8,9 °C 65 % 1013,4 hPa 0,0 mm 8,0 km/h (2 Bft) NW 317 ° 1 min 0,000 mm 1,1 UV-I 287 W/m² 2,7 °C 12,9 km/h (3 Bft)
20.10.2016 16:05 8,9 °C 8,9 °C 66 % 1013,3 hPa 0,0 mm 10,1 km/h (2 Bft) W-SW 254 ° 1 min 0,000 mm 1,1 UV-I 283 W/m² 2,9 °C 12,9 km/h (3 Bft)
20.10.2016 16:06 8,9 °C 8,9 °C 66 % 1013,4 hPa 0,0 mm 8,0 km/h (2 Bft) W-SW 246 ° 1 min 0,000 mm 1,1 UV-I 281 W/m² 2,9 °C 12,9 km/h (3 Bft)
20.10.2016 16:07 8,9 °C 8,9 °C 66 % 1013,4 hPa 0,0 mm 6,0 km/h (2 Bft) W 262 ° 1 min 0,000 mm 1,1 UV-I 281 W/m² 2,9 °C 9,7 km/h (2 Bft)
20.10.2016 16:08 8,9 °C 8,9 °C 66 % 1013,4 hPa 0,0 mm 6,6 km/h (2 Bft) W-SW 246 ° 1 min 0,000 mm 1,1 UV-I 278 W/m² 2,9 °C 12,9 km/h (3 Bft)
20.10.2016 16:09 8,9 °C 8,9 °C 66 % 1013,4 hPa 0,0 mm 9,3 km/h (2 Bft) W-NW 286 ° 1 min 0,000 mm 1,1 UV-I 276 W/m² 2,9 °C 14,5 km/h (3 Bft)
20.10.2016 16:10 8,9 °C 8,9 °C 66 % 1013,4 hPa 0,0 mm 4,8 km/h (1 Bft) W-NW 290 ° 1 min 0,000 mm 1,0 UV-I 274 W/m² 2,9 °C 8,0 km/h (2 Bft)
20.10.2016 16:11 8,9 °C 9,0 °C 67 % 1013,4 hPa 0,0 mm 6,4 km/h (2 Bft) W 281 ° 1 min 0,000 mm 1,0 UV-I 221 W/m² 3,1 °C 11,3 km/h (2 Bft)
20.10.2016 16:12 9,0 °C 9,0 °C 66 % 1013,3 hPa 0,0 mm 8,9 km/h (2 Bft) W-NW 300 ° 1 min 0,000 mm 1,0 UV-I 237 W/m² 3,0 °C 14,5 km/h (3 Bft)
20.10.2016 16:13 8,9 °C 9,1 °C 65 % 1013,4 hPa 0,0 mm 5,6 km/h (1 Bft) W-NW 290 ° 1 min 0,000 mm 0,9 UV-I 200 W/m² 2,7 °C 11,3 km/h (2 Bft)
20.10.2016 16:14 8,9 °C 9,0 °C 66 % 1013,3 hPa 0,0 mm 7,6 km/h (2 Bft) W-SW 250 ° 0 min 0,000 mm 0,9 UV-I 167 W/m² 2,9 °C 12,9 km/h (3 Bft)
20.10.2016 16:15 8,9 °C 8,9 °C 67 % 1013,4 hPa 0,0 mm 8,3 km/h (2 Bft) W 275 ° 0 min 0,000 mm 0,9 UV-I 153 W/m² 3,1 °C 14,5 km/h (3 Bft)
20.10.2016 16:16 8,8 °C 8,9 °C 68 % 1013,4 hPa 0,0 mm 3,9 km/h (1 Bft) W 261 ° 0 min 0,000 mm 0,9 UV-I 135 W/m² 3,2 °C 11,3 km/h (2 Bft)
20.10.2016 16:17 8,8 °C 8,8 °C 68 % 1013,3 hPa 0,0 mm 6,6 km/h (2 Bft) W 269 ° 0 min 0,000 mm 0,8 UV-I 84 W/m² 3,2 °C 14,5 km/h (3 Bft)
20.10.2016 16:18 8,7 °C 8,8 °C 69 % 1013,3 hPa 0,0 mm 8,4 km/h (2 Bft) SW 236 ° 0 min 0,000 mm 0,8 UV-I 58 W/m² 3,3 °C 14,5 km/h (3 Bft)
20.10.2016 16:19 8,7 °C 8,7 °C 68 % 1013,4 hPa 0,0 mm 5,6 km/h (1 Bft) W 268 ° 0 min 0,000 mm 0,0 UV-I 37 W/m² 3,1 °C 11,3 km/h (2 Bft)
20.10.2016 16:20 8,6 °C 8,7 °C 67 % 1013,4 hPa 0,0 mm 4,2 km/h (1 Bft) W 266 ° 0 min 0,000 mm 0,0 UV-I 35 W/m² 2,8 °C 6,4 km/h (2 Bft)
20.10.2016 16:21 8,6 °C 8,7 °C 69 % 1013,4 hPa 0,0 mm 6,0 km/h (2 Bft) W 261 ° 0 min 0,000 mm 0,0 UV-I 37 W/m² 3,2 °C 11,3 km/h (2 Bft)
20.10.2016 16:22 8,6 °C 8,6 °C 69 % 1013,4 hPa 0,0 mm 4,8 km/h (1 Bft) W 268 ° 0 min 0,000 mm 0,0 UV-I 32 W/m² 3,2 °C 8,0 km/h (2 Bft)
20.10.2016 16:23 8,6 °C 8,6 °C 67 % 1013,4 hPa 0,0 mm 5,3 km/h (1 Bft) W-SW 238 ° 0 min 0,000 mm 0,0 UV-I 28 W/m² 2,8 °C 14,5 km/h (3 Bft)
20.10.2016 16:24 8,6 °C 8,6 °C 69 % 1013,4 hPa 0,0 mm 7,1 km/h (2 Bft) W-NW 286 ° 0 min 0,000 mm 0,0 UV-I 28 W/m² 3,2 °C 11,3 km/h (2 Bft)
20.10.2016 16:25 8,5 °C 8,6 °C 69 % 1013,4 hPa 0,0 mm 5,7 km/h (1 Bft) W-NW 293 ° 0 min 0,000 mm 0,0 UV-I 28 W/m² 3,1 °C 8,0 km/h (2 Bft)
20.10.2016 16:26 8,4 °C 8,5 °C 69 % 1013,4 hPa 0,0 mm 6,2 km/h (2 Bft) W 261 ° 0 min 0,000 mm 0,0 UV-I 28 W/m² 3,0 °C 11,3 km/h (2 Bft)
20.10.2016 16:27 8,4 °C 8,4 °C 70 % 1013,5 hPa 0,0 mm 8,0 km/h (2 Bft) W 281 ° 0 min 0,000 mm 0,0 UV-I 26 W/m² 3,3 °C 12,9 km/h (3 Bft)
20.10.2016 16:28 8,4 °C 8,4 °C 69 % 1013,5 hPa 0,0 mm 4,5 km/h (1 Bft) W-NW 292 ° 0 min 0,000 mm 0,0 UV-I 26 W/m² 3,0 °C 8,0 km/h (2 Bft)
20.10.2016 16:29 8,3 °C 8,4 °C 69 % 1013,4 hPa 0,0 mm 6,6 km/h (2 Bft) W 262 ° 0 min 0,000 mm 0,0 UV-I 26 W/m² 3,0 °C 9,7 km/h (2 Bft)
20.10.2016 16:30 8,3 °C 8,3 °C 69 % 1013,4 hPa 0,0 mm 6,3 km/h (2 Bft) W 267 ° 0 min 0,000 mm 0,0 UV-I 26 W/m² 3,0 °C 9,7 km/h (2 Bft)
20.10.2016 16:31 8,3 °C 8,3 °C 69 % 1013,4 hPa 0,0 mm 8,9 km/h (2 Bft) W 279 ° 0 min 0,000 mm 0,0 UV-I 25 W/m² 3,0 °C 12,9 km/h (3 Bft)
20.10.2016 16:32 8,3 °C 8,3 °C 69 % 1013,4 hPa 0,0 mm 5,3 km/h (1 Bft) W 259 ° 0 min 0,000 mm 0,0 UV-I 25 W/m² 3,0 °C 8,0 km/h (2 Bft)
20.10.2016 16:33 8,3 °C 8,3 °C 69 % 1013,4 hPa 0,0 mm 5,7 km/h (1 Bft) W 267 ° 0 min 0,000 mm 0,0 UV-I 25 W/m² 3,0 °C 6,4 km/h (2 Bft)
20.10.2016 16:34 8,3 °C 8,3 °C 69 % 1013,4 hPa 0,0 mm 8,0 km/h (2 Bft) W 267 ° 0 min 0,000 mm 0,0 UV-I 25 W/m² 3,0 °C 12,9 km/h (3 Bft)
20.10.2016 16:35 8,3 °C 8,3 °C 69 % 1013,4 hPa 0,0 mm 9,2 km/h (2 Bft) W 265 ° 0 min 0,000 mm 0,0 UV-I 25 W/m² 3,0 °C 12,9 km/h (3 Bft)
20.10.2016 16:36 8,2 °C 8,3 °C 69 % 1013,4 hPa 0,0 mm 8,7 km/h (2 Bft) W 260 ° 0 min 0,000 mm 0,0 UV-I 25 W/m² 2,9 °C 11,3 km/h (2 Bft)
20.10.2016 16:37 8,1 °C 8,2 °C 70 % 1013,4 hPa 0,0 mm 7,1 km/h (2 Bft) W-SW 242 ° 0 min 0,000 mm 0,0 UV-I 25 W/m² 3,0 °C 11,3 km/h (2 Bft)
20.10.2016 16:38 8,1 °C 8,1 °C 70 % 1013,4 hPa 0,0 mm 7,0 km/h (2 Bft) W-SW 248 ° 0 min 0,000 mm 0,0 UV-I 25 W/m² 3,0 °C 11,3 km/h (2 Bft)
20.10.2016 16:39 8,1 °C 8,1 °C 70 % 1013,4 hPa 0,0 mm 7,7 km/h (2 Bft) W 268 ° 0 min 0,000 mm 0,0 UV-I 25 W/m² 3,0 °C 12,9 km/h (3 Bft)
20.10.2016 16:40 8,0 °C 8,1 °C 70 % 1013,4 hPa 0,0 mm 9,7 km/h (2 Bft) W-SW 246 ° 0 min 0,000 mm 0,0 UV-I 25 W/m² 2,9 °C 17,7 km/h (3 Bft)
20.10.2016 16:41 8,0 °C 8,0 °C 69 % 1013,4 hPa 0,0 mm 9,7 km/h (2 Bft) W 266 ° 0 min 0,000 mm 0,0 UV-I 25 W/m² 2,7 °C 16,1 km/h (3 Bft)
20.10.2016 16:42 8,1 °C 8,1 °C 70 % 1013,4 hPa 0,0 mm 7,4 km/h (2 Bft) W-SW 258 ° 0 min 0,000 mm 0,0 UV-I 25 W/m² 3,0 °C 11,3 km/h (2 Bft)
20.10.2016 16:43 8,1 °C 8,1 °C 70 % 1013,4 hPa 0,0 mm 5,4 km/h (1 Bft) SW 236 ° 0 min 0,000 mm 0,0 UV-I 25 W/m² 3,0 °C 11,3 km/h (2 Bft)
20.10.2016 16:44 8,1 °C 8,1 °C 70 % 1013,4 hPa 0,0 mm 4,6 km/h (1 Bft) SW 228 ° 0 min 0,000 mm 0,0 UV-I 25 W/m² 3,0 °C 8,0 km/h (2 Bft)
20.10.2016 16:45 8,1 °C 8,1 °C 70 % 1013,4 hPa 0,0 mm 3,6 km/h (1 Bft) W 281 ° 0 min 0,000 mm 0,0 UV-I 25 W/m² 3,0 °C 6,4 km/h (2 Bft)
20.10.2016 16:46 8,1 °C 8,1 °C 71 % 1013,4 hPa 0,0 mm 7,1 km/h (2 Bft) W 273 ° 0 min 0,000 mm 0,0 UV-I 32 W/m² 3,2 °C 12,9 km/h (3 Bft)
20.10.2016 16:47 8,1 °C 8,1 °C 69 % 1013,4 hPa 0,0 mm 7,2 km/h (2 Bft) W 280 ° 0 min 0,000 mm 0,0 UV-I 30 W/m² 2,8 °C 12,9 km/h (3 Bft)
20.10.2016 16:48 8,1 °C 8,1 °C 70 % 1013,4 hPa 0,0 mm 5,6 km/h (1 Bft) W 261 ° 0 min 0,000 mm 0,0 UV-I 28 W/m² 3,0 °C 9,7 km/h (2 Bft)
20.10.2016 16:49 8,0 °C 8,1 °C 71 % 1013,4 hPa 0,0 mm 7,1 km/h (2 Bft) W-SW 250 ° 0 min 0,000 mm 0,0 UV-I 28 W/m² 3,1 °C 16,1 km/h (3 Bft)
20.10.2016 16:50 8,0 °C 8,1 °C 71 % 1013,4 hPa 0,0 mm 4,6 km/h (1 Bft) W-SW 248 ° 0 min 0,000 mm 0,0 UV-I 26 W/m² 3,1 °C 11,3 km/h (2 Bft)
20.10.2016 16:51 8,0 °C 8,0 °C 71 % 1013,4 hPa 0,0 mm 7,4 km/h (2 Bft) W-NW 296 ° 0 min 0,000 mm 0,0 UV-I 23 W/m² 3,1 °C 12,9 km/h (3 Bft)
20.10.2016 16:52 7,9 °C 8,0 °C 71 % 1013,5 hPa 0,0 mm 6,2 km/h (2 Bft) W-SW 248 ° 0 min 0,000 mm 0,0 UV-I 23 W/m² 3,0 °C 11,3 km/h (2 Bft)
20.10.2016 16:53 7,9 °C 7,9 °C 71 % 1013,4 hPa 0,0 mm 6,6 km/h (2 Bft) W 275 ° 0 min 0,000 mm 0,0 UV-I 23 W/m² 3,0 °C 11,3 km/h (2 Bft)
20.10.2016 16:54 7,9 °C 7,9 °C 71 % 1013,5 hPa 0,0 mm 11,4 km/h (2 Bft) W-SW 251 ° 0 min 0,000 mm 0,0 UV-I 21 W/m² 3,0 °C 16,1 km/h (3 Bft)
20.10.2016 16:55 7,9 °C 7,9 °C 70 % 1013,4 hPa 0,0 mm 13,3 km/h (3 Bft) SW 236 ° 0 min 0,000 mm 0,0 UV-I 19 W/m² 2,8 °C 22,5 km/h (4 Bft)
20.10.2016 16:56 7,9 °C 7,9 °C 70 % 1013,5 hPa 0,0 mm 10,3 km/h (2 Bft) W 263 ° 0 min 0,000 mm 0,0 UV-I 19 W/m² 2,8 °C 16,1 km/h (3 Bft)
20.10.2016 16:57 7,9 °C 7,9 °C 69 % 1013,5 hPa 0,0 mm 7,6 km/h (2 Bft) W-SW 255 ° 0 min 0,000 mm 0,0 UV-I 19 W/m² 2,6 °C 11,3 km/h (2 Bft)
20.10.2016 16:58 7,9 °C 7,9 °C 69 % 1013,5 hPa 0,0 mm 5,6 km/h (1 Bft) W-NW 284 ° 0 min 0,000 mm 0,0 UV-I 19 W/m² 2,6 °C 8,0 km/h (2 Bft)
20.10.2016 16:59 7,9 °C 7,9 °C 70 % 1013,5 hPa 0,0 mm 5,0 km/h (1 Bft) W-NW 291 ° 0 min 0,000 mm 0,0 UV-I 21 W/m² 2,8 °C 6,4 km/h (2 Bft)
20.10.2016 17:00 7,8 °C 7,9 °C 70 % 1013,5 hPa 0,0 mm 5,4 km/h (1 Bft) W 265 ° 0 min 0,000 mm 0,0 UV-I 23 W/m² 2,7 °C 6,4 km/h (2 Bft)
20.10.2016 17:01 7,7 °C 7,8 °C 70 % 1013,5 hPa 0,0 mm 11,4 km/h (2 Bft) W 271 ° 0 min 0,051 mm 0,0 UV-I 23 W/m² 2,6 °C 14,5 km/h (3 Bft)
20.10.2016 17:02 7,7 °C 7,8 °C 70 % 1013,5 hPa 0,0 mm 9,8 km/h (2 Bft) NW 312 ° 0 min 0,000 mm 0,0 UV-I 23 W/m² 2,6 °C 12,9 km/h (3 Bft)
20.10.2016 17:03 7,7 °C 7,7 °C 70 % 1013,5 hPa 0,0 mm 7,6 km/h (2 Bft) W 273 ° 0 min 0,000 mm 0,0 UV-I 21 W/m² 2,6 °C 11,3 km/h (2 Bft)
20.10.2016 17:04 7,6 °C 7,7 °C 71 % 1013,5 hPa 0,0 mm 5,9 km/h (2 Bft) SW 217 ° 0 min 0,000 mm 0,0 UV-I 21 W/m² 2,7 °C 8,0 km/h (2 Bft)
20.10.2016 17:05 7,6 °C 7,6 °C 71 % 1013,5 hPa 0,0 mm 4,5 km/h (1 Bft) W-SW 244 ° 0 min 0,000 mm 0,0 UV-I 21 W/m² 2,7 °C 6,4 km/h (2 Bft)
20.10.2016 17:06 7,4 °C 7,6 °C 72 % 1013,5 hPa 0,0 mm 8,9 km/h (2 Bft) W 269 ° 0 min 0,000 mm 0,0 UV-I 19 W/m² 2,7 °C 11,3 km/h (2 Bft)
20.10.2016 17:07 7,4 °C 7,4 °C 71 % 1013,5 hPa 0,0 mm 7,3 km/h (2 Bft) W 270 ° 0 min 0,000 mm 0,0 UV-I 19 W/m² 2,5 °C 11,3 km/h (2 Bft)
20.10.2016 17:08 7,4 °C 7,4 °C 72 % 1013,5 hPa 0,0 mm 7,3 km/h (2 Bft) NW 306 ° 0 min 0,000 mm 0,0 UV-I 18 W/m² 2,7 °C 11,3 km/h (2 Bft)
20.10.2016 17:09 7,4 °C 7,4 °C 71 % 1013,5 hPa 0,0 mm 14,0 km/h (3 Bft) SW 236 ° 0 min 0,000 mm 0,0 UV-I 18 W/m² 2,5 °C 22,5 km/h (4 Bft)
20.10.2016 17:10 7,4 °C 7,4 °C 70 % 1013,6 hPa 0,0 mm 15,4 km/h (3 Bft) W 275 ° 0 min 0,000 mm 0,0 UV-I 18 W/m² 2,3 °C 20,9 km/h (4 Bft)
20.10.2016 17:11 7,4 °C 7,4 °C 69 % 1013,5 hPa 0,0 mm 11,1 km/h (2 Bft) W-NW 284 ° 0 min 0,000 mm 0,0 UV-I 18 W/m² 2,1 °C 16,1 km/h (3 Bft)
20.10.2016 17:12 7,5 °C 7,5 °C 69 % 1013,4 hPa 0,0 mm 15,0 km/h (3 Bft) W 265 ° 0 min 0,000 mm 0,0 UV-I 16 W/m² 2,2 °C 24,1 km/h (4 Bft)
20.10.2016 17:13 7,6 °C 7,6 °C 70 % 1013,4 hPa 0,0 mm 9,5 km/h (2 Bft) W-SW 257 ° 0 min 0,000 mm 0,0 UV-I 16 W/m² 2,5 °C 17,7 km/h (3 Bft)
20.10.2016 17:14 7,6 °C 7,6 °C 69 % 1013,5 hPa 0,0 mm 12,9 km/h (3 Bft) W 265 ° 0 min 0,000 mm 0,0 UV-I 16 W/m² 2,3 °C 22,5 km/h (4 Bft)
20.10.2016 17:15 7,6 °C 7,6 °C 70 % 1013,5 hPa 0,0 mm 11,0 km/h (2 Bft) W-SW 258 ° 0 min 0,000 mm 0,0 UV-I 16 W/m² 2,5 °C 16,1 km/h (3 Bft)
20.10.2016 17:16 7,6 °C 7,6 °C 70 % 1013,5 hPa 0,0 mm 11,9 km/h (2 Bft) W-SW 250 ° 0 min 0,000 mm 0,0 UV-I 16 W/m² 2,5 °C 14,5 km/h (3 Bft)
20.10.2016 17:17 7,5 °C 7,6 °C 69 % 1013,5 hPa 0,0 mm 12,0 km/h (2 Bft) W 274 ° 0 min 0,000 mm 0,0 UV-I 16 W/m² 2,2 °C 16,1 km/h (3 Bft)
20.10.2016 17:18 7,6 °C 7,6 °C 69 % 1013,5 hPa 0,0 mm 9,3 km/h (2 Bft) W-NW 290 ° 0 min 0,000 mm 0,0 UV-I 18 W/m² 2,3 °C 16,1 km/h (3 Bft)
20.10.2016 17:19 7,5 °C 7,6 °C 69 % 1013,5 hPa 0,0 mm 4,9 km/h (1 Bft) W-SW 254 ° 0 min 0,000 mm 0,0 UV-I 18 W/m² 2,2 °C 9,7 km/h (2 Bft)
20.10.2016 17:20 7,5 °C 7,5 °C 69 % 1013,5 hPa 0,0 mm 7,8 km/h (2 Bft) W 279 ° 0 min 0,000 mm 0,0 UV-I 19 W/m² 2,2 °C 12,9 km/h (3 Bft)
20.10.2016 17:21 7,5 °C 7,5 °C 70 % 1013,5 hPa 0,0 mm 12,8 km/h (3 Bft) W-NW 289 ° 0 min 0,000 mm 0,0 UV-I 19 W/m² 2,4 °C 17,7 km/h (3 Bft)
20.10.2016 17:22 7,5 °C 7,5 °C 69 % 1013,5 hPa 0,0 mm 7,8 km/h (2 Bft) W 269 ° 0 min 0,000 mm 0,0 UV-I 18 W/m² 2,2 °C 14,5 km/h (3 Bft)
20.10.2016 17:23 7,5 °C 7,6 °C 69 % 1013,5 hPa 0,0 mm 8,4 km/h (2 Bft) W-SW 237 ° 0 min 0,000 mm 0,0 UV-I 18 W/m² 2,2 °C 14,5 km/h (3 Bft)
20.10.2016 17:24 7,5 °C 7,6 °C 69 % 1013,4 hPa 0,0 mm 14,3 km/h (3 Bft) W-NW 290 ° 0 min 0,000 mm 0,0 UV-I 18 W/m² 2,2 °C 22,5 km/h (4 Bft)
20.10.2016 17:25 7,5 °C 7,6 °C 70 % 1013,5 hPa 0,0 mm 9,9 km/h (2 Bft) W-NW 295 ° 0 min 0,000 mm 0,0 UV-I 18 W/m² 2,4 °C 16,1 km/h (3 Bft)
20.10.2016 17:26 7,5 °C 7,5 °C 69 % 1013,5 hPa 0,0 mm 9,9 km/h (2 Bft) W 280 ° 0 min 0,000 mm 0,0 UV-I 19 W/m² 2,2 °C 16,1 km/h (3 Bft)
20.10.2016 17:27 7,5 °C 7,6 °C 69 % 1013,5 hPa 0,0 mm 5,4 km/h (1 Bft) W-NW 284 ° 0 min 0,000 mm 0,0 UV-I 18 W/m² 2,2 °C 6,4 km/h (2 Bft)
20.10.2016 17:28 7,4 °C 7,5 °C 70 % 1013,5 hPa 0,0 mm 5,9 km/h (2 Bft) W-SW 242 ° 0 min 0,000 mm 0,0 UV-I 16 W/m² 2,3 °C 9,7 km/h (2 Bft)
20.10.2016 17:29 7,3 °C 7,4 °C 71 % 1013,6 hPa 0,0 mm 9,6 km/h (2 Bft) W-SW 243 ° 0 min 0,000 mm 0,0 UV-I 16 W/m² 2,4 °C 14,5 km/h (3 Bft)
20.10.2016 17:30 7,2 °C 7,3 °C 71 % 1013,5 hPa 0,0 mm 6,8 km/h (2 Bft) W-SW 254 ° 0 min 0,000 mm 0,0 UV-I 16 W/m² 2,3 °C 12,9 km/h (3 Bft)
20.10.2016 17:31 7,2 °C 7,3 °C 71 % 1013,5 hPa 0,0 mm 6,3 km/h (2 Bft) W 261 ° 0 min 0,000 mm 0,0 UV-I 14 W/m² 2,3 °C 12,9 km/h (3 Bft)
20.10.2016 17:32 7,1 °C 7,2 °C 71 % 1013,5 hPa 0,0 mm 10,3 km/h (2 Bft) W-SW 251 ° 0 min 0,000 mm 0,0 UV-I 14 W/m² 2,2 °C 14,5 km/h (3 Bft)
20.10.2016 17:33 7,1 °C 7,1 °C 71 % 1013,6 hPa 0,0 mm 8,6 km/h (2 Bft) W 281 ° 0 min 0,000 mm 0,0 UV-I 14 W/m² 2,2 °C 12,9 km/h (3 Bft)
20.10.2016 17:34 7,1 °C 7,1 °C 71 % 1013,5 hPa 0,0 mm 5,8 km/h (2 Bft) W 261 ° 0 min 0,000 mm 0,0 UV-I 14 W/m² 2,2 °C 11,3 km/h (2 Bft)
20.10.2016 17:35 7,1 °C 7,1 °C 71 % 1013,5 hPa 0,0 mm 8,4 km/h (2 Bft) W-SW 255 ° 0 min 0,000 mm 0,0 UV-I 14 W/m² 2,2 °C 14,5 km/h (3 Bft)
20.10.2016 17:36 7,1 °C 7,1 °C 71 % 1013,5 hPa 0,0 mm 5,4 km/h (1 Bft) W 265 ° 0 min 0,000 mm 0,0 UV-I 14 W/m² 2,2 °C 11,3 km/h (2 Bft)
20.10.2016 17:37 6,9 °C 7,1 °C 72 % 1013,5 hPa 0,0 mm 6,4 km/h (2 Bft) W-SW 257 ° 0 min 0,000 mm 0,0 UV-I 14 W/m² 2,2 °C 9,7 km/h (2 Bft)
20.10.2016 17:38 6,9 °C 6,9 °C 72 % 1013,5 hPa 0,0 mm 5,2 km/h (1 Bft) W-SW 247 ° 0 min 0,000 mm 0,0 UV-I 14 W/m² 2,2 °C 6,4 km/h (2 Bft)
20.10.2016 17:39 6,8 °C 6,9 °C 72 % 1013,6 hPa 0,0 mm 3,8 km/h (1 Bft) W 262 ° 0 min 0,000 mm 0,0 UV-I 14 W/m² 2,1 °C 6,4 km/h (2 Bft)
20.10.2016 17:40 6,8 °C 6,8 °C 72 % 1013,5 hPa 0,0 mm 5,7 km/h (1 Bft) W-SW 241 ° 0 min 0,000 mm 0,0 UV-I 14 W/m² 2,1 °C 8,0 km/h (2 Bft)
20.10.2016 17:41 6,7 °C 6,8 °C 72 % 1013,5 hPa 0,0 mm 7,0 km/h (2 Bft) W 275 ° 0 min 0,000 mm 0,0 UV-I 14 W/m² 2,0 °C 11,3 km/h (2 Bft)
20.10.2016 17:42 6,7 °C 6,8 °C 73 % 1013,5 hPa 0,0 mm 5,3 km/h (1 Bft) W-SW 254 ° 0 min 0,000 mm 0,0 UV-I 16 W/m² 2,2 °C 12,9 km/h (3 Bft)
20.10.2016 17:43 6,7 °C 6,7 °C 73 % 1013,6 hPa 0,0 mm 7,6 km/h (2 Bft) W 259 ° 0 min 0,000 mm 0,0 UV-I 16 W/m² 2,2 °C 12,9 km/h (3 Bft)
20.10.2016 17:44 6,7 °C 6,7 °C 73 % 1013,6 hPa 0,0 mm 3,1 km/h (1 Bft) W 259 ° 0 min 0,000 mm 0,0 UV-I 18 W/m² 2,2 °C 4,8 km/h (1 Bft)
20.10.2016 17:45 6,7 °C 6,7 °C 74 % 1013,6 hPa 0,0 mm 3,0 km/h (1 Bft) W 279 ° 0 min 0,000 mm 0,0 UV-I 16 W/m² 2,4 °C 4,8 km/h (1 Bft)
20.10.2016 17:46 6,6 °C 6,7 °C 74 % 1013,6 hPa 0,0 mm 4,4 km/h (1 Bft) W-SW 244 ° 0 min 0,000 mm 0,0 UV-I 16 W/m² 2,3 °C 8,0 km/h (2 Bft)
20.10.2016 17:47 6,5 °C 6,6 °C 74 % 1013,6 hPa 0,0 mm 8,6 km/h (2 Bft) W-SW 249 ° 0 min 0,000 mm 0,0 UV-I 14 W/m² 2,2 °C 14,5 km/h (3 Bft)
20.10.2016 17:48 6,6 °C 6,6 °C 73 % 1013,6 hPa 0,0 mm 7,8 km/h (2 Bft) W 278 ° 0 min 0,000 mm 0,0 UV-I 12 W/m² 2,1 °C 14,5 km/h (3 Bft)
20.10.2016 17:49 6,7 °C 6,7 °C 74 % 1013,6 hPa 0,0 mm 3,0 km/h (1 Bft) W 264 ° 0 min 0,000 mm 0,0 UV-I 12 W/m² 2,4 °C 6,4 km/h (2 Bft)
20.10.2016 17:50 6,7 °C 6,7 °C 74 % 1013,6 hPa 0,0 mm 6,2 km/h (2 Bft) W 273 ° 0 min 0,000 mm 0,0 UV-I 12 W/m² 2,4 °C 9,7 km/h (2 Bft)
20.10.2016 17:51 6,7 °C 6,7 °C 74 % 1013,5 hPa 0,0 mm 5,6 km/h (1 Bft) W 265 ° 0 min 0,000 mm 0,0 UV-I 12 W/m² 2,4 °C 8,0 km/h (2 Bft)
20.10.2016 17:52 6,7 °C 6,7 °C 74 % 1013,5 hPa 0,0 mm 5,0 km/h (1 Bft) W 267 ° 0 min 0,000 mm 0,0 UV-I 12 W/m² 2,4 °C 6,4 km/h (2 Bft)
20.10.2016 17:53 6,7 °C 6,7 °C 74 % 1013,5 hPa 0,0 mm 5,2 km/h (1 Bft) W-SW 253 ° 0 min 0,000 mm 0,0 UV-I 12 W/m² 2,4 °C 6,4 km/h (2 Bft)
20.10.2016 17:54 6,7 °C 6,7 °C 74 % 1013,6 hPa 0,0 mm 6,4 km/h (2 Bft) W 259 ° 0 min 0,000 mm 0,0 UV-I 12 W/m² 2,4 °C 11,3 km/h (2 Bft)
20.10.2016 17:55 6,7 °C 6,7 °C 74 % 1013,5 hPa 0,0 mm 4,4 km/h (1 Bft) W 271 ° 0 min 0,000 mm 0,0 UV-I 12 W/m² 2,4 °C 6,4 km/h (2 Bft)
20.10.2016 17:56 6,6 °C 6,7 °C 74 % 1013,6 hPa 0,0 mm 4,6 km/h (1 Bft) W-SW 247 ° 0 min 0,000 mm 0,0 UV-I 12 W/m² 2,3 °C 6,4 km/h (2 Bft)
20.10.2016 17:57 6,6 °C 6,6 °C 75 % 1013,5 hPa 0,0 mm 8,2 km/h (2 Bft) W 269 ° 0 min 0,000 mm 0,0 UV-I 11 W/m² 2,5 °C 12,9 km/h (3 Bft)
20.10.2016 17:58 6,5 °C 6,6 °C 74 % 1013,5 hPa 0,0 mm 5,4 km/h (1 Bft) W 276 ° 0 min 0,000 mm 0,0 UV-I 11 W/m² 2,2 °C 11,3 km/h (2 Bft)
20.10.2016 17:59 6,4 °C 6,5 °C 74 % 1013,5 hPa 0,0 mm 6,2 km/h (2 Bft) W 261 ° 0 min 0,000 mm 0,0 UV-I 11 W/m² 2,1 °C 11,3 km/h (2 Bft)
20.10.2016 18:00 6,4 °C 6,5 °C 75 % 1013,6 hPa 0,0 mm 6,6 km/h (2 Bft) W 265 ° 0 min 0,000 mm 0,0 UV-I 11 W/m² 2,3 °C 11,3 km/h (2 Bft)
20.10.2016 18:01 6,4 °C 6,4 °C 75 % 1013,5 hPa 0,0 mm 5,8 km/h (2 Bft) W 263 ° 0 min 0,025 mm 0,0 UV-I 11 W/m² 2,3 °C 12,9 km/h (3 Bft)
20.10.2016 18:02 6,4 °C 6,4 °C 75 % 1013,5 hPa 0,0 mm 7,1 km/h (2 Bft) W-SW 239 ° 0 min 0,000 mm 0,0 UV-I 11 W/m² 2,3 °C 11,3 km/h (2 Bft)
20.10.2016 18:03 6,4 °C 6,4 °C 75 % 1013,6 hPa 0,0 mm 6,5 km/h (2 Bft) W-SW 257 ° 0 min 0,000 mm 0,0 UV-I 9 W/m² 2,3 °C 11,3 km/h (2 Bft)
20.10.2016 18:04 6,3 °C 6,4 °C 75 % 1013,5 hPa 0,0 mm 5,1 km/h (1 Bft) W 279 ° 0 min 0,000 mm 0,0 UV-I 9 W/m² 2,2 °C 8,0 km/h (2 Bft)
20.10.2016 18:05 6,3 °C 6,3 °C 76 % 1013,5 hPa 0,0 mm 9,4 km/h (2 Bft) W 271 ° 0 min 0,000 mm 0,0 UV-I 9 W/m² 2,4 °C 14,5 km/h (3 Bft)
20.10.2016 18:06 6,3 °C 6,3 °C 75 % 1013,5 hPa 0,0 mm 6,0 km/h (2 Bft) W-SW 251 ° 0 min 0,000 mm 0,0 UV-I 9 W/m² 2,2 °C 9,7 km/h (2 Bft)
20.10.2016 18:07 6,3 °C 6,3 °C 75 % 1013,5 hPa 0,0 mm 6,0 km/h (2 Bft) W 264 ° 0 min 0,000 mm 0,0 UV-I 7 W/m² 2,2 °C 9,7 km/h (2 Bft)
20.10.2016 18:08 6,2 °C 6,3 °C 75 % 1013,6 hPa 0,0 mm 6,0 km/h (2 Bft) W-NW 292 ° 0 min 0,000 mm 0,0 UV-I 7 W/m² 2,1 °C 11,3 km/h (2 Bft)
20.10.2016 18:09 6,2 °C 6,2 °C 75 % 1013,6 hPa 0,0 mm 5,1 km/h (1 Bft) W 263 ° 0 min 0,000 mm 0,0 UV-I 7 W/m² 2,1 °C 6,4 km/h (2 Bft)
20.10.2016 18:10 6,2 °C 6,2 °C 75 % 1013,6 hPa 0,0 mm 5,7 km/h (1 Bft) W-NW 292 ° 0 min 0,000 mm 0,0 UV-I 5 W/m² 2,1 °C 11,3 km/h (2 Bft)
20.10.2016 18:11 6,2 °C 6,2 °C 75 % 1013,5 hPa 0,0 mm 6,4 km/h (2 Bft) W 281 ° 0 min 0,000 mm 0,0 UV-I 5 W/m² 2,1 °C 11,3 km/h (2 Bft)
20.10.2016 18:12 6,1 °C 6,2 °C 75 % 1013,6 hPa 0,0 mm 4,6 km/h (1 Bft) W-SW 258 ° 0 min 0,000 mm 0,0 UV-I 5 W/m² 2,0 °C 12,9 km/h (3 Bft)
20.10.2016 18:13 6,1 °C 6,1 °C 75 % 1013,6 hPa 0,0 mm 8,9 km/h (2 Bft) W-SW 249 ° 0 min 0,000 mm 0,0 UV-I 5 W/m² 2,0 °C 12,9 km/h (3 Bft)
20.10.2016 18:14 6,1 °C 6,1 °C 76 % 1013,5 hPa 0,0 mm 5,6 km/h (1 Bft) W 271 ° 0 min 0,000 mm 0,0 UV-I 5 W/m² 2,2 °C 11,3 km/h (2 Bft)
20.10.2016 18:15 6,1 °C 6,1 °C 76 % 1013,5 hPa 0,0 mm 5,4 km/h (1 Bft) W 275 ° 0 min 0,000 mm 0,0 UV-I 5 W/m² 2,2 °C 6,4 km/h (2 Bft)
20.10.2016 18:16 5,9 °C 6,1 °C 75 % 1013,5 hPa 0,0 mm 4,0 km/h (1 Bft) W 279 ° 0 min 0,000 mm 0,0 UV-I 0 W/m² 1,8 °C 6,4 km/h (2 Bft)
20.10.2016 18:17 5,9 °C 6,0 °C 76 % 1013,5 hPa 0,0 mm 5,6 km/h (1 Bft) W-SW 246 ° 0 min 0,000 mm 0,0 UV-I 0 W/m² 2,0 °C 9,7 km/h (2 Bft)
20.10.2016 18:18 5,9 °C 5,9 °C 76 % 1013,5 hPa 0,0 mm 8,6 km/h (2 Bft) W-NW 288 ° 0 min 0,000 mm 0,0 UV-I 0 W/m² 2,0 °C 12,9 km/h (3 Bft)
20.10.2016 18:19 6,0 °C 6,0 °C 76 % 1013,5 hPa 0,0 mm 7,7 km/h (2 Bft) W-SW 256 ° 0 min 0,000 mm 0,0 UV-I 0 W/m² 2,1 °C 12,9 km/h (3 Bft)
20.10.2016 18:20 5,9 °C 6,0 °C 76 % 1013,5 hPa 0,0 mm 10,4 km/h (2 Bft) W-SW 246 ° 0 min 0,000 mm 0,0 UV-I 0 W/m² 2,0 °C 14,5 km/h (3 Bft)
20.10.2016 18:21 5,9 °C 5,9 °C 76 % 1013,6 hPa 0,0 mm 6,4 km/h (2 Bft) W-SW 258 ° 0 min 0,000 mm 0,0 UV-I 0 W/m² 2,0 °C 11,3 km/h (2 Bft)
20.10.2016 18:22 5,9 °C 5,9 °C 76 % 1013,6 hPa 0,0 mm 5,1 km/h (1 Bft) W-SW 254 ° 0 min 0,000 mm 0,0 UV-I 0 W/m² 2,0 °C 8,0 km/h (2 Bft)
20.10.2016 18:23 5,9 °C 5,9 °C 76 % 1013,6 hPa 0,0 mm 4,0 km/h (1 Bft) W-SW 244 ° 0 min 0,000 mm 0,0 UV-I 0 W/m² 2,0 °C 6,4 km/h (2 Bft)
20.10.2016 18:24 5,8 °C 5,9 °C 76 % 1013,6 hPa 0,0 mm 7,4 km/h (2 Bft) W-SW 238 ° 0 min 0,000 mm 0,0 UV-I 0 W/m² 1,9 °C 12,9 km/h (3 Bft)
20.10.2016 18:25 5,8 °C 5,8 °C 77 % 1013,6 hPa 0,0 mm 9,1 km/h (2 Bft) W 259 ° 0 min 0,000 mm 0,0 UV-I 0 W/m² 2,1 °C 14,5 km/h (3 Bft)
20.10.2016 18:26 5,8 °C 5,8 °C 76 % 1013,6 hPa 0,0 mm 8,7 km/h (2 Bft) W 278 ° 0 min 0,000 mm 0,0 UV-I 0 W/m² 1,9 °C 11,3 km/h (2 Bft)
20.10.2016 18:27 5,7 °C 5,8 °C 77 % 1013,6 hPa 0,0 mm 5,0 km/h (1 Bft) W-SW 250 ° 0 min 0,000 mm 0,0 UV-I 0 W/m² 2,0 °C 8,0 km/h (2 Bft)
20.10.2016 18:28 5,7 °C 5,8 °C 77 % 1013,6 hPa 0,0 mm 7,0 km/h (2 Bft) W-SW 255 ° 0 min 0,000 mm 0,0 UV-I 0 W/m² 2,0 °C 11,3 km/h (2 Bft)
20.10.2016 18:29 5,7 °C 5,7 °C 77 % 1013,6 hPa 0,0 mm 4,4 km/h (1 Bft) W 275 ° 0 min 0,000 mm 0,0 UV-I 0 W/m² 2,0 °C 8,0 km/h (2 Bft)
20.10.2016 18:30 5,7 °C 5,7 °C 77 % 1013,6 hPa 0,0 mm 6,2 km/h (2 Bft) W-SW 254 ° 0 min 0,000 mm 0,0 UV-I 0 W/m² 2,0 °C 8,0 km/h (2 Bft)
20.10.2016 18:31 5,7 °C 5,7 °C 77 % 1013,6 hPa 0,0 mm 3,8 km/h (1 Bft) W 259 ° 0 min 0,000 mm 0,0 UV-I 0 W/m² 2,0 °C 8,0 km/h (2 Bft)
20.10.2016 18:32 5,7 °C 5,7 °C 77 % 1013,7 hPa 0,0 mm 4,1 km/h (1 Bft) W-SW 244 ° 0 min 0,000 mm 0,0 UV-I 0 W/m² 2,0 °C 6,4 km/h (2 Bft)
20.10.2016 18:33 5,7 °C 5,7 °C 77 % 1013,7 hPa 0,0 mm 5,3 km/h (1 Bft) W-SW 257 ° 0 min 0,000 mm 0,0 UV-I 0 W/m² 2,0 °C 9,7 km/h (2 Bft)
20.10.2016 18:34 5,7 °C 5,7 °C 77 % 1013,6 hPa 0,0 mm 5,6 km/h (1 Bft) W-SW 246 ° 0 min 0,000 mm 0,0 UV-I 0 W/m² 2,0 °C 8,0 km/h (2 Bft)
20.10.2016 18:35 5,7 °C 5,7 °C 77 % 1013,7 hPa 0,0 mm 6,2 km/h (2 Bft) SW 221 ° 0 min 0,000 mm 0,0 UV-I 0 W/m² 2,0 °C 11,3 km/h (2 Bft)
20.10.2016 18:36 5,6 °C 5,7 °C 77 % 1013,7 hPa 0,0 mm 4,2 km/h (1 Bft) W-SW 248 ° 0 min 0,000 mm 0,0 UV-I 0 W/m² 1,9 °C 6,4 km/h (2 Bft)
20.10.2016 18:37 5,6 °C 5,6 °C 77 % 1013,7 hPa 0,0 mm 4,7 km/h (1 Bft) W-SW 254 ° 0 min 0,000 mm 0,0 UV-I 0 W/m² 1,9 °C 6,4 km/h (2 Bft)
20.10.2016 18:38 5,6 °C 5,6 °C 77 % 1013,7 hPa 0,0 mm 4,1 km/h (1 Bft) W-SW 250 ° 0 min 0,000 mm 0,0 UV-I 0 W/m² 1,9 °C 4,8 km/h (1 Bft)
20.10.2016 18:39 5,6 °C 5,6 °C 77 % 1013,7 hPa 0,0 mm 5,1 km/h (1 Bft) SW 222 ° 0 min 0,000 mm 0,0 UV-I 0 W/m² 1,9 °C 8,0 km/h (2 Bft)
20.10.2016 18:40 5,6 °C 5,6 °C 77 % 1013,7 hPa 0,0 mm 5,6 km/h (1 Bft) W-SW 258 ° 0 min 0,000 mm 0,0 UV-I 0 W/m² 1,9 °C 11,3 km/h (2 Bft)
20.10.2016 18:41 5,6 °C 5,6 °C 77 % 1013,8 hPa 0,0 mm 4,2 km/h (1 Bft) W-SW 254 ° 0 min 0,000 mm 0,0 UV-I 0 W/m² 1,9 °C 6,4 km/h (2 Bft)
20.10.2016 18:42 5,6 °C 5,6 °C 77 % 1013,7 hPa 0,0 mm 4,2 km/h (1 Bft) SW 235 ° 0 min 0,000 mm 0,0 UV-I 0 W/m² 1,9 °C 6,4 km/h (2 Bft)
20.10.2016 18:43 5,6 °C 5,6 °C 77 % 1013,7 hPa 0,0 mm 3,0 km/h (1 Bft) W 265 ° 0 min 0,000 mm 0,0 UV-I 0 W/m² 1,9 °C 4,8 km/h (1 Bft)
20.10.2016 18:44 5,6 °C 5,6 °C 77 % 1013,8 hPa 0,0 mm 5,9 km/h (2 Bft) W-SW 240 ° 0 min 0,000 mm 0,0 UV-I 0 W/m² 1,9 °C 9,7 km/h (2 Bft)
20.10.2016 18:45 5,6 °C 5,6 °C 77 % 1013,8 hPa 0,0 mm 4,8 km/h (1 Bft) SW 235 ° 0 min 0,000 mm 0,0 UV-I 0 W/m² 1,9 °C 8,0 km/h (2 Bft)
20.10.2016 18:46 5,6 °C 5,6 °C 77 % 1013,8 hPa 0,0 mm 4,5 km/h (1 Bft) W-SW 252 ° 0 min 0,000 mm 0,0 UV-I 0 W/m² 1,9 °C 6,4 km/h (2 Bft)
20.10.2016 18:47 5,6 °C 5,6 °C 77 % 1013,8 hPa 0,0 mm 2,4 km/h (1 Bft) W-SW 254 ° 0 min 0,000 mm 0,0 UV-I 0 W/m² 1,9 °C 4,8 km/h (1 Bft)
20.10.2016 18:48 5,6 °C 5,6 °C 77 % 1013,8 hPa 0,0 mm 5,8 km/h (2 Bft) SW 225 ° 0 min 0,000 mm 0,0 UV-I 0 W/m² 1,9 °C 9,7 km/h (2 Bft)
20.10.2016 18:49 5,4 °C 5,6 °C 78 % 1013,8 hPa 0,0 mm 7,4 km/h (2 Bft) W 265 ° 0 min 0,000 mm 0,0 UV-I 0 W/m² 1,9 °C 11,3 km/h (2 Bft)
20.10.2016 18:50 5,4 °C 5,4 °C 78 % 1013,8 hPa 0,0 mm 7,8 km/h (2 Bft) W-SW 238 ° 0 min 0,000 mm 0,0 UV-I 0 W/m² 1,9 °C 11,3 km/h (2 Bft)
20.10.2016 18:51 5,4 °C 5,4 °C 78 % 1013,8 hPa 0,0 mm 6,3 km/h (2 Bft) W-SW 251 ° 0 min 0,000 mm 0,0 UV-I 0 W/m² 1,9 °C 9,7 km/h (2 Bft)
20.10.2016 18:52 5,3 °C 5,4 °C 78 % 1013,8 hPa 0,0 mm 5,8 km/h (2 Bft) W-SW 251 ° 0 min 0,000 mm 0,0 UV-I 0 W/m² 1,8 °C 8,0 km/h (2 Bft)
20.10.2016 18:53 5,4 °C 5,4 °C 78 % 1013,9 hPa 0,0 mm 2,0 km/h (1 Bft) W-SW 245 ° 0 min 0,000 mm 0,0 UV-I 0 W/m² 1,9 °C 4,8 km/h (1 Bft)
20.10.2016 18:54 5,3 °C 5,4 °C 78 % 1013,8 hPa 0,0 mm 5,0 km/h (1 Bft) W 269 ° 0 min 0,000 mm 0,0 UV-I 0 W/m² 1,8 °C 8,0 km/h (2 Bft)
20.10.2016 18:55 5,3 °C 5,3 °C 78 % 1013,7 hPa 0,0 mm 1,9 km/h (1 Bft) W 260 ° 0 min 0,000 mm 0,0 UV-I 0 W/m² 1,8 °C 4,8 km/h (1 Bft)
20.10.2016 18:56 5,4 °C 5,4 °C 78 % 1013,9 hPa 0,0 mm 4,3 km/h (1 Bft) W-SW 253 ° 0 min 0,000 mm 0,0 UV-I 0 W/m² 1,9 °C 8,0 km/h (2 Bft)
20.10.2016 18:57 5,4 °C 5,4 °C 78 % 1013,9 hPa 0,0 mm 7,4 km/h (2 Bft) W-SW 238 ° 0 min 0,000 mm 0,0 UV-I 0 W/m² 1,9 °C 11,3 km/h (2 Bft)
20.10.2016 18:58 5,4 °C 5,4 °C 78 % 1013,9 hPa 0,0 mm 6,0 km/h (2 Bft) W-SW 251 ° 0 min 0,000 mm 0,0 UV-I 0 W/m² 1,9 °C 8,0 km/h (2 Bft)
20.10.2016 18:59 5,3 °C 5,4 °C 78 % 1013,9 hPa 0,0 mm 6,7 km/h (2 Bft) W-SW 253 ° 0 min 0,000 mm 0,0 UV-I 0 W/m² 1,8 °C 12,9 km/h (3 Bft)
20.10.2016 19:00 5,3 °C 5,3 °C 78 % 1013,9 hPa 0,0 mm 8,1 km/h (2 Bft) W 270 ° 0 min 0,000 mm 0,0 UV-I 0 W/m² 1,8 °C 16,1 km/h (3 Bft)
20.10.2016 19:01 5,2 °C 5,3 °C 78 % 1013,9 hPa 0,0 mm 4,8 km/h (1 Bft) W-NW 284 ° 0 min 0,025 mm 0,0 UV-I 0 W/m² 1,7 °C 8,0 km/h (2 Bft)
20.10.2016 19:02 5,2 °C 5,2 °C 78 % 1013,9 hPa 0,0 mm 8,7 km/h (2 Bft) W-SW 252 ° 0 min 0,001 mm 0,0 UV-I 0 W/m² 1,7 °C 12,9 km/h (3 Bft)
20.10.2016 19:03 5,2 °C 5,2 °C 79 % 1013,9 hPa 0,0 mm 5,5 km/h (1 Bft) W 277 ° 0 min 0,000 mm 0,0 UV-I 0 W/m² 1,9 °C 6,4 km/h (2 Bft)
20.10.2016 19:04 5,2 °C 5,2 °C 78 % 1013,9 hPa 0,0 mm 8,2 km/h (2 Bft) W 269 ° 0 min 0,000 mm 0,0 UV-I 0 W/m² 1,7 °C 16,1 km/h (3 Bft)
20.10.2016 19:05 5,2 °C 5,2 °C 79 % 1013,9 hPa 0,0 mm 8,9 km/h (2 Bft) W 281 ° 0 min 0,000 mm 0,0 UV-I 0 W/m² 1,9 °C 11,3 km/h (2 Bft)
20.10.2016 19:06 5,2 °C 5,2 °C 79 % 1013,9 hPa 0,0 mm 6,8 km/h (2 Bft) W-SW 252 ° 0 min 0,000 mm 0,0 UV-I 0 W/m² 1,9 °C 9,7 km/h (2 Bft)
20.10.2016 19:07 5,2 °C 5,3 °C 79 % 1013,9 hPa 0,0 mm 8,0 km/h (2 Bft) W 262 ° 0 min 0,000 mm 0,0 UV-I 0 W/m² 1,9 °C 12,9 km/h (3 Bft)
20.10.2016 19:08 5,2 °C 5,2 °C 79 % 1013,9 hPa 0,0 mm 9,1 km/h (2 Bft) W-NW 288 ° 0 min 0,000 mm 0,0 UV-I 0 W/m² 1,9 °C 14,5 km/h (3 Bft)
20.10.2016 19:09 5,3 °C 5,3 °C 79 % 1013,9 hPa 0,0 mm 9,6 km/h (2 Bft) W 271 ° 0 min 0,000 mm 0,0 UV-I 0 W/m² 2,0 °C 14,5 km/h (3 Bft)
20.10.2016 19:10 5,3 °C 5,3 °C 79 % 1013,9 hPa 0,0 mm 8,6 km/h (2 Bft) W-NW 290 ° 0 min 0,000 mm 0,0 UV-I 0 W/m² 2,0 °C 12,9 km/h (3 Bft)
20.10.2016 19:11 5,3 °C 5,3 °C 79 % 1013,9 hPa 0,0 mm 8,4 km/h (2 Bft) W-SW 246 ° 0 min 0,000 mm 0,0 UV-I 0 W/m² 2,0 °C 12,9 km/h (3 Bft)
20.10.2016 19:12 5,2 °C 5,3 °C 79 % 1013,9 hPa 0,0 mm 7,5 km/h (2 Bft) W-SW 240 ° 0 min 0,000 mm 0,0 UV-I 0 W/m² 1,9 °C 14,5 km/h (3 Bft)
20.10.2016 19:13 5,3 °C 5,3 °C 79 % 1013,9 hPa 0,0 mm 8,0 km/h (2 Bft) W-NW 286 ° 0 min 0,000 mm 0,0 UV-I 0 W/m² 2,0 °C 12,9 km/h (3 Bft)
20.10.2016 19:14 5,3 °C 5,3 °C 79 % 1013,9 hPa 0,0 mm 8,1 km/h (2 Bft) W-SW 247 ° 0 min 0,000 mm 0,0 UV-I 0 W/m² 2,0 °C 11,3 km/h (2 Bft)
20.10.2016 19:15 5,3 °C 5,3 °C 79 % 1014,0 hPa 0,0 mm 9,1 km/h (2 Bft) W 262 ° 0 min 0,000 mm 0,0 UV-I 0 W/m² 2,0 °C 14,5 km/h (3 Bft)
20.10.2016 19:16 5,3 °C 5,3 °C 79 % 1014,0 hPa 0,0 mm 5,4 km/h (1 Bft) W-SW 246 ° 0 min 0,000 mm 0,0 UV-I 0 W/m² 2,0 °C 8,0 km/h (2 Bft)
20.10.2016 19:17 5,2 °C 5,3 °C 79 % 1013,9 hPa 0,0 mm 7,0 km/h (2 Bft) SW 219 ° 0 min 0,000 mm 0,0 UV-I 0 W/m² 1,9 °C 9,7 km/h (2 Bft)
20.10.2016 19:18 5,2 °C 5,3 °C 79 % 1013,9 hPa 0,0 mm 9,4 km/h (2 Bft) W-NW 286 ° 0 min 0,000 mm 0,0 UV-I 0 W/m² 1,9 °C 12,9 km/h (3 Bft)
20.10.2016 19:19 5,2 °C 5,2 °C 79 % 1013,9 hPa 0,0 mm 10,1 km/h (2 Bft) W-SW 248 ° 0 min 0,000 mm 0,0 UV-I 0 W/m² 1,9 °C 14,5 km/h (3 Bft)
20.10.2016 19:20 5,2 °C 5,2 °C 79 % 1013,9 hPa 0,0 mm 6,3 km/h (2 Bft) W 267 ° 0 min 0,000 mm 0,0 UV-I 0 W/m² 1,9 °C 12,9 km/h (3 Bft)
20.10.2016 19:21 5,2 °C 5,2 °C 79 % 1013,9 hPa 0,0 mm 6,4 km/h (2 Bft) SW 225 ° 0 min 0,000 mm 0,0 UV-I 0 W/m² 1,9 °C 11,3 km/h (2 Bft)
20.10.2016 19:22 5,2 °C 5,2 °C 79 % 1013,9 hPa 0,0 mm 7,2 km/h (2 Bft) W-SW 239 ° 0 min 0,000 mm 0,0 UV-I 0 W/m² 1,9 °C 11,3 km/h (2 Bft)
20.10.2016 19:23 5,2 °C 5,2 °C 79 % 1013,9 hPa 0,0 mm 8,6 km/h (2 Bft) W-NW 285 ° 0 min 0,000 mm 0,0 UV-I 0 W/m² 1,9 °C 12,9 km/h (3 Bft)
20.10.2016 19:24 5,2 °C 5,2 °C 79 % 1013,9 hPa 0,0 mm 5,0 km/h (1 Bft) W-SW 244 ° 0 min 0,000 mm 0,0 UV-I 0 W/m² 1,9 °C 6,4 km/h (2 Bft)
20.10.2016 19:25 5,2 °C 5,2 °C 79 % 1013,9 hPa 0,0 mm 4,6 km/h (1 Bft) W-SW 252 ° 0 min 0,000 mm 0,0 UV-I 0 W/m² 1,9 °C 8,0 km/h (2 Bft)
20.10.2016 19:26 5,2 °C 5,2 °C 79 % 1013,9 hPa 0,0 mm 4,3 km/h (1 Bft) S-SW 206 ° 0 min 0,000 mm 0,0 UV-I 0 W/m² 1,9 °C 6,4 km/h (2 Bft)
20.10.2016 19:27 5,2 °C 5,2 °C 79 % 1013,8 hPa 0,0 mm 5,2 km/h (1 Bft) W-SW 251 ° 0 min 0,000 mm 0,0 UV-I 0 W/m² 1,9 °C 11,3 km/h (2 Bft)
20.10.2016 19:28 5,2 °C 5,2 °C 79 % 1013,9 hPa 0,0 mm 9,4 km/h (2 Bft) W-SW 255 ° 0 min 0,000 mm 0,0 UV-I 0 W/m² 1,9 °C 14,5 km/h (3 Bft)
20.10.2016 19:29 5,2 °C 5,2 °C 79 % 1013,9 hPa 0,0 mm 10,1 km/h (2 Bft) W-SW 246 ° 0 min 0,000 mm 0,0 UV-I 0 W/m² 1,9 °C 19,3 km/h (3 Bft)
20.10.2016 19:30 5,3 °C 5,3 °C 79 % 1014,0 hPa 0,0 mm 7,5 km/h (2 Bft) W-SW 247 ° 0 min 0,000 mm 0,0 UV-I 0 W/m² 2,0 °C 16,1 km/h (3 Bft)
20.10.2016 19:31 5,3 °C 5,3 °C 79 % 1014,0 hPa 0,0 mm 9,9 km/h (2 Bft) W 272 ° 0 min 0,000 mm 0,0 UV-I 0 W/m² 2,0 °C 14,5 km/h (3 Bft)
20.10.2016 19:32 5,3 °C 5,3 °C 79 % 1014,0 hPa 0,0 mm 5,4 km/h (1 Bft) SW 228 ° 0 min 0,000 mm 0,0 UV-I 0 W/m² 2,0 °C 9,7 km/h (2 Bft)
20.10.2016 19:33 5,3 °C 5,3 °C 79 % 1014,0 hPa 0,0 mm 9,2 km/h (2 Bft) W-SW 248 ° 0 min 0,000 mm 0,0 UV-I 0 W/m² 2,0 °C 14,5 km/h (3 Bft)
20.10.2016 19:34 5,3 °C 5,3 °C 79 % 1014,0 hPa 0,0 mm 5,6 km/h (1 Bft) S 187 ° 0 min 0,000 mm 0,0 UV-I 0 W/m² 2,0 °C 12,9 km/h (3 Bft)
20.10.2016 19:35 5,4 °C 5,4 °C 79 % 1014,0 hPa 0,0 mm 8,2 km/h (2 Bft) W-SW 246 ° 0 min 0,000 mm 0,0 UV-I 0 W/m² 2,1 °C 14,5 km/h (3 Bft)
20.10.2016 19:36 5,4 °C 5,4 °C 79 % 1013,9 hPa 0,0 mm 4,7 km/h (1 Bft) SW 229 ° 0 min 0,000 mm 0,0 UV-I 0 W/m² 2,1 °C 11,3 km/h (2 Bft)
20.10.2016 19:37 5,4 °C 5,4 °C 78 % 1013,9 hPa 0,0 mm 2,9 km/h (1 Bft) W-SW 245 ° 0 min 0,000 mm 0,0 UV-I 0 W/m² 1,9 °C 4,8 km/h (1 Bft)
20.10.2016 19:38 5,4 °C 5,4 °C 78 % 1013,9 hPa 0,0 mm 3,1 km/h (1 Bft) SW 219 ° 0 min 0,000 mm 0,0 UV-I 0 W/m² 1,9 °C 6,4 km/h (2 Bft)
20.10.2016 19:39 5,4 °C 5,4 °C 78 % 1014,0 hPa 0,0 mm 4,4 km/h (1 Bft) S 180 ° 0 min 0,000 mm 0,0 UV-I 0 W/m² 1,9 °C 8,0 km/h (2 Bft)
20.10.2016 19:40 5,4 °C 5,5 °C 78 % 1014,0 hPa 0,0 mm 4,6 km/h (1 Bft) S-SW 192 ° 0 min 0,000 mm 0,0 UV-I 0 W/m² 1,9 °C 6,4 km/h (2 Bft)
20.10.2016 19:41 5,4 °C 5,5 °C 78 % 1014,0 hPa 0,0 mm 3,7 km/h (1 Bft) S 176 ° 0 min 0,000 mm 0,0 UV-I 0 W/m² 1,9 °C 4,8 km/h (1 Bft)
20.10.2016 19:42 5,4 °C 5,4 °C 78 % 1014,0 hPa 0,0 mm 4,6 km/h (1 Bft) S 190 ° 0 min 0,000 mm 0,0 UV-I 0 W/m² 1,9 °C 6,4 km/h (2 Bft)
20.10.2016 19:43 5,4 °C 5,4 °C 78 % 1014,0 hPa 0,0 mm 3,6 km/h (1 Bft) S 184 ° 0 min 0,000 mm 0,0 UV-I 0 W/m² 1,9 °C 4,8 km/h (1 Bft)
20.10.2016 19:44 5,4 °C 5,4 °C 78 % 1014,0 hPa 0,0 mm 5,6 km/h (1 Bft) S-SW 206 ° 0 min 0,000 mm 0,0 UV-I 0 W/m² 1,9 °C 8,0 km/h (2 Bft)
20.10.2016 19:45 5,4 °C 5,4 °C 78 % 1014,0 hPa 0,0 mm 3,8 km/h (1 Bft) S-SW 199 ° 0 min 0,000 mm 0,0 UV-I 0 W/m² 1,9 °C 6,4 km/h (2 Bft)
20.10.2016 19:46 5,3 °C 5,4 °C 78 % 1014,0 hPa 0,0 mm 5,6 km/h (1 Bft) S 184 ° 0 min 0,000 mm 0,0 UV-I 0 W/m² 1,8 °C 8,0 km/h (2 Bft)
20.10.2016 19:47 5,3 °C 5,3 °C 78 % 1014,0 hPa 0,0 mm 6,7 km/h (2 Bft) S 182 ° 0 min 0,000 mm 0,0 UV-I 0 W/m² 1,8 °C 9,7 km/h (2 Bft)
20.10.2016 19:48 5,2 °C 5,3 °C 79 % 1014,0 hPa 0,0 mm 4,6 km/h (1 Bft) S-SW 201 ° 0 min 0,000 mm 0,0 UV-I 0 W/m² 1,9 °C 8,0 km/h (2 Bft)
20.10.2016 19:49 5,2 °C 5,2 °C 79 % 1014,0 hPa 0,0 mm 4,4 km/h (1 Bft) SW 222 ° 0 min 0,000 mm 0,0 UV-I 0 W/m² 1,9 °C 6,4 km/h (2 Bft)
20.10.2016 19:50 5,2 °C 5,2 °C 79 % 1013,9 hPa 0,0 mm 5,7 km/h (1 Bft) S-SW 198 ° 0 min 0,000 mm 0,0 UV-I 0 W/m² 1,9 °C 11,3 km/h (2 Bft)
20.10.2016 19:51 5,1 °C 5,2 °C 79 % 1014,0 hPa 0,0 mm 4,4 km/h (1 Bft) S-SW 198 ° 0 min 0,000 mm 0,0 UV-I 0 W/m² 1,8 °C 6,4 km/h (2 Bft)
20.10.2016 19:52 5,1 °C 5,2 °C 79 % 1014,0 hPa 0,0 mm 4,8 km/h (1 Bft) S 185 ° 0 min 0,000 mm 0,0 UV-I 0 W/m² 1,8 °C 8,0 km/h (2 Bft)
20.10.2016 19:53 5,1 °C 5,2 °C 79 % 1014,0 hPa 0,0 mm 5,6 km/h (1 Bft) W 260 ° 0 min 0,000 mm 0,0 UV-I 0 W/m² 1,8 °C 8,0 km/h (2 Bft)
20.10.2016 19:54 5,2 °C 5,2 °C 79 % 1014,0 hPa 0,0 mm 4,1 km/h (1 Bft) S 173 ° 0 min 0,000 mm 0,0 UV-I 0 W/m² 1,9 °C 6,4 km/h (2 Bft)
20.10.2016 19:55 5,2 °C 5,2 °C 79 % 1013,9 hPa 0,0 mm 4,8 km/h (1 Bft) S-SW 194 ° 0 min 0,000 mm 0,0 UV-I 0 W/m² 1,9 °C 8,0 km/h (2 Bft)
20.10.2016 19:56 5,2 °C 5,2 °C 79 % 1014,0 hPa 0,0 mm 5,0 km/h (1 Bft) S 169 ° 0 min 0,000 mm 0,0 UV-I 0 W/m² 1,9 °C 8,0 km/h (2 Bft)
20.10.2016 19:57 5,1 °C 5,2 °C 79 % 1013,9 hPa 0,0 mm 3,6 km/h (1 Bft) S 188 ° 0 min 0,000 mm 0,0 UV-I 0 W/m² 1,8 °C 6,4 km/h (2 Bft)
20.10.2016 19:58 5,1 °C 5,2 °C 79 % 1013,9 hPa 0,0 mm 4,8 km/h (1 Bft) S-SW 192 ° 0 min 0,000 mm 0,0 UV-I 0 W/m² 1,8 °C 6,4 km/h (2 Bft)
20.10.2016 19:59 5,1 °C 5,1 °C 79 % 1013,9 hPa 0,0 mm 6,2 km/h (2 Bft) S-SW 213 ° 0 min 0,000 mm 0,0 UV-I 0 W/m² 1,8 °C 9,7 km/h (2 Bft)
20.10.2016 20:00 5,2 °C 5,2 °C 79 % 1013,9 hPa 0,0 mm 5,5 km/h (1 Bft) S-SW 201 ° 0 min 0,000 mm 0,0 UV-I 0 W/m² 1,9 °C 11,3 km/h (2 Bft)
20.10.2016 20:01 5,2 °C 5,2 °C 79 % 1013,9 hPa 0,0 mm 5,4 km/h (1 Bft) S 173 ° 0 min 0,025 mm 0,0 UV-I 0 W/m² 1,9 °C 8,0 km/h (2 Bft)
20.10.2016 20:02 5,2 °C 5,2 °C 79 % 1013,9 hPa 0,0 mm 3,9 km/h (1 Bft) S 182 ° 0 min 0,000 mm 0,0 UV-I 0 W/m² 1,9 °C 6,4 km/h (2 Bft)
20.10.2016 20:03 5,2 °C 5,2 °C 79 % 1013,9 hPa 0,0 mm 4,8 km/h (1 Bft) SW 231 ° 0 min 0,000 mm 0,0 UV-I 0 W/m² 1,9 °C 8,0 km/h (2 Bft)
20.10.2016 20:04 5,3 °C 5,3 °C 79 % 1013,9 hPa 0,0 mm 6,4 km/h (2 Bft) S-SW 202 ° 0 min 0,000 mm 0,0 UV-I 0 W/m² 2,0 °C 8,0 km/h (2 Bft)
20.10.2016 20:05 5,2 °C 5,3 °C 79 % 1013,8 hPa 0,0 mm 3,2 km/h (1 Bft) S-SW 202 ° 0 min 0,000 mm 0,0 UV-I 0 W/m² 1,9 °C 4,8 km/h (1 Bft)
20.10.2016 20:06 5,3 °C 5,3 °C 79 % 1013,8 hPa 0,0 mm 4,1 km/h (1 Bft) S 170 ° 0 min 0,000 mm 0,0 UV-I 0 W/m² 2,0 °C 6,4 km/h (2 Bft)
20.10.2016 20:07 5,2 °C 5,3 °C 79 % 1013,9 hPa 0,0 mm 3,5 km/h (1 Bft) S 189 ° 0 min 0,000 mm 0,0 UV-I 0 W/m² 1,9 °C 8,0 km/h (2 Bft)
20.10.2016 20:08 5,3 °C 5,3 °C 79 % 1013,8 hPa 0,0 mm 4,8 km/h (1 Bft) S-SW 194 ° 0 min 0,000 mm 0,0 UV-I 0 W/m² 2,0 °C 6,4 km/h (2 Bft)
20.10.2016 20:09 5,3 °C 5,3 °C 79 % 1013,8 hPa 0,0 mm 4,3 km/h (1 Bft) W-SW 244 ° 0 min 0,000 mm 0,0 UV-I 0 W/m² 2,0 °C 6,4 km/h (2 Bft)
20.10.2016 20:10 5,3 °C 5,3 °C 79 % 1013,8 hPa 0,0 mm 4,0 km/h (1 Bft) S 188 ° 0 min 0,000 mm 0,0 UV-I 0 W/m² 2,0 °C 4,8 km/h (1 Bft)
20.10.2016 20:11 5,3 °C 5,3 °C 79 % 1013,7 hPa 0,0 mm 3,8 km/h (1 Bft) S-SW 203 ° 0 min 0,000 mm 0,0 UV-I 0 W/m² 2,0 °C 4,8 km/h (1 Bft)
20.10.2016 20:12 5,3 °C 5,3 °C 79 % 1013,8 hPa 0,0 mm 3,3 km/h (1 Bft) S 188 ° 0 min 0,000 mm 0,0 UV-I 0 W/m² 2,0 °C 4,8 km/h (1 Bft)
20.10.2016 20:13 5,3 °C 5,3 °C 79 % 1013,8 hPa 0,0 mm 4,2 km/h (1 Bft) S 184 ° 0 min 0,000 mm 0,0 UV-I 0 W/m² 2,0 °C 8,0 km/h (2 Bft)
20.10.2016 20:14 5,2 °C 5,3 °C 79 % 1013,8 hPa 0,0 mm 2,6 km/h (1 Bft) S 186 ° 0 min 0,000 mm 0,0 UV-I 0 W/m² 1,9 °C 4,8 km/h (1 Bft)
20.10.2016 20:15 5,3 °C 5,3 °C 79 % 1013,7 hPa 0,0 mm 4,0 km/h (1 Bft) S-SW 202 ° 0 min 0,000 mm 0,0 UV-I 0 W/m² 2,0 °C 6,4 km/h (2 Bft)
20.10.2016 20:16 5,3 °C 5,3 °C 79 % 1013,7 hPa 0,0 mm 3,0 km/h (1 Bft) SW 236 ° 0 min 0,000 mm 0,0 UV-I 0 W/m² 2,0 °C 3,2 km/h (1 Bft)
20.10.2016 20:17 5,2 °C 5,3 °C 79 % 1013,7 hPa 0,0 mm 2,3 km/h (1 Bft) SW 225 ° 0 min 0,000 mm 0,0 UV-I 0 W/m² 1,9 °C 3,2 km/h (1 Bft)
20.10.2016 20:18 5,2 °C 5,2 °C 79 % 1013,7 hPa 0,0 mm 1,6 km/h (1 Bft) W-SW 240 ° 0 min 0,000 mm 0,0 UV-I 0 W/m² 1,9 °C 3,2 km/h (1 Bft)
20.10.2016 20:19 5,2 °C 5,2 °C 79 % 1013,6 hPa 0,0 mm 3,0 km/h (1 Bft) SW 226 ° 0 min 0,000 mm 0,0 UV-I 0 W/m² 1,9 °C 4,8 km/h (1 Bft)
20.10.2016 20:20 5,1 °C 5,2 °C 79 % 1013,7 hPa 0,0 mm 1,9 km/h (1 Bft) SW 226 ° 0 min 0,000 mm 0,0 UV-I 0 W/m² 1,8 °C 3,2 km/h (1 Bft)
20.10.2016 20:21 5,1 °C 5,1 °C 79 % 1013,7 hPa 0,0 mm 3,3 km/h (1 Bft) S 184 ° 0 min 0,000 mm 0,0 UV-I 0 W/m² 1,8 °C 4,8 km/h (1 Bft)
20.10.2016 20:22 5,1 °C 5,1 °C 79 % 1013,7 hPa 0,0 mm 2,1 km/h (1 Bft) S-SW 207 ° 0 min 0,000 mm 0,0 UV-I 0 W/m² 1,8 °C 3,2 km/h (1 Bft)
20.10.2016 20:23 5,1 °C 5,1 °C 79 % 1013,7 hPa 0,0 mm 2,9 km/h (1 Bft) SW 219 ° 0 min 0,000 mm 0,0 UV-I 0 W/m² 1,8 °C 4,8 km/h (1 Bft)
20.10.2016 20:24 5,0 °C 5,1 °C 80 % 1013,7 hPa 0,0 mm 2,6 km/h (1 Bft) SW 217 ° 0 min 0,000 mm 0,0 UV-I 0 W/m² 1,8 °C 6,4 km/h (2 Bft)
20.10.2016 20:25 5,0 °C 5,1 °C 79 % 1013,7 hPa 0,0 mm 3,2 km/h (1 Bft) S 189 ° 0 min 0,000 mm 0,0 UV-I 0 W/m² 1,7 °C 6,4 km/h (2 Bft)
20.10.2016 20:26 5,0 °C 5,1 °C 79 % 1013,7 hPa 0,0 mm 3,4 km/h (1 Bft) S 184 ° 0 min 0,000 mm 0,0 UV-I 0 W/m² 1,7 °C 4,8 km/h (1 Bft)
20.10.2016 20:27 5,1 °C 5,1 °C 79 % 1013,7 hPa 0,0 mm 2,5 km/h (1 Bft) S 171 ° 0 min 0,000 mm 0,0 UV-I 0 W/m² 1,8 °C 6,4 km/h (2 Bft)
20.10.2016 20:28 5,1 °C 5,1 °C 79 % 1013,7 hPa 0,0 mm 2,8 km/h (1 Bft) S-SW 199 ° 0 min 0,000 mm 0,0 UV-I 0 W/m² 1,8 °C 4,8 km/h (1 Bft)
20.10.2016 20:29 5,0 °C 5,1 °C 79 % 1013,7 hPa 0,0 mm 4,3 km/h (1 Bft) S 185 ° 0 min 0,000 mm 0,0 UV-I 0 W/m² 1,7 °C 6,4 km/h (2 Bft)
20.10.2016 20:30 4,9 °C 5,0 °C 79 % 1013,7 hPa 0,0 mm 3,9 km/h (1 Bft) S 175 ° 0 min 0,000 mm 0,0 UV-I 0 W/m² 1,6 °C 6,4 km/h (2 Bft)
20.10.2016 20:31 4,8 °C 4,9 °C 80 % 1013,7 hPa 0,0 mm 3,6 km/h (1 Bft) S 185 ° 0 min 0,000 mm 0,0 UV-I 0 W/m² 1,6 °C 4,8 km/h (1 Bft)
20.10.2016 20:32 4,7 °C 4,8 °C 80 % 1013,7 hPa 0,0 mm 3,8 km/h (1 Bft) S 173 ° 0 min 0,000 mm 0,0 UV-I 0 W/m² 1,6 °C 4,8 km/h (1 Bft)
20.10.2016 20:33 4,6 °C 4,7 °C 81 % 1013,7 hPa 0,0 mm 2,6 km/h (1 Bft) S 173 ° 0 min 0,000 mm 0,0 UV-I 0 W/m² 1,6 °C 3,2 km/h (1 Bft)
20.10.2016 20:34 4,6 °C 4,6 °C 81 % 1013,7 hPa 0,0 mm 3,3 km/h (1 Bft) S 173 ° 0 min 0,000 mm 0,0 UV-I 0 W/m² 1,6 °C 4,8 km/h (1 Bft)
20.10.2016 20:35 4,4 °C 4,6 °C 81 % 1013,7 hPa 0,0 mm 1,9 km/h (1 Bft) S 173 ° 0 min 0,000 mm 0,0 UV-I 0 W/m² 1,4 °C 4,8 km/h (1 Bft)
20.10.2016 20:36 4,3 °C 4,4 °C 82 % 1013,6 hPa 0,0 mm 3,0 km/h (1 Bft) S 173 ° 0 min 0,000 mm 0,0 UV-I 0 W/m² 1,5 °C 3,2 km/h (1 Bft)
20.10.2016 20:37 4,1 °C 4,3 °C 81 % 1013,7 hPa 0,0 mm 2,9 km/h (1 Bft) S 173 ° 0 min 0,000 mm 0,0 UV-I 0 W/m² 1,1 °C 3,2 km/h (1 Bft)
20.10.2016 20:38 3,9 °C 4,1 °C 82 % 1013,7 hPa 0,0 mm 3,0 km/h (1 Bft) S 173 ° 0 min 0,000 mm 0,0 UV-I 0 W/m² 1,1 °C 4,8 km/h (1 Bft)
20.10.2016 20:39 3,8 °C 3,9 °C 83 % 1013,7 hPa 0,0 mm 3,7 km/h (1 Bft) S 173 ° 0 min 0,000 mm 0,0 UV-I 0 W/m² 1,2 °C 4,8 km/h (1 Bft)
20.10.2016 20:40 3,7 °C 3,8 °C 84 % 1013,6 hPa 0,0 mm 3,7 km/h (1 Bft) S 171 ° 0 min 0,000 mm 0,0 UV-I 0 W/m² 1,3 °C 6,4 km/h (2 Bft)
20.10.2016 20:41 3,7 °C 3,7 °C 84 % 1013,6 hPa 0,0 mm 3,1 km/h (1 Bft) S 171 ° 0 min 0,000 mm 0,0 UV-I 0 W/m² 1,3 °C 6,4 km/h (2 Bft)
20.10.2016 20:42 3,5 °C 3,7 °C 83 % 1013,6 hPa 0,0 mm 2,3 km/h (1 Bft) S 171 ° 0 min 0,000 mm 0,0 UV-I 0 W/m² 0,9 °C 3,2 km/h (1 Bft)
20.10.2016 20:43 3,4 °C 3,6 °C 84 % 1013,6 hPa 0,0 mm 2,3 km/h (1 Bft) S 171 ° 0 min 0,000 mm 0,0 UV-I 0 W/m² 1,0 °C 3,2 km/h (1 Bft)
20.10.2016 20:44 3,4 °C 3,4 °C 85 % 1013,6 hPa 0,0 mm 3,4 km/h (1 Bft) S 171 ° 0 min 0,000 mm 0,0 UV-I 0 W/m² 1,1 °C 6,4 km/h (2 Bft)
20.10.2016 20:45 3,4 °C 3,4 °C 85 % 1013,6 hPa 0,0 mm 2,3 km/h (1 Bft) S 171 ° 0 min 0,000 mm 0,0 UV-I 0 W/m² 1,1 °C 3,2 km/h (1 Bft)
20.10.2016 20:46 3,4 °C 3,4 °C 85 % 1013,6 hPa 0,0 mm 1,5 km/h (1 Bft) S 171 ° 0 min 0,000 mm 0,0 UV-I 0 W/m² 1,1 °C 3,2 km/h (1 Bft)
20.10.2016 20:47 3,4 °C 3,4 °C 85 % 1013,6 hPa 0,0 mm 2,4 km/h (1 Bft) S 171 ° 0 min 0,000 mm 0,0 UV-I 0 W/m² 1,1 °C 3,2 km/h (1 Bft)
20.10.2016 20:48 3,4 °C 3,4 °C 85 % 1013,6 hPa 0,0 mm 2,9 km/h (1 Bft) S 171 ° 0 min 0,000 mm 0,0 UV-I 0 W/m² 1,1 °C 3,2 km/h (1 Bft)
20.10.2016 20:49 3,4 °C 3,4 °C 86 % 1013,6 hPa 0,0 mm 1,0 km/h (0 Bft) S 171 ° 0 min 0,000 mm 0,0 UV-I 0 W/m² 1,3 °C 3,2 km/h (1 Bft)
20.10.2016 20:50 3,3 °C 3,4 °C 85 % 1013,6 hPa 0,0 mm 1,1 km/h (1 Bft) S 171 ° 0 min 0,000 mm 0,0 UV-I 0 W/m² 1,0 °C 3,2 km/h (1 Bft)
20.10.2016 20:51 3,3 °C 3,3 °C 85 % 1013,6 hPa 0,0 mm 1,0 km/h (0 Bft) S 171 ° 0 min 0,000 mm 0,0 UV-I 0 W/m² 1,0 °C 1,6 km/h (1 Bft)
20.10.2016 20:52 3,1 °C 3,3 °C 84 % 1013,6 hPa 0,0 mm 1,3 km/h (1 Bft) S 171 ° 0 min 0,000 mm 0,0 UV-I 0 W/m² 0,7 °C 3,2 km/h (1 Bft)
20.10.2016 20:53 3,0 °C 3,1 °C 85 % 1013,6 hPa 0,0 mm 3,6 km/h (1 Bft) S 171 ° 0 min 0,000 mm 0,0 UV-I 0 W/m² 0,7 °C 6,4 km/h (2 Bft)
20.10.2016 20:54 2,9 °C 3,0 °C 85 % 1013,6 hPa 0,0 mm 3,0 km/h (1 Bft) S 183 ° 0 min 0,000 mm 0,0 UV-I 0 W/m² 0,6 °C 4,8 km/h (1 Bft)
20.10.2016 20:55 2,9 °C 2,9 °C 85 % 1013,6 hPa 0,0 mm 2,7 km/h (1 Bft) S 183 ° 0 min 0,000 mm 0,0 UV-I 0 W/m² 0,6 °C 3,2 km/h (1 Bft)
20.10.2016 20:56 2,8 °C 2,9 °C 86 % 1013,5 hPa 0,0 mm 1,3 km/h (1 Bft) S 183 ° 0 min 0,000 mm 0,0 UV-I 0 W/m² 0,7 °C 3,2 km/h (1 Bft)
20.10.2016 20:57 2,9 °C 2,9 °C 86 % 1013,6 hPa 0,0 mm 0,7 km/h (0 Bft) S 183 ° 0 min 0,000 mm 0,0 UV-I 0 W/m² 0,8 °C 3,2 km/h (1 Bft)
20.10.2016 20:58 2,8 °C 2,9 °C 86 % 1013,6 hPa 0,0 mm 0,9 km/h (0 Bft) S 183 ° 0 min 0,000 mm 0,0 UV-I 0 W/m² 0,7 °C 1,6 km/h (1 Bft)
20.10.2016 20:59 2,8 °C 2,8 °C 86 % 1013,5 hPa 0,0 mm 1,3 km/h (1 Bft) S 183 ° 0 min 0,000 mm 0,0 UV-I 0 W/m² 0,7 °C 1,6 km/h (1 Bft)
20.10.2016 21:00 2,8 °C 2,8 °C 86 % 1013,6 hPa 0,0 mm 2,1 km/h (1 Bft) S 183 ° 0 min 0,000 mm 0,0 UV-I 0 W/m² 0,7 °C 3,2 km/h (1 Bft)
20.10.2016 21:01 2,8 °C 2,8 °C 86 % 1013,6 hPa 0,0 mm 0,5 km/h (0 Bft) S 183 ° 0 min 0,025 mm 0,0 UV-I 0 W/m² 0,7 °C 1,6 km/h (1 Bft)
20.10.2016 21:02 2,8 °C 2,9 °C 87 % 1013,6 hPa 0,0 mm 0,0 km/h (0 Bft) S 183 ° 0 min 0,000 mm 0,0 UV-I 0 W/m² 0,9 °C 0,0 km/h (0 Bft)
20.10.2016 21:03 2,8 °C 2,9 °C 86 % 1013,6 hPa 0,0 mm 0,1 km/h (0 Bft) S 183 ° 0 min 0,000 mm 0,0 UV-I 0 W/m² 0,7 °C 1,6 km/h (1 Bft)
20.10.2016 21:04 2,8 °C 2,8 °C 87 % 1013,6 hPa 0,0 mm 0,3 km/h (0 Bft) S 183 ° 0 min 0,000 mm 0,0 UV-I 0 W/m² 0,9 °C 1,6 km/h (1 Bft)
20.10.2016 21:05 2,8 °C 2,8 °C 87 % 1013,6 hPa 0,0 mm 0,0 km/h (0 Bft) S 183 ° 0 min 0,000 mm 0,0 UV-I 0 W/m² 0,9 °C 0,0 km/h (0 Bft)
20.10.2016 21:06 2,8 °C 2,8 °C 87 % 1013,5 hPa 0,0 mm 1,1 km/h (1 Bft) S 183 ° 0 min 0,000 mm 0,0 UV-I 0 W/m² 0,9 °C 3,2 km/h (1 Bft)
20.10.2016 21:07 2,8 °C 2,8 °C 87 % 1013,5 hPa 0,0 mm 1,4 km/h (1 Bft) S 183 ° 0 min 0,000 mm 0,0 UV-I 0 W/m² 0,9 °C 3,2 km/h (1 Bft)
20.10.2016 21:08 2,7 °C 2,8 °C 86 % 1013,5 hPa 0,0 mm 0,7 km/h (0 Bft) S 183 ° 0 min 0,000 mm 0,0 UV-I 0 W/m² 0,6 °C 3,2 km/h (1 Bft)
20.10.2016 21:09 2,7 °C 2,7 °C 86 % 1013,5 hPa 0,0 mm 2,4 km/h (1 Bft) S 183 ° 0 min 0,000 mm 0,0 UV-I 0 W/m² 0,6 °C 3,2 km/h (1 Bft)
20.10.2016 21:10 2,7 °C 2,7 °C 87 % 1013,5 hPa 0,0 mm 5,4 km/h (1 Bft) S-SO 165 ° 0 min 0,000 mm 0,0 UV-I 0 W/m² 0,8 °C 6,4 km/h (2 Bft)
20.10.2016 21:11 2,7 °C 2,7 °C 87 % 1013,5 hPa 0,0 mm 1,1 km/h (1 Bft) S-SO 166 ° 0 min 0,000 mm 0,0 UV-I 0 W/m² 0,8 °C 6,4 km/h (2 Bft)
20.10.2016 21:12 2,7 °C 2,7 °C 87 % 1013,5 hPa 0,0 mm 2,9 km/h (1 Bft) S-SO 166 ° 0 min 0,000 mm 0,0 UV-I 0 W/m² 0,8 °C 4,8 km/h (1 Bft)
20.10.2016 21:13 2,7 °C 2,7 °C 87 % 1013,5 hPa 0,0 mm 2,4 km/h (1 Bft) S-SO 166 ° 0 min 0,000 mm 0,0 UV-I 0 W/m² 0,8 °C 4,8 km/h (1 Bft)
20.10.2016 21:14 2,6 °C 2,7 °C 87 % 1013,5 hPa 0,0 mm 5,0 km/h (1 Bft) S-SO 166 ° 0 min 0,000 mm 0,0 UV-I 0 W/m² 0,7 °C 6,4 km/h (2 Bft)
20.10.2016 21:15 2,6 °C 2,6 °C 87 % 1013,4 hPa 0,0 mm 4,6 km/h (1 Bft) S-SO 166 ° 0 min 0,000 mm 0,0 UV-I 0 W/m² 0,7 °C 6,4 km/h (2 Bft)
20.10.2016 21:16 2,6 °C 2,6 °C 87 % 1013,4 hPa 0,0 mm 2,5 km/h (1 Bft) S-SO 166 ° 0 min 0,000 mm 0,0 UV-I 0 W/m² 0,7 °C 4,8 km/h (1 Bft)
20.10.2016 21:17 2,6 °C 2,6 °C 87 % 1013,4 hPa 0,0 mm 4,2 km/h (1 Bft) S-SO 166 ° 0 min 0,000 mm 0,0 UV-I 0 W/m² 0,7 °C 4,8 km/h (1 Bft)
20.10.2016 21:18 2,5 °C 2,6 °C 87 % 1013,4 hPa 0,0 mm 3,1 km/h (1 Bft) S-SO 166 ° 0 min 0,000 mm 0,0 UV-I 0 W/m² 0,6 °C 4,8 km/h (1 Bft)
20.10.2016 21:19 2,4 °C 2,5 °C 88 % 1013,4 hPa 0,0 mm 4,0 km/h (1 Bft) S-SO 166 ° 0 min 0,000 mm 0,0 UV-I 0 W/m² 0,6 °C 4,8 km/h (1 Bft)
20.10.2016 21:20 2,4 °C 2,4 °C 88 % 1013,4 hPa 0,0 mm 4,3 km/h (1 Bft) S-SO 166 ° 0 min 0,000 mm 0,0 UV-I 0 W/m² 0,6 °C 4,8 km/h (1 Bft)
20.10.2016 21:21 2,4 °C 2,4 °C 88 % 1013,4 hPa 0,0 mm 4,6 km/h (1 Bft) S-SO 166 ° 0 min 0,000 mm 0,0 UV-I 0 W/m² 0,6 °C 6,4 km/h (2 Bft)
20.10.2016 21:22 2,5 °C 2,5 °C 88 % 1013,4 hPa 0,0 mm 2,3 km/h (1 Bft) S-SO 166 ° 0 min 0,000 mm 0,0 UV-I 0 W/m² 0,7 °C 4,8 km/h (1 Bft)
20.10.2016 21:23 2,5 °C 2,5 °C 88 % 1013,4 hPa 0,0 mm 4,2 km/h (1 Bft) S-SO 166 ° 0 min 0,000 mm 0,0 UV-I 0 W/m² 0,7 °C 6,4 km/h (2 Bft)
20.10.2016 21:24 2,6 °C 2,6 °C 88 % 1013,4 hPa 0,0 mm 4,5 km/h (1 Bft) S-SO 165 ° 0 min 0,000 mm 0,0 UV-I 0 W/m² 0,8 °C 6,4 km/h (2 Bft)
20.10.2016 21:25 2,6 °C 2,6 °C 88 % 1013,4 hPa 0,0 mm 1,8 km/h (1 Bft) S-SO 165 ° 0 min 0,000 mm 0,0 UV-I 0 W/m² 0,8 °C 3,2 km/h (1 Bft)
20.10.2016 21:26 2,6 °C 2,6 °C 87 % 1013,4 hPa 0,0 mm 2,2 km/h (1 Bft) S-SO 165 ° 0 min 0,000 mm 0,0 UV-I 0 W/m² 0,7 °C 6,4 km/h (2 Bft)
20.10.2016 21:27 2,6 °C 2,6 °C 87 % 1013,4 hPa 0,0 mm 2,6 km/h (1 Bft) S-SO 165 ° 0 min 0,000 mm 0,0 UV-I 0 W/m² 0,7 °C 3,2 km/h (1 Bft)
20.10.2016 21:28 2,4 °C 2,6 °C 86 % 1013,4 hPa 0,0 mm 2,3 km/h (1 Bft) S-SO 165 ° 0 min 0,000 mm 0,0 UV-I 0 W/m² 0,3 °C 3,2 km/h (1 Bft)
20.10.2016 21:29 2,3 °C 2,4 °C 86 % 1013,4 hPa 0,0 mm 1,8 km/h (1 Bft) S-SO 165 ° 0 min 0,000 mm 0,0 UV-I 0 W/m² 0,2 °C 3,2 km/h (1 Bft)
20.10.2016 21:30 2,3 °C 2,3 °C 87 % 1013,4 hPa 0,0 mm 1,5 km/h (1 Bft) S-SO 165 ° 0 min 0,000 mm 0,0 UV-I 0 W/m² 0,4 °C 3,2 km/h (1 Bft)
20.10.2016 21:31 2,3 °C 2,3 °C 88 % 1013,4 hPa 0,0 mm 2,7 km/h (1 Bft) S-SO 165 ° 0 min 0,000 mm 0,0 UV-I 0 W/m² 0,5 °C 3,2 km/h (1 Bft)
20.10.2016 21:32 2,3 °C 2,3 °C 88 % 1013,4 hPa 0,0 mm 2,5 km/h (1 Bft) S-SO 165 ° 0 min 0,000 mm 0,0 UV-I 0 W/m² 0,5 °C 3,2 km/h (1 Bft)
20.10.2016 21:33 2,3 °C 2,3 °C 88 % 1013,4 hPa 0,0 mm 1,1 km/h (1 Bft) S-SO 165 ° 0 min 0,000 mm 0,0 UV-I 0 W/m² 0,5 °C 1,6 km/h (1 Bft)
20.10.2016 21:34 2,3 °C 2,3 °C 88 % 1013,4 hPa 0,0 mm 1,7 km/h (1 Bft) S-SO 165 ° 0 min 0,000 mm 0,0 UV-I 0 W/m² 0,5 °C 3,2 km/h (1 Bft)
20.10.2016 21:35 2,3 °C 2,3 °C 87 % 1013,4 hPa 0,0 mm 2,8 km/h (1 Bft) S-SO 166 ° 0 min 0,000 mm 0,0 UV-I 0 W/m² 0,4 °C 6,4 km/h (2 Bft)
20.10.2016 21:36 2,3 °C 2,3 °C 87 % 1013,4 hPa 0,0 mm 1,0 km/h (0 Bft) S-SO 166 ° 0 min 0,000 mm 0,0 UV-I 0 W/m² 0,4 °C 1,6 km/h (1 Bft)
20.10.2016 21:37 2,3 °C 2,3 °C 88 % 1013,4 hPa 0,0 mm 3,2 km/h (1 Bft) S-SO 166 ° 0 min 0,000 mm 0,0 UV-I 0 W/m² 0,5 °C 4,8 km/h (1 Bft)
20.10.2016 21:38 2,3 °C 2,3 °C 88 % 1013,4 hPa 0,0 mm 0,7 km/h (0 Bft) S-SO 166 ° 0 min 0,000 mm 0,0 UV-I 0 W/m² 0,5 °C 1,6 km/h (1 Bft)
20.10.2016 21:39 2,3 °C 2,3 °C 87 % 1013,4 hPa 0,0 mm 3,2 km/h (1 Bft) S-SO 166 ° 0 min 0,000 mm 0,0 UV-I 0 W/m² 0,4 °C 6,4 km/h (2 Bft)
20.10.2016 21:40 2,2 °C 2,3 °C 88 % 1013,4 hPa 0,0 mm 3,5 km/h (1 Bft) S-SO 166 ° 0 min 0,000 mm 0,0 UV-I 0 W/m² 0,4 °C 4,8 km/h (1 Bft)
20.10.2016 21:41 2,3 °C 2,3 °C 88 % 1013,4 hPa 0,0 mm 2,5 km/h (1 Bft) S-SO 166 ° 0 min 0,000 mm 0,0 UV-I 0 W/m² 0,5 °C 4,8 km/h (1 Bft)
20.10.2016 21:42 2,3 °C 2,3 °C 88 % 1013,4 hPa 0,0 mm 3,8 km/h (1 Bft) S-SO 167 ° 0 min 0,000 mm 0,0 UV-I 0 W/m² 0,5 °C 8,0 km/h (2 Bft)
20.10.2016 21:43 2,4 °C 2,4 °C 88 % 1013,4 hPa 0,0 mm 3,3 km/h (1 Bft) S-SO 150 ° 0 min 0,000 mm 0,0 UV-I 0 W/m² 0,6 °C 8,0 km/h (2 Bft)
20.10.2016 21:44 2,5 °C 2,5 °C 88 % 1013,4 hPa 0,0 mm 2,5 km/h (1 Bft) S-SO 154 ° 0 min 0,000 mm 0,0 UV-I 0 W/m² 0,7 °C 4,8 km/h (1 Bft)
20.10.2016 21:45 2,6 °C 2,6 °C 88 % 1013,4 hPa 0,0 mm 0,7 km/h (0 Bft) S-SO 154 ° 0 min 0,000 mm 0,0 UV-I 0 W/m² 0,8 °C 1,6 km/h (1 Bft)
20.10.2016 21:46 2,6 °C 2,6 °C 87 % 1013,4 hPa 0,0 mm 1,7 km/h (1 Bft) S-SO 154 ° 0 min 0,000 mm 0,0 UV-I 0 W/m² 0,7 °C 3,2 km/h (1 Bft)
20.10.2016 21:47 2,5 °C 2,6 °C 87 % 1013,4 hPa 0,0 mm 2,3 km/h (1 Bft) S-SO 154 ° 0 min 0,000 mm 0,0 UV-I 0 W/m² 0,6 °C 3,2 km/h (1 Bft)
20.10.2016 21:48 2,6 °C 2,6 °C 87 % 1013,4 hPa 0,0 mm 4,6 km/h (1 Bft) S-SO 167 ° 0 min 0,000 mm 0,0 UV-I 0 W/m² 0,7 °C 6,4 km/h (2 Bft)
20.10.2016 21:49 2,6 °C 2,6 °C 87 % 1013,4 hPa 0,0 mm 3,3 km/h (1 Bft) S-SO 167 ° 0 min 0,000 mm 0,0 UV-I 0 W/m² 0,7 °C 4,8 km/h (1 Bft)
20.10.2016 21:50 2,6 °C 2,6 °C 87 % 1013,4 hPa 0,0 mm 1,4 km/h (1 Bft) S-SO 167 ° 0 min 0,000 mm 0,0 UV-I 0 W/m² 0,7 °C 1,6 km/h (1 Bft)
20.10.2016 21:51 2,6 °C 2,6 °C 87 % 1013,5 hPa 0,0 mm 2,3 km/h (1 Bft) S-SO 167 ° 0 min 0,000 mm 0,0 UV-I 0 W/m² 0,7 °C 4,8 km/h (1 Bft)
20.10.2016 21:52 2,5 °C 2,6 °C 86 % 1013,4 hPa 0,0 mm 3,4 km/h (1 Bft) S-SO 167 ° 0 min 0,000 mm 0,0 UV-I 0 W/m² 0,4 °C 4,8 km/h (1 Bft)
20.10.2016 21:53 2,5 °C 2,6 °C 87 % 1013,4 hPa 0,0 mm 3,1 km/h (1 Bft) S-SO 157 ° 0 min 0,000 mm 0,0 UV-I 0 W/m² 0,6 °C 6,4 km/h (2 Bft)
20.10.2016 21:54 2,6 °C 2,6 °C 87 % 1013,4 hPa 0,0 mm 2,3 km/h (1 Bft) SW 216 ° 0 min 0,000 mm 0,0 UV-I 0 W/m² 0,7 °C 4,8 km/h (1 Bft)
20.10.2016 21:55 2,5 °C 2,6 °C 86 % 1013,4 hPa 0,0 mm 1,2 km/h (1 Bft) SW 215 ° 0 min 0,000 mm 0,0 UV-I 0 W/m² 0,4 °C 3,2 km/h (1 Bft)
20.10.2016 21:56 2,5 °C 2,5 °C 87 % 1013,4 hPa 0,0 mm 1,1 km/h (1 Bft) SW 215 ° 0 min 0,000 mm 0,0 UV-I 0 W/m² 0,6 °C 1,6 km/h (1 Bft)
20.10.2016 21:57 2,6 °C 2,6 °C 88 % 1013,5 hPa 0,0 mm 0,6 km/h (0 Bft) SW 215 ° 0 min 0,000 mm 0,0 UV-I 0 W/m² 0,8 °C 1,6 km/h (1 Bft)
20.10.2016 21:58 2,4 °C 2,6 °C 86 % 1013,4 hPa 0,0 mm 0,0 km/h (0 Bft) SW 215 ° 0 min 0,000 mm 0,0 UV-I 0 W/m² 0,3 °C 0,0 km/h (0 Bft)
20.10.2016 21:59 2,2 °C 2,4 °C 86 % 1013,5 hPa 0,0 mm 0,0 km/h (0 Bft) SW 215 ° 0 min 0,000 mm 0,0 UV-I 0 W/m² 0,1 °C 0,0 km/h (0 Bft)
20.10.2016 22:00 2,0 °C 2,2 °C 86 % 1013,5 hPa 0,0 mm 0,0 km/h (0 Bft) SW 215 ° 0 min 0,000 mm 0,0 UV-I 0 W/m² -0,1 °C 0,0 km/h (0 Bft)
20.10.2016 22:01 1,9 °C 2,0 °C 87 % 1013,5 hPa 0,0 mm 0,0 km/h (0 Bft) SW 215 ° 0 min 0,000 mm 0,0 UV-I 0 W/m² -0,0 °C 0,0 km/h (0 Bft)
20.10.2016 22:02 1,7 °C 1,9 °C 88 % 1013,5 hPa 0,0 mm 0,0 km/h (0 Bft) SW 215 ° 0 min 0,000 mm 0,0 UV-I 0 W/m² -0,1 °C 0,0 km/h (0 Bft)
20.10.2016 22:03 1,6 °C 1,7 °C 88 % 1013,5 hPa 0,0 mm 0,1 km/h (0 Bft) SW 215 ° 0 min 0,000 mm 0,0 UV-I 0 W/m² -0,2 °C 1,6 km/h (1 Bft)
20.10.2016 22:04 1,6 °C 1,6 °C 89 % 1013,5 hPa 0,0 mm 2,7 km/h (1 Bft) SW 215 ° 0 min 0,000 mm 0,0 UV-I 0 W/m² -0,0 °C 4,8 km/h (1 Bft)
20.10.2016 22:05 1,6 °C 1,6 °C 90 % 1013,5 hPa 0,0 mm 2,2 km/h (1 Bft) S-SW 200 ° 0 min 0,000 mm 0,0 UV-I 0 W/m² 0,1 °C 3,2 km/h (1 Bft)
20.10.2016 22:06 1,7 °C 1,7 °C 90 % 1013,5 hPa 0,0 mm 2,2 km/h (1 Bft) S-SW 204 ° 0 min 0,000 mm 0,0 UV-I 0 W/m² 0,2 °C 3,2 km/h (1 Bft)
20.10.2016 22:07 1,7 °C 1,7 °C 90 % 1013,6 hPa 0,0 mm 1,8 km/h (1 Bft) S-SW 205 ° 0 min 0,000 mm 0,0 UV-I 0 W/m² 0,2 °C 3,2 km/h (1 Bft)
20.10.2016 22:08 1,7 °C 1,7 °C 89 % 1013,6 hPa 0,0 mm 0,9 km/h (0 Bft) S-SW 205 ° 0 min 0,000 mm 0,0 UV-I 0 W/m² 0,1 °C 3,2 km/h (1 Bft)
20.10.2016 22:09 1,7 °C 1,7 °C 89 % 1013,6 hPa 0,0 mm 2,6 km/h (1 Bft) S-SW 204 ° 0 min 0,000 mm 0,0 UV-I 0 W/m² 0,1 °C 3,2 km/h (1 Bft)
20.10.2016 22:10 1,7 °C 1,7 °C 89 % 1013,6 hPa 0,0 mm 3,2 km/h (1 Bft) S-SW 203 ° 0 min 0,000 mm 0,0 UV-I 0 W/m² 0,1 °C 4,8 km/h (1 Bft)
20.10.2016 22:11 1,6 °C 1,7 °C 89 % 1013,6 hPa 0,0 mm 2,8 km/h (1 Bft) S-SW 202 ° 0 min 0,000 mm 0,0 UV-I 0 W/m² -0,0 °C 3,2 km/h (1 Bft)
20.10.2016 22:12 1,7 °C 1,7 °C 90 % 1013,6 hPa 0,0 mm 1,3 km/h (1 Bft) S-SW 202 ° 0 min 0,000 mm 0,0 UV-I 0 W/m² 0,2 °C 3,2 km/h (1 Bft)
20.10.2016 22:13 1,7 °C 1,7 °C 90 % 1013,6 hPa 0,0 mm 3,4 km/h (1 Bft) S-SW 202 ° 0 min 0,000 mm 0,0 UV-I 0 W/m² 0,2 °C 4,8 km/h (1 Bft)
20.10.2016 22:14 1,7 °C 1,7 °C 90 % 1013,6 hPa 0,0 mm 3,4 km/h (1 Bft) S-SW 196 ° 0 min 0,000 mm 0,0 UV-I 0 W/m² 0,2 °C 4,8 km/h (1 Bft)
20.10.2016 22:15 1,8 °C 1,8 °C 90 % 1013,6 hPa 0,0 mm 3,3 km/h (1 Bft) S-SW 193 ° 0 min 0,000 mm 0,0 UV-I 0 W/m² 0,3 °C 4,8 km/h (1 Bft)
20.10.2016 22:16 1,9 °C 1,9 °C 90 % 1013,6 hPa 0,0 mm 4,4 km/h (1 Bft) S-SO 165 ° 0 min 0,000 mm 0,0 UV-I 0 W/m² 0,4 °C 8,0 km/h (2 Bft)
20.10.2016 22:17 2,0 °C 2,0 °C 90 % 1013,6 hPa 0,0 mm 5,8 km/h (2 Bft) S-SO 165 ° 0 min 0,000 mm 0,0 UV-I 0 W/m² 0,5 °C 8,0 km/h (2 Bft)
20.10.2016 22:18 2,1 °C 2,1 °C 90 % 1013,6 hPa 0,0 mm 3,1 km/h (1 Bft) S-SO 165 ° 0 min 0,000 mm 0,0 UV-I 0 W/m² 0,6 °C 6,4 km/h (2 Bft)
20.10.2016 22:19 2,1 °C 2,1 °C 90 % 1013,6 hPa 0,0 mm 4,0 km/h (1 Bft) S-SO 165 ° 0 min 0,000 mm 0,0 UV-I 0 W/m² 0,6 °C 6,4 km/h (2 Bft)
20.10.2016 22:20 2,2 °C 2,2 °C 90 % 1013,6 hPa 0,0 mm 2,8 km/h (1 Bft) S-SO 165 ° 0 min 0,000 mm 0,0 UV-I 0 W/m² 0,7 °C 3,2 km/h (1 Bft)
20.10.2016 22:21 2,2 °C 2,2 °C 89 % 1013,6 hPa 0,0 mm 2,4 km/h (1 Bft) S-SO 165 ° 0 min 0,000 mm 0,0 UV-I 0 W/m² 0,6 °C 3,2 km/h (1 Bft)
20.10.2016 22:22 2,1 °C 2,2 °C 89 % 1013,6 hPa 0,0 mm 2,7 km/h (1 Bft) S-SO 165 ° 0 min 0,000 mm 0,0 UV-I 0 W/m² 0,5 °C 3,2 km/h (1 Bft)
20.10.2016 22:23 2,1 °C 2,1 °C 89 % 1013,6 hPa 0,0 mm 2,4 km/h (1 Bft) S-SO 165 ° 0 min 0,000 mm 0,0 UV-I 0 W/m² 0,5 °C 6,4 km/h (2 Bft)
20.10.2016 22:24 2,1 °C 2,1 °C 89 % 1013,6 hPa 0,0 mm 2,6 km/h (1 Bft) S-SO 165 ° 0 min 0,000 mm 0,0 UV-I 0 W/m² 0,5 °C 3,2 km/h (1 Bft)
20.10.2016 22:25 2,1 °C 2,2 °C 89 % 1013,6 hPa 0,0 mm 4,6 km/h (1 Bft) S 169 ° 0 min 0,000 mm 0,0 UV-I 0 W/m² 0,5 °C 8,0 km/h (2 Bft)
20.10.2016 22:26 2,0 °C 2,1 °C 88 % 1013,6 hPa 0,0 mm 3,5 km/h (1 Bft) S 169 ° 0 min 0,000 mm 0,0 UV-I 0 W/m² 0,2 °C 6,4 km/h (2 Bft)
20.10.2016 22:27 2,0 °C 2,1 °C 89 % 1013,6 hPa 0,0 mm 3,1 km/h (1 Bft) S 169 ° 0 min 0,000 mm 0,0 UV-I 0 W/m² 0,4 °C 3,2 km/h (1 Bft)
20.10.2016 22:28 1,9 °C 2,0 °C 88 % 1013,6 hPa 0,0 mm 2,6 km/h (1 Bft) S 169 ° 0 min 0,000 mm 0,0 UV-I 0 W/m² 0,1 °C 3,2 km/h (1 Bft)
20.10.2016 22:29 1,9 °C 1,9 °C 89 % 1013,6 hPa 0,0 mm 1,9 km/h (1 Bft) S 169 ° 0 min 0,000 mm 0,0 UV-I 0 W/m² 0,3 °C 3,2 km/h (1 Bft)
20.10.2016 22:30 1,8 °C 1,9 °C 89 % 1013,6 hPa 0,0 mm 1,5 km/h (1 Bft) S 169 ° 0 min 0,000 mm 0,0 UV-I 0 W/m² 0,2 °C 3,2 km/h (1 Bft)
20.10.2016 22:31 1,8 °C 1,9 °C 89 % 1013,6 hPa 0,0 mm 0,5 km/h (0 Bft) S 169 ° 0 min 0,000 mm 0,0 UV-I 0 W/m² 0,2 °C 1,6 km/h (1 Bft)
20.10.2016 22:32 1,7 °C 1,8 °C 89 % 1013,6 hPa 0,0 mm 1,3 km/h (1 Bft) S 169 ° 0 min 0,000 mm 0,0 UV-I 0 W/m² 0,1 °C 3,2 km/h (1 Bft)
20.10.2016 22:33 1,8 °C 1,8 °C 90 % 1013,6 hPa 0,0 mm 0,7 km/h (0 Bft) S 169 ° 0 min 0,000 mm 0,0 UV-I 0 W/m² 0,3 °C 1,6 km/h (1 Bft)
20.10.2016 22:34 1,8 °C 1,8 °C 90 % 1013,6 hPa 0,0 mm 0,0 km/h (0 Bft) S 169 ° 0 min 0,000 mm 0,0 UV-I 0 W/m² 0,3 °C 0,0 km/h (0 Bft)
20.10.2016 22:35 1,8 °C 1,8 °C 90 % 1013,6 hPa 0,0 mm 0,0 km/h (0 Bft) S 169 ° 0 min 0,000 mm 0,0 UV-I 0 W/m² 0,3 °C 0,0 km/h (0 Bft)
20.10.2016 22:36 1,7 °C 1,8 °C 89 % 1013,6 hPa 0,0 mm 0,0 km/h (0 Bft) S 169 ° 0 min 0,000 mm 0,0 UV-I 0 W/m² 0,1 °C 0,0 km/h (0 Bft)
20.10.2016 22:37 1,7 °C 1,7 °C 90 % 1013,7 hPa 0,0 mm 0,3 km/h (0 Bft) S 169 ° 0 min 0,000 mm 0,0 UV-I 0 W/m² 0,2 °C 1,6 km/h (1 Bft)
20.10.2016 22:38 1,7 °C 1,7 °C 90 % 1013,6 hPa 0,0 mm 0,3 km/h (0 Bft) S 169 ° 0 min 0,000 mm 0,0 UV-I 0 W/m² 0,2 °C 1,6 km/h (1 Bft)
20.10.2016 22:39 1,7 °C 1,7 °C 90 % 1013,7 hPa 0,0 mm 0,7 km/h (0 Bft) S 169 ° 0 min 0,000 mm 0,0 UV-I 0 W/m² 0,2 °C 1,6 km/h (1 Bft)
20.10.2016 22:40 1,6 °C 1,7 °C 89 % 1013,7 hPa 0,0 mm 1,8 km/h (1 Bft) S 169 ° 0 min 0,000 mm 0,0 UV-I 0 W/m² -0,0 °C 3,2 km/h (1 Bft)
20.10.2016 22:41 1,4 °C 1,6 °C 88 % 1013,7 hPa 0,0 mm 0,3 km/h (0 Bft) S 169 ° 0 min 0,000 mm 0,0 UV-I 0 W/m² -0,4 °C 1,6 km/h (1 Bft)
20.10.2016 22:42 1,2 °C 1,4 °C 88 % 1013,7 hPa 0,0 mm 0,7 km/h (0 Bft) S 169 ° 0 min 0,000 mm 0,0 UV-I 0 W/m² -0,6 °C 1,6 km/h (1 Bft)
20.10.2016 22:43 1,1 °C 1,2 °C 89 % 1013,7 hPa 0,0 mm 0,1 km/h (0 Bft) S 169 ° 0 min 0,000 mm 0,0 UV-I 0 W/m² -0,5 °C 1,6 km/h (1 Bft)
20.10.2016 22:44 1,1 °C 1,1 °C 90 % 1013,7 hPa 0,0 mm 0,5 km/h (0 Bft) S 169 ° 0 min 0,000 mm 0,0 UV-I 0 W/m² -0,4 °C 1,6 km/h (1 Bft)
20.10.2016 22:45 1,1 °C 1,1 °C 90 % 1013,7 hPa 0,0 mm 0,8 km/h (0 Bft) S 169 ° 0 min 0,000 mm 0,0 UV-I 0 W/m² -0,4 °C 3,2 km/h (1 Bft)
20.10.2016 22:46 1,1 °C 1,1 °C 90 % 1013,7 hPa 0,0 mm 0,4 km/h (0 Bft) S 169 ° 0 min 0,000 mm 0,0 UV-I 0 W/m² -0,4 °C 1,6 km/h (1 Bft)
20.10.2016 22:47 1,1 °C 1,1 °C 91 % 1013,7 hPa 0,0 mm 1,3 km/h (1 Bft) S 169 ° 0 min 0,000 mm 0,0 UV-I 0 W/m² -0,2 °C 3,2 km/h (1 Bft)
20.10.2016 22:48 1,2 °C 1,2 °C 92 % 1013,7 hPa 0,0 mm 0,7 km/h (0 Bft) S 169 ° 0 min 0,000 mm 0,0 UV-I 0 W/m² 0,0 °C 1,6 km/h (1 Bft)
20.10.2016 22:49 1,2 °C 1,2 °C 91 % 1013,8 hPa 0,0 mm 0,9 km/h (0 Bft) S 169 ° 0 min 0,000 mm 0,0 UV-I 0 W/m² -0,1 °C 3,2 km/h (1 Bft)
20.10.2016 22:50 1,3 °C 1,3 °C 91 % 1013,7 hPa 0,0 mm 0,1 km/h (0 Bft) S 169 ° 0 min 0,000 mm 0,0 UV-I 0 W/m² -0,0 °C 1,6 km/h (1 Bft)
20.10.2016 22:51 1,3 °C 1,3 °C 91 % 1013,7 hPa 0,0 mm 0,1 km/h (0 Bft) S 169 ° 0 min 0,000 mm 0,0 UV-I 0 W/m² -0,0 °C 1,6 km/h (1 Bft)
20.10.2016 22:52 1,3 °C 1,3 °C 91 % 1013,7 hPa 0,0 mm 1,5 km/h (1 Bft) S 169 ° 0 min 0,000 mm 0,0 UV-I 0 W/m² -0,0 °C 3,2 km/h (1 Bft)
20.10.2016 22:53 1,3 °C 1,4 °C 91 % 1013,8 hPa 0,0 mm 0,1 km/h (0 Bft) S 169 ° 0 min 0,000 mm 0,0 UV-I 0 W/m² -0,0 °C 1,6 km/h (1 Bft)
20.10.2016 22:54 1,4 °C 1,4 °C 91 % 1013,8 hPa 0,0 mm 0,1 km/h (0 Bft) S 169 ° 0 min 0,000 mm 0,0 UV-I 0 W/m² 0,1 °C 1,6 km/h (1 Bft)
20.10.2016 22:55 1,4 °C 1,4 °C 90 % 1013,8 hPa 0,0 mm 1,3 km/h (1 Bft) S 169 ° 0 min 0,000 mm 0,0 UV-I 0 W/m² -0,1 °C 3,2 km/h (1 Bft)
20.10.2016 22:56 1,4 °C 1,4 °C 90 % 1013,8 hPa 0,0 mm 3,4 km/h (1 Bft) S 169 ° 0 min 0,000 mm 0,0 UV-I 0 W/m² -0,1 °C 6,4 km/h (2 Bft)
20.10.2016 22:57 1,4 °C 1,4 °C 90 % 1013,8 hPa 0,0 mm 1,3 km/h (1 Bft) S 169 ° 0 min 0,000 mm 0,0 UV-I 0 W/m² -0,1 °C 1,6 km/h (1 Bft)
20.10.2016 22:58 1,5 °C 1,5 °C 90 % 1013,8 hPa 0,0 mm 0,2 km/h (0 Bft) S 169 ° 0 min 0,000 mm 0,0 UV-I 0 W/m² 0,0 °C 1,6 km/h (1 Bft)
20.10.2016 22:59 1,6 °C 1,6 °C 91 % 1013,8 hPa 0,0 mm 0,8 km/h (0 Bft) S 169 ° 0 min 0,000 mm 0,0 UV-I 0 W/m² 0,3 °C 1,6 km/h (1 Bft)
20.10.2016 23:00 1,7 °C 1,7 °C 91 % 1013,8 hPa 0,0 mm 1,1 km/h (1 Bft) S 169 ° 0 min 0,000 mm 0,0 UV-I 0 W/m² 0,4 °C 1,6 km/h (1 Bft)
20.10.2016 23:01 1,6 °C 1,7 °C 89 % 1013,8 hPa 0,0 mm 1,3 km/h (1 Bft) S 169 ° 0 min 0,000 mm 0,0 UV-I 0 W/m² -0,0 °C 3,2 km/h (1 Bft)
20.10.2016 23:02 1,7 °C 1,7 °C 89 % 1013,9 hPa 0,0 mm 0,9 km/h (0 Bft) S 169 ° 0 min 0,000 mm 0,0 UV-I 0 W/m² 0,1 °C 1,6 km/h (1 Bft)
20.10.2016 23:03 1,7 °C 1,7 °C 90 % 1013,9 hPa 0,0 mm 0,5 km/h (0 Bft) S 169 ° 0 min 0,000 mm 0,0 UV-I 0 W/m² 0,2 °C 3,2 km/h (1 Bft)
20.10.2016 23:04 1,7 °C 1,7 °C 90 % 1013,9 hPa 0,0 mm 0,3 km/h (0 Bft) S 169 ° 0 min 0,000 mm 0,0 UV-I 0 W/m² 0,2 °C 1,6 km/h (1 Bft)
20.10.2016 23:05 1,6 °C 1,7 °C 88 % 1013,8 hPa 0,0 mm 1,6 km/h (1 Bft) S 169 ° 0 min 0,000 mm 0,0 UV-I 0 W/m² -0,2 °C 3,2 km/h (1 Bft)
20.10.2016 23:06 1,5 °C 1,6 °C 89 % 1013,9 hPa 0,0 mm 1,5 km/h (1 Bft) S 169 ° 0 min 0,000 mm 0,0 UV-I 0 W/m² -0,1 °C 3,2 km/h (1 Bft)
20.10.2016 23:07 1,4 °C 1,5 °C 90 % 1013,9 hPa 0,0 mm 3,0 km/h (1 Bft) S 170 ° 0 min 0,000 mm 0,0 UV-I 0 W/m² -0,1 °C 6,4 km/h (2 Bft)
20.10.2016 23:08 1,4 °C 1,4 °C 90 % 1013,9 hPa 0,0 mm 2,1 km/h (1 Bft) S 170 ° 0 min 0,000 mm 0,0 UV-I 0 W/m² -0,1 °C 3,2 km/h (1 Bft)
20.10.2016 23:09 1,5 °C 1,5 °C 90 % 1013,9 hPa 0,0 mm 1,3 km/h (1 Bft) S 170 ° 0 min 0,000 mm 0,0 UV-I 0 W/m² 0,0 °C 1,6 km/h (1 Bft)
20.10.2016 23:10 1,5 °C 1,5 °C 91 % 1013,9 hPa 0,0 mm 1,3 km/h (1 Bft) S 170 ° 0 min 0,000 mm 0,0 UV-I 0 W/m² 0,2 °C 3,2 km/h (1 Bft)
20.10.2016 23:11 1,4 °C 1,5 °C 89 % 1013,9 hPa 0,0 mm 0,5 km/h (0 Bft) S 170 ° 0 min 0,000 mm 0,0 UV-I 0 W/m² -0,2 °C 1,6 km/h (1 Bft)
20.10.2016 23:12 1,4 °C 1,4 °C 90 % 1013,9 hPa 0,0 mm 1,3 km/h (1 Bft) S 170 ° 0 min 0,000 mm 0,0 UV-I 0 W/m² -0,1 °C 3,2 km/h (1 Bft)
20.10.2016 23:13 1,5 °C 1,5 °C 90 % 1013,9 hPa 0,0 mm 3,0 km/h (1 Bft) S 170 ° 0 min 0,000 mm 0,0 UV-I 0 W/m² 0,0 °C 6,4 km/h (2 Bft)
20.10.2016 23:14 1,5 °C 1,6 °C 91 % 1013,9 hPa 0,0 mm 2,5 km/h (1 Bft) S 170 ° 0 min 0,000 mm 0,0 UV-I 0 W/m² 0,2 °C 3,2 km/h (1 Bft)
20.10.2016 23:15 1,6 °C 1,6 °C 90 % 1013,9 hPa 0,0 mm 4,1 km/h (1 Bft) S 188 ° 0 min 0,000 mm 0,0 UV-I 0 W/m² 0,1 °C 6,4 km/h (2 Bft)
20.10.2016 23:16 1,6 °C 1,6 °C 90 % 1013,9 hPa 0,0 mm 4,4 km/h (1 Bft) S 177 ° 0 min 0,000 mm 0,0 UV-I 0 W/m² 0,1 °C 6,4 km/h (2 Bft)
20.10.2016 23:17 1,6 °C 1,6 °C 90 % 1013,9 hPa 0,0 mm 2,7 km/h (1 Bft) S 184 ° 0 min 0,000 mm 0,0 UV-I 0 W/m² 0,1 °C 4,8 km/h (1 Bft)
20.10.2016 23:18 1,6 °C 1,6 °C 90 % 1013,9 hPa 0,0 mm 6,6 km/h (2 Bft) S 191 ° 0 min 0,000 mm 0,0 UV-I 0 W/m² 0,1 °C 9,7 km/h (2 Bft)
20.10.2016 23:19 1,6 °C 1,6 °C 89 % 1013,9 hPa 0,0 mm 4,6 km/h (1 Bft) S 178 ° 0 min 0,000 mm 0,0 UV-I 0 W/m² -0,0 °C 6,4 km/h (2 Bft)
20.10.2016 23:20 1,6 °C 1,6 °C 90 % 1013,9 hPa 0,0 mm 4,0 km/h (1 Bft) S 182 ° 0 min 0,000 mm 0,0 UV-I 0 W/m² 0,1 °C 6,4 km/h (2 Bft)
20.10.2016 23:21 1,6 °C 1,6 °C 89 % 1013,9 hPa 0,0 mm 4,6 km/h (1 Bft) S 188 ° 0 min 0,000 mm 0,0 UV-I 0 W/m² -0,0 °C 6,4 km/h (2 Bft)
20.10.2016 23:22 1,6 °C 1,6 °C 90 % 1013,9 hPa 0,0 mm 4,2 km/h (1 Bft) SO 146 ° 0 min 0,000 mm 0,0 UV-I 0 W/m² 0,1 °C 6,4 km/h (2 Bft)
20.10.2016 23:23 1,5 °C 1,6 °C 90 % 1013,9 hPa 0,0 mm 3,0 km/h (1 Bft) SO 146 ° 0 min 0,000 mm 0,0 UV-I 0 W/m² 0,0 °C 4,8 km/h (1 Bft)
20.10.2016 23:24 1,4 °C 1,5 °C 89 % 1013,9 hPa 0,0 mm 3,4 km/h (1 Bft) S 191 ° 0 min 0,000 mm 0,0 UV-I 0 W/m² -0,2 °C 6,4 km/h (2 Bft)
20.10.2016 23:25 1,5 °C 1,5 °C 90 % 1013,9 hPa 0,0 mm 2,7 km/h (1 Bft) S 173 ° 0 min 0,000 mm 0,0 UV-I 0 W/m² 0,0 °C 6,4 km/h (2 Bft)
20.10.2016 23:26 1,5 °C 1,6 °C 90 % 1013,9 hPa 0,0 mm 4,0 km/h (1 Bft) S-SO 151 ° 0 min 0,000 mm 0,0 UV-I 0 W/m² 0,0 °C 4,8 km/h (1 Bft)
20.10.2016 23:27 1,6 °C 1,6 °C 90 % 1013,9 hPa 0,0 mm 5,0 km/h (1 Bft) SO 144 ° 0 min 0,000 mm 0,0 UV-I 0 W/m² 0,1 °C 6,4 km/h (2 Bft)
20.10.2016 23:28 1,6 °C 1,6 °C 90 % 1013,9 hPa 0,0 mm 4,6 km/h (1 Bft) SO 145 ° 0 min 0,000 mm 0,0 UV-I 0 W/m² 0,1 °C 4,8 km/h (1 Bft)
20.10.2016 23:29 1,6 °C 1,6 °C 90 % 1013,9 hPa 0,0 mm 1,9 km/h (1 Bft) SO 145 ° 0 min 0,000 mm 0,0 UV-I 0 W/m² 0,1 °C 3,2 km/h (1 Bft)
20.10.2016 23:30 1,6 °C 1,6 °C 90 % 1013,9 hPa 0,0 mm 1,3 km/h (1 Bft) SO 145 ° 0 min 0,000 mm 0,0 UV-I 0 W/m² 0,1 °C 3,2 km/h (1 Bft)
20.10.2016 23:31 1,6 °C 1,6 °C 90 % 1013,9 hPa 0,0 mm 0,7 km/h (0 Bft) SO 145 ° 0 min 0,000 mm 0,0 UV-I 0 W/m² 0,1 °C 3,2 km/h (1 Bft)
20.10.2016 23:32 1,6 °C 1,6 °C 90 % 1013,9 hPa 0,0 mm 1,5 km/h (1 Bft) SO 145 ° 0 min 0,000 mm 0,0 UV-I 0 W/m² 0,1 °C 3,2 km/h (1 Bft)
20.10.2016 23:33 1,6 °C 1,6 °C 90 % 1013,9 hPa 0,0 mm 0,7 km/h (0 Bft) SO 145 ° 0 min 0,000 mm 0,0 UV-I 0 W/m² 0,1 °C 1,6 km/h (1 Bft)
20.10.2016 23:34 1,6 °C 1,6 °C 89 % 1014,0 hPa 0,0 mm 0,3 km/h (0 Bft) SO 145 ° 0 min 0,000 mm 0,0 UV-I 0 W/m² -0,0 °C 1,6 km/h (1 Bft)
20.10.2016 23:35 1,6 °C 1,6 °C 89 % 1014,0 hPa 0,0 mm 3,6 km/h (1 Bft) S 171 ° 0 min 0,000 mm 0,0 UV-I 0 W/m² -0,0 °C 6,4 km/h (2 Bft)
20.10.2016 23:36 1,6 °C 1,6 °C 89 % 1013,9 hPa 0,0 mm 1,7 km/h (1 Bft) S 171 ° 0 min 0,000 mm 0,0 UV-I 0 W/m² -0,0 °C 3,2 km/h (1 Bft)
20.10.2016 23:37 1,4 °C 1,6 °C 89 % 1014,0 hPa 0,0 mm 1,3 km/h (1 Bft) S 171 ° 0 min 0,000 mm 0,0 UV-I 0 W/m² -0,2 °C 3,2 km/h (1 Bft)
20.10.2016 23:38 1,4 °C 1,4 °C 90 % 1014,0 hPa 0,0 mm 3,6 km/h (1 Bft) S 172 ° 0 min 0,000 mm 0,0 UV-I 0 W/m² -0,1 °C 6,4 km/h (2 Bft)
20.10.2016 23:39 1,4 °C 1,4 °C 90 % 1014,0 hPa 0,0 mm 3,2 km/h (1 Bft) S 178 ° 0 min 0,000 mm 0,0 UV-I 0 W/m² -0,1 °C 4,8 km/h (1 Bft)
20.10.2016 23:40 1,4 °C 1,4 °C 90 % 1013,9 hPa 0,0 mm 5,0 km/h (1 Bft) O-SO 123 ° 0 min 0,000 mm 0,0 UV-I 0 W/m² -0,1 °C 8,0 km/h (2 Bft)
20.10.2016 23:41 1,5 °C 1,5 °C 90 % 1013,9 hPa 0,0 mm 4,2 km/h (1 Bft) SO 136 ° 0 min 0,000 mm 0,0 UV-I 0 W/m² 0,0 °C 4,8 km/h (1 Bft)
20.10.2016 23:42 1,5 °C 1,5 °C 90 % 1014,0 hPa 0,0 mm 2,9 km/h (1 Bft) SO 136 ° 0 min 0,000 mm 0,0 UV-I 0 W/m² 0,0 °C 4,8 km/h (1 Bft)
20.10.2016 23:43 1,4 °C 1,5 °C 90 % 1014,0 hPa 0,0 mm 1,5 km/h (1 Bft) S 175 ° 0 min 0,000 mm 0,0 UV-I 0 W/m² -0,1 °C 6,4 km/h (2 Bft)
20.10.2016 23:44 1,5 °C 1,5 °C 90 % 1014,0 hPa 0,0 mm 3,5 km/h (1 Bft) S-SW 200 ° 0 min 0,000 mm 0,0 UV-I 0 W/m² 0,0 °C 6,4 km/h (2 Bft)
20.10.2016 23:45 1,4 °C 1,5 °C 89 % 1013,9 hPa 0,0 mm 2,7 km/h (1 Bft) S-SO 161 ° 0 min 0,000 mm 0,0 UV-I 0 W/m² -0,2 °C 6,4 km/h (2 Bft)
20.10.2016 23:46 1,4 °C 1,5 °C 90 % 1013,9 hPa 0,0 mm 3,2 km/h (1 Bft) S-SO 159 ° 0 min 0,000 mm 0,0 UV-I 0 W/m² -0,1 °C 6,4 km/h (2 Bft)
20.10.2016 23:47 1,4 °C 1,4 °C 90 % 1014,0 hPa 0,0 mm 2,1 km/h (1 Bft) S-SW 213 ° 0 min 0,000 mm 0,0 UV-I 0 W/m² -0,1 °C 3,2 km/h (1 Bft)
20.10.2016 23:48 1,4 °C 1,4 °C 90 % 1014,0 hPa 0,0 mm 1,1 km/h (1 Bft) S-SW 212 ° 0 min 0,000 mm 0,0 UV-I 0 W/m² -0,1 °C 3,2 km/h (1 Bft)
20.10.2016 23:49 1,4 °C 1,4 °C 90 % 1014,0 hPa 0,0 mm 0,5 km/h (0 Bft) S-SW 212 ° 0 min 0,000 mm 0,0 UV-I 0 W/m² -0,1 °C 1,6 km/h (1 Bft)
20.10.2016 23:50 1,4 °C 1,4 °C 89 % 1014,0 hPa 0,0 mm 1,1 km/h (1 Bft) S-SW 212 ° 0 min 0,000 mm 0,0 UV-I 0 W/m² -0,2 °C 3,2 km/h (1 Bft)
20.10.2016 23:51 1,4 °C 1,4 °C 90 % 1014,0 hPa 0,0 mm 5,0 km/h (1 Bft) S-SW 196 ° 0 min 0,000 mm 0,0 UV-I 0 W/m² -0,1 °C 9,7 km/h (2 Bft)
20.10.2016 23:52 1,4 °C 1,4 °C 90 % 1013,9 hPa 0,0 mm 7,2 km/h (2 Bft) SO 128 ° 0 min 0,000 mm 0,0 UV-I 0 W/m² -0,1 °C 11,3 km/h (2 Bft)
20.10.2016 23:53 1,5 °C 1,5 °C 90 % 1013,9 hPa 0,0 mm 3,6 km/h (1 Bft) SO 128 ° 0 min 0,000 mm 0,0 UV-I 0 W/m² 0,0 °C 6,4 km/h (2 Bft)
20.10.2016 23:54 1,6 °C 1,6 °C 90 % 1013,9 hPa 0,0 mm 1,5 km/h (1 Bft) SO 128 ° 0 min 0,000 mm 0,0 UV-I 0 W/m² 0,1 °C 3,2 km/h (1 Bft)
20.10.2016 23:55 1,6 °C 1,6 °C 90 % 1013,9 hPa 0,0 mm 0,6 km/h (0 Bft) SO 132 ° 0 min 0,000 mm 0,0 UV-I 0 W/m² 0,1 °C 1,6 km/h (1 Bft)
20.10.2016 23:56 1,6 °C 1,6 °C 90 % 1014,0 hPa 0,0 mm 2,3 km/h (1 Bft) S-SO 165 ° 0 min 0,000 mm 0,0 UV-I 0 W/m² 0,1 °C 6,4 km/h (2 Bft)
20.10.2016 23:57 1,6 °C 1,6 °C 90 % 1014,0 hPa 0,0 mm 2,8 km/h (1 Bft) S 188 ° 0 min 0,000 mm 0,0 UV-I 0 W/m² 0,1 °C 4,8 km/h (1 Bft)
20.10.2016 23:58 1,7 °C 1,7 °C 90 % 1013,9 hPa 0,0 mm 2,1 km/h (1 Bft) S 187 ° 0 min 0,000 mm 0,0 UV-I 0 W/m² 0,2 °C 4,8 km/h (1 Bft)
20.10.2016 23:59 1,7 °C 1,7 °C 90 % 1014,0 hPa 0,0 mm 0,9 km/h (0 Bft) S 188 ° 0 min 0,000 mm 0,0 UV-I 0 W/m² 0,2 °C 3,2 km/h (1 Bft)
_ Min-Zeit 22:47 22:47 14:51 16:18 - 22:36 - - - - - - 22:42 22:36
Minimum _ 1,1 °C 1,1 °C 60 % 1013,3 hPa - 0,0 km/h (0 Bft) - - - - - - -0,6 °C 0,0 km/h (0 Bft)
_ Max-Zeit 14:22 14:23 22:48 00:02 23:59 15:40 - - 16:13 15:01 13:33 14:10 13:30 12:05
Maximum _ 10,2 °C 10,2 °C 92 % 1016,0 hPa 0,0 mm 18,0 km/h
W-SW (3 Bft)
- - 1 min 0,254 mm 2,8 UV-I 615 W/m² 4,3 °C 32,2 km/h
W-SW (5 Bft)
Durchschnitt _ 5,5 °C 5,5 °C 80 % 1014,5 hPa #0,0 mm 4,8 km/h (1 Bft) W - #3:32 h #1,295 mm 1,8 UV-I 89 W/m² 2,2 °C 8,0 km/h (2 Bft)